<?xml version="1.0" encoding="UTF-8" standalone="no" ?>
<gpx xmlns="http://www.topografix.com/GPX/1/1" xmlns:xsi="http://www.w3.org/2001/XMLSchema-instance" xsi:schemaLocation="http://www.topografix.com/GPX/1/1 http://www.topografix.com/GPX/1/1/gpx.xsd" version="1.1" creator="VisuGPX - https://www.visugpx.com">
  <metadata>
    <name>Serres en boucle</name>
    <desc><![CDATA[
Temps magnifique sans vent. 
Belle ballade tranquille.]]></desc>
  </metadata>
  <trk>
    <name><![CDATA[Serres en boucle_1]]></name>
    <trkseg>
      <trkpt lat="44.42647" lon="5.71471">
        <ele>704.054</ele>
        <time>2020-02-22T10:53:10Z</time>
      </trkpt>
      <trkpt lat="44.42647" lon="5.71471">
        <ele>704.083</ele>
        <time>2020-02-22T10:53:16Z</time>
      </trkpt>
      <trkpt lat="44.42647" lon="5.71472">
        <ele>702.939</ele>
        <time>2020-02-22T10:53:22Z</time>
      </trkpt>
      <trkpt lat="44.42647" lon="5.71472">
        <ele>702.947</ele>
        <time>2020-02-22T10:53:28Z</time>
      </trkpt>
      <trkpt lat="44.42647" lon="5.71472">
        <ele>702.954</ele>
        <time>2020-02-22T10:53:34Z</time>
      </trkpt>
      <trkpt lat="44.42647" lon="5.71472">
        <ele>702.895</ele>
        <time>2020-02-22T10:53:40Z</time>
      </trkpt>
      <trkpt lat="44.42647" lon="5.71472">
        <ele>702.725</ele>
        <time>2020-02-22T10:53:45Z</time>
      </trkpt>
      <trkpt lat="44.42647" lon="5.71472">
        <ele>702.729</ele>
        <time>2020-02-22T10:53:51Z</time>
      </trkpt>
      <trkpt lat="44.42647" lon="5.71472">
        <ele>702.716</ele>
        <time>2020-02-22T10:53:56Z</time>
      </trkpt>
      <trkpt lat="44.42647" lon="5.71472">
        <ele>702.717</ele>
        <time>2020-02-22T10:54:02Z</time>
      </trkpt>
      <trkpt lat="44.42647" lon="5.71472">
        <ele>702.709</ele>
        <time>2020-02-22T10:54:07Z</time>
      </trkpt>
      <trkpt lat="44.42647" lon="5.71472">
        <ele>702.714</ele>
        <time>2020-02-22T10:54:13Z</time>
      </trkpt>
      <trkpt lat="44.42647" lon="5.71472">
        <ele>702.704</ele>
        <time>2020-02-22T10:54:19Z</time>
      </trkpt>
      <trkpt lat="44.42648" lon="5.71472">
        <ele>702.695</ele>
        <time>2020-02-22T10:54:24Z</time>
      </trkpt>
      <trkpt lat="44.42648" lon="5.71472">
        <ele>702.686</ele>
        <time>2020-02-22T10:54:30Z</time>
      </trkpt>
      <trkpt lat="44.42648" lon="5.71472">
        <ele>702.691</ele>
        <time>2020-02-22T10:54:35Z</time>
      </trkpt>
      <trkpt lat="44.42648" lon="5.71471">
        <ele>702.795</ele>
        <time>2020-02-22T10:54:41Z</time>
      </trkpt>
      <trkpt lat="44.42649" lon="5.71476">
        <ele>700.178</ele>
        <time>2020-02-22T10:54:48Z</time>
      </trkpt>
      <trkpt lat="44.42648" lon="5.7147">
        <ele>701.921</ele>
        <time>2020-02-22T10:54:53Z</time>
      </trkpt>
      <trkpt lat="44.4265" lon="5.71473">
        <ele>701.64</ele>
        <time>2020-02-22T10:54:58Z</time>
      </trkpt>
      <trkpt lat="44.42652" lon="5.71473">
        <ele>700.583</ele>
        <time>2020-02-22T10:55:04Z</time>
      </trkpt>
      <trkpt lat="44.42651" lon="5.71473">
        <ele>700.584</ele>
        <time>2020-02-22T10:55:10Z</time>
      </trkpt>
      <trkpt lat="44.4265" lon="5.71472">
        <ele>703.114</ele>
        <time>2020-02-22T10:55:16Z</time>
      </trkpt>
      <trkpt lat="44.4265" lon="5.71472">
        <ele>703.132</ele>
        <time>2020-02-22T10:55:22Z</time>
      </trkpt>
      <trkpt lat="44.4265" lon="5.71472">
        <ele>703.107</ele>
        <time>2020-02-22T10:55:27Z</time>
      </trkpt>
      <trkpt lat="44.4265" lon="5.71472">
        <ele>703.092</ele>
        <time>2020-02-22T10:55:32Z</time>
      </trkpt>
      <trkpt lat="44.4265" lon="5.71472">
        <ele>703.114</ele>
        <time>2020-02-22T10:55:38Z</time>
      </trkpt>
      <trkpt lat="44.4265" lon="5.71472">
        <ele>703.116</ele>
        <time>2020-02-22T10:55:43Z</time>
      </trkpt>
      <trkpt lat="44.4265" lon="5.71472">
        <ele>703.106</ele>
        <time>2020-02-22T10:55:49Z</time>
      </trkpt>
      <trkpt lat="44.4265" lon="5.71472">
        <ele>703.12</ele>
        <time>2020-02-22T10:55:55Z</time>
      </trkpt>
      <trkpt lat="44.4265" lon="5.71472">
        <ele>703.122</ele>
        <time>2020-02-22T10:56:01Z</time>
      </trkpt>
      <trkpt lat="44.4265" lon="5.71472">
        <ele>703.089</ele>
        <time>2020-02-22T10:56:07Z</time>
      </trkpt>
      <trkpt lat="44.4265" lon="5.71472">
        <ele>703.113</ele>
        <time>2020-02-22T10:56:12Z</time>
      </trkpt>
      <trkpt lat="44.4265" lon="5.71472">
        <ele>703.094</ele>
        <time>2020-02-22T10:56:18Z</time>
      </trkpt>
      <trkpt lat="44.4265" lon="5.71472">
        <ele>703.052</ele>
        <time>2020-02-22T10:56:24Z</time>
      </trkpt>
      <trkpt lat="44.4265" lon="5.71472">
        <ele>703.073</ele>
        <time>2020-02-22T10:56:29Z</time>
      </trkpt>
      <trkpt lat="44.4265" lon="5.71472">
        <ele>703.101</ele>
        <time>2020-02-22T10:56:35Z</time>
      </trkpt>
      <trkpt lat="44.4265" lon="5.71472">
        <ele>703.143</ele>
        <time>2020-02-22T10:56:41Z</time>
      </trkpt>
      <trkpt lat="44.4265" lon="5.71472">
        <ele>703.179</ele>
        <time>2020-02-22T10:56:46Z</time>
      </trkpt>
      <trkpt lat="44.4265" lon="5.71472">
        <ele>703.215</ele>
        <time>2020-02-22T10:56:51Z</time>
      </trkpt>
      <trkpt lat="44.4265" lon="5.71472">
        <ele>703.276</ele>
        <time>2020-02-22T10:56:57Z</time>
      </trkpt>
      <trkpt lat="44.42653" lon="5.71477">
        <ele>703.125</ele>
        <time>2020-02-22T10:57:03Z</time>
      </trkpt>
      <trkpt lat="44.42653" lon="5.71478">
        <ele>702.635</ele>
        <time>2020-02-22T10:57:09Z</time>
      </trkpt>
      <trkpt lat="44.42652" lon="5.71475">
        <ele>702.664</ele>
        <time>2020-02-22T10:57:14Z</time>
      </trkpt>
      <trkpt lat="44.42652" lon="5.71474">
        <ele>702.727</ele>
        <time>2020-02-22T10:57:20Z</time>
      </trkpt>
      <trkpt lat="44.42652" lon="5.71474">
        <ele>702.738</ele>
        <time>2020-02-22T10:57:26Z</time>
      </trkpt>
      <trkpt lat="44.42652" lon="5.71474">
        <ele>702.736</ele>
        <time>2020-02-22T10:57:32Z</time>
      </trkpt>
      <trkpt lat="44.42652" lon="5.71474">
        <ele>702.739</ele>
        <time>2020-02-22T10:57:38Z</time>
      </trkpt>
      <trkpt lat="44.42652" lon="5.71474">
        <ele>702.743</ele>
        <time>2020-02-22T10:57:43Z</time>
      </trkpt>
      <trkpt lat="44.42652" lon="5.71474">
        <ele>702.737</ele>
        <time>2020-02-22T10:57:48Z</time>
      </trkpt>
      <trkpt lat="44.42652" lon="5.71474">
        <ele>702.706</ele>
        <time>2020-02-22T10:57:54Z</time>
      </trkpt>
      <trkpt lat="44.42652" lon="5.71474">
        <ele>702.699</ele>
        <time>2020-02-22T10:57:59Z</time>
      </trkpt>
      <trkpt lat="44.42652" lon="5.71474">
        <ele>702.694</ele>
        <time>2020-02-22T10:58:04Z</time>
      </trkpt>
      <trkpt lat="44.42652" lon="5.71474">
        <ele>702.706</ele>
        <time>2020-02-22T10:58:10Z</time>
      </trkpt>
      <trkpt lat="44.42652" lon="5.71474">
        <ele>702.72</ele>
        <time>2020-02-22T10:58:15Z</time>
      </trkpt>
      <trkpt lat="44.42652" lon="5.71474">
        <ele>702.706</ele>
        <time>2020-02-22T10:58:21Z</time>
      </trkpt>
      <trkpt lat="44.42652" lon="5.71474">
        <ele>702.689</ele>
        <time>2020-02-22T10:58:26Z</time>
      </trkpt>
      <trkpt lat="44.42652" lon="5.71474">
        <ele>702.649</ele>
        <time>2020-02-22T10:58:32Z</time>
      </trkpt>
      <trkpt lat="44.42652" lon="5.71474">
        <ele>702.664</ele>
        <time>2020-02-22T10:58:37Z</time>
      </trkpt>
      <trkpt lat="44.42652" lon="5.71474">
        <ele>702.706</ele>
        <time>2020-02-22T10:58:43Z</time>
      </trkpt>
      <trkpt lat="44.42652" lon="5.71474">
        <ele>702.726</ele>
        <time>2020-02-22T10:58:49Z</time>
      </trkpt>
      <trkpt lat="44.42652" lon="5.71474">
        <ele>702.739</ele>
        <time>2020-02-22T10:58:55Z</time>
      </trkpt>
      <trkpt lat="44.42652" lon="5.71474">
        <ele>702.757</ele>
        <time>2020-02-22T10:59:00Z</time>
      </trkpt>
      <trkpt lat="44.42651" lon="5.71474">
        <ele>702.772</ele>
        <time>2020-02-22T10:59:06Z</time>
      </trkpt>
      <trkpt lat="44.42651" lon="5.71474">
        <ele>702.784</ele>
        <time>2020-02-22T10:59:11Z</time>
      </trkpt>
      <trkpt lat="44.42651" lon="5.71474">
        <ele>702.799</ele>
        <time>2020-02-22T10:59:16Z</time>
      </trkpt>
      <trkpt lat="44.42651" lon="5.71474">
        <ele>702.809</ele>
        <time>2020-02-22T10:59:21Z</time>
      </trkpt>
      <trkpt lat="44.42651" lon="5.71474">
        <ele>702.826</ele>
        <time>2020-02-22T10:59:27Z</time>
      </trkpt>
      <trkpt lat="44.42651" lon="5.71474">
        <ele>702.849</ele>
        <time>2020-02-22T10:59:33Z</time>
      </trkpt>
      <trkpt lat="44.42651" lon="5.71474">
        <ele>702.856</ele>
        <time>2020-02-22T10:59:39Z</time>
      </trkpt>
      <trkpt lat="44.42651" lon="5.71474">
        <ele>702.866</ele>
        <time>2020-02-22T10:59:44Z</time>
      </trkpt>
      <trkpt lat="44.42651" lon="5.71474">
        <ele>702.887</ele>
        <time>2020-02-22T10:59:49Z</time>
      </trkpt>
      <trkpt lat="44.42651" lon="5.71474">
        <ele>702.908</ele>
        <time>2020-02-22T10:59:55Z</time>
      </trkpt>
      <trkpt lat="44.42653" lon="5.71477">
        <ele>705.264</ele>
        <time>2020-02-22T11:00:01Z</time>
      </trkpt>
      <trkpt lat="44.42653" lon="5.71477">
        <ele>705.569</ele>
        <time>2020-02-22T11:00:07Z</time>
      </trkpt>
      <trkpt lat="44.42653" lon="5.71478">
        <ele>705.64</ele>
        <time>2020-02-22T11:00:13Z</time>
      </trkpt>
      <trkpt lat="44.42653" lon="5.71479">
        <ele>705.497</ele>
        <time>2020-02-22T11:00:19Z</time>
      </trkpt>
      <trkpt lat="44.42661" lon="5.71491">
        <ele>705.502</ele>
        <time>2020-02-22T11:00:25Z</time>
      </trkpt>
      <trkpt lat="44.42674" lon="5.7151">
        <ele>705.969</ele>
        <time>2020-02-22T11:00:31Z</time>
      </trkpt>
      <trkpt lat="44.42698" lon="5.71522">
        <ele>706.171</ele>
        <time>2020-02-22T11:00:37Z</time>
      </trkpt>
      <trkpt lat="44.42722" lon="5.71537">
        <ele>707.023</ele>
        <time>2020-02-22T11:00:43Z</time>
      </trkpt>
      <trkpt lat="44.42748" lon="5.71553">
        <ele>707.793</ele>
        <time>2020-02-22T11:00:49Z</time>
      </trkpt>
      <trkpt lat="44.42769" lon="5.71566">
        <ele>709.239</ele>
        <time>2020-02-22T11:00:54Z</time>
      </trkpt>
      <trkpt lat="44.4279" lon="5.7158">
        <ele>711.343</ele>
        <time>2020-02-22T11:01:00Z</time>
      </trkpt>
      <trkpt lat="44.42808" lon="5.71592">
        <ele>710.59</ele>
        <time>2020-02-22T11:01:05Z</time>
      </trkpt>
      <trkpt lat="44.42829" lon="5.716">
        <ele>707.067</ele>
        <time>2020-02-22T11:01:11Z</time>
      </trkpt>
      <trkpt lat="44.42854" lon="5.71613">
        <ele>708.861</ele>
        <time>2020-02-22T11:01:17Z</time>
      </trkpt>
      <trkpt lat="44.42869" lon="5.71619">
        <ele>709.271</ele>
        <time>2020-02-22T11:01:23Z</time>
      </trkpt>
      <trkpt lat="44.42871" lon="5.71625">
        <ele>707.008</ele>
        <time>2020-02-22T11:01:28Z</time>
      </trkpt>
      <trkpt lat="44.42872" lon="5.71626">
        <ele>708.031</ele>
        <time>2020-02-22T11:01:34Z</time>
      </trkpt>
      <trkpt lat="44.42872" lon="5.71626">
        <ele>707.427</ele>
        <time>2020-02-22T11:01:40Z</time>
      </trkpt>
      <trkpt lat="44.42872" lon="5.71626">
        <ele>707.524</ele>
        <time>2020-02-22T11:01:46Z</time>
      </trkpt>
      <trkpt lat="44.42872" lon="5.71626">
        <ele>707.539</ele>
        <time>2020-02-22T11:01:51Z</time>
      </trkpt>
      <trkpt lat="44.42872" lon="5.71626">
        <ele>707.52</ele>
        <time>2020-02-22T11:01:56Z</time>
      </trkpt>
      <trkpt lat="44.42872" lon="5.71626">
        <ele>707.527</ele>
        <time>2020-02-22T11:02:01Z</time>
      </trkpt>
      <trkpt lat="44.42872" lon="5.71626">
        <ele>707.552</ele>
        <time>2020-02-22T11:02:07Z</time>
      </trkpt>
      <trkpt lat="44.42872" lon="5.71626">
        <ele>707.572</ele>
        <time>2020-02-22T11:02:13Z</time>
      </trkpt>
      <trkpt lat="44.42872" lon="5.71626">
        <ele>707.59</ele>
        <time>2020-02-22T11:02:19Z</time>
      </trkpt>
      <trkpt lat="44.42872" lon="5.71626">
        <ele>707.631</ele>
        <time>2020-02-22T11:02:25Z</time>
      </trkpt>
      <trkpt lat="44.42872" lon="5.71626">
        <ele>707.661</ele>
        <time>2020-02-22T11:02:31Z</time>
      </trkpt>
      <trkpt lat="44.42872" lon="5.71626">
        <ele>707.67</ele>
        <time>2020-02-22T11:02:37Z</time>
      </trkpt>
      <trkpt lat="44.42872" lon="5.71627">
        <ele>708.432</ele>
        <time>2020-02-22T11:02:42Z</time>
      </trkpt>
      <trkpt lat="44.42855" lon="5.71618">
        <ele>707.354</ele>
        <time>2020-02-22T11:02:48Z</time>
      </trkpt>
      <trkpt lat="44.42833" lon="5.71604">
        <ele>702.437</ele>
        <time>2020-02-22T11:02:53Z</time>
      </trkpt>
      <trkpt lat="44.42806" lon="5.71587">
        <ele>704.862</ele>
        <time>2020-02-22T11:02:59Z</time>
      </trkpt>
      <trkpt lat="44.42782" lon="5.7157">
        <ele>702.824</ele>
        <time>2020-02-22T11:03:04Z</time>
      </trkpt>
      <trkpt lat="44.42757" lon="5.71556">
        <ele>703.253</ele>
        <time>2020-02-22T11:03:09Z</time>
      </trkpt>
      <trkpt lat="44.42724" lon="5.71532">
        <ele>707.297</ele>
        <time>2020-02-22T11:03:15Z</time>
      </trkpt>
      <trkpt lat="44.42694" lon="5.71513">
        <ele>704.073</ele>
        <time>2020-02-22T11:03:21Z</time>
      </trkpt>
      <trkpt lat="44.42665" lon="5.71494">
        <ele>702.037</ele>
        <time>2020-02-22T11:03:27Z</time>
      </trkpt>
      <trkpt lat="44.42672" lon="5.71467">
        <ele>703.075</ele>
        <time>2020-02-22T11:03:32Z</time>
      </trkpt>
      <trkpt lat="44.42691" lon="5.71444">
        <ele>706.747</ele>
        <time>2020-02-22T11:03:38Z</time>
      </trkpt>
      <trkpt lat="44.42714" lon="5.71429">
        <ele>708.142</ele>
        <time>2020-02-22T11:03:44Z</time>
      </trkpt>
      <trkpt lat="44.42732" lon="5.71411">
        <ele>708.638</ele>
        <time>2020-02-22T11:03:50Z</time>
      </trkpt>
      <trkpt lat="44.4272" lon="5.71388">
        <ele>711.211</ele>
        <time>2020-02-22T11:03:56Z</time>
      </trkpt>
      <trkpt lat="44.42704" lon="5.71367">
        <ele>711.333</ele>
        <time>2020-02-22T11:04:01Z</time>
      </trkpt>
      <trkpt lat="44.42691" lon="5.71343">
        <ele>710.177</ele>
        <time>2020-02-22T11:04:06Z</time>
      </trkpt>
      <trkpt lat="44.42668" lon="5.71309">
        <ele>708.835</ele>
        <time>2020-02-22T11:04:12Z</time>
      </trkpt>
      <trkpt lat="44.42653" lon="5.71284">
        <ele>705.971</ele>
        <time>2020-02-22T11:04:17Z</time>
      </trkpt>
      <trkpt lat="44.42634" lon="5.71256">
        <ele>706.809</ele>
        <time>2020-02-22T11:04:22Z</time>
      </trkpt>
      <trkpt lat="44.42609" lon="5.71223">
        <ele>706.843</ele>
        <time>2020-02-22T11:04:28Z</time>
      </trkpt>
      <trkpt lat="44.42589" lon="5.71195">
        <ele>705.156</ele>
        <time>2020-02-22T11:04:33Z</time>
      </trkpt>
      <trkpt lat="44.42568" lon="5.71167">
        <ele>705.735</ele>
        <time>2020-02-22T11:04:38Z</time>
      </trkpt>
      <trkpt lat="44.42546" lon="5.71135">
        <ele>704.733</ele>
        <time>2020-02-22T11:04:44Z</time>
      </trkpt>
      <trkpt lat="44.42525" lon="5.71105">
        <ele>704.945</ele>
        <time>2020-02-22T11:04:50Z</time>
      </trkpt>
      <trkpt lat="44.4251" lon="5.7108">
        <ele>706.861</ele>
        <time>2020-02-22T11:04:56Z</time>
      </trkpt>
      <trkpt lat="44.42504" lon="5.71062">
        <ele>710.591</ele>
        <time>2020-02-22T11:05:01Z</time>
      </trkpt>
      <trkpt lat="44.42506" lon="5.71043">
        <ele>711.019</ele>
        <time>2020-02-22T11:05:07Z</time>
      </trkpt>
      <trkpt lat="44.42513" lon="5.7103">
        <ele>710.832</ele>
        <time>2020-02-22T11:05:13Z</time>
      </trkpt>
      <trkpt lat="44.42529" lon="5.71025">
        <ele>711.631</ele>
        <time>2020-02-22T11:05:18Z</time>
      </trkpt>
      <trkpt lat="44.42547" lon="5.7102">
        <ele>710.517</ele>
        <time>2020-02-22T11:05:24Z</time>
      </trkpt>
      <trkpt lat="44.42565" lon="5.7102">
        <ele>711.837</ele>
        <time>2020-02-22T11:05:29Z</time>
      </trkpt>
      <trkpt lat="44.42583" lon="5.7102">
        <ele>715.396</ele>
        <time>2020-02-22T11:05:35Z</time>
      </trkpt>
      <trkpt lat="44.42595" lon="5.71013">
        <ele>715.445</ele>
        <time>2020-02-22T11:05:40Z</time>
      </trkpt>
      <trkpt lat="44.42591" lon="5.70996">
        <ele>717.203</ele>
        <time>2020-02-22T11:05:46Z</time>
      </trkpt>
      <trkpt lat="44.42576" lon="5.70982">
        <ele>715.956</ele>
        <time>2020-02-22T11:05:51Z</time>
      </trkpt>
      <trkpt lat="44.42554" lon="5.70965">
        <ele>715.701</ele>
        <time>2020-02-22T11:05:57Z</time>
      </trkpt>
      <trkpt lat="44.42531" lon="5.70951">
        <ele>717.303</ele>
        <time>2020-02-22T11:06:03Z</time>
      </trkpt>
      <trkpt lat="44.42506" lon="5.70934">
        <ele>716.264</ele>
        <time>2020-02-22T11:06:09Z</time>
      </trkpt>
      <trkpt lat="44.42481" lon="5.70921">
        <ele>718.074</ele>
        <time>2020-02-22T11:06:15Z</time>
      </trkpt>
      <trkpt lat="44.42455" lon="5.70903">
        <ele>715.598</ele>
        <time>2020-02-22T11:06:21Z</time>
      </trkpt>
      <trkpt lat="44.42427" lon="5.70888">
        <ele>714.583</ele>
        <time>2020-02-22T11:06:27Z</time>
      </trkpt>
      <trkpt lat="44.42403" lon="5.70874">
        <ele>718.062</ele>
        <time>2020-02-22T11:06:32Z</time>
      </trkpt>
      <trkpt lat="44.42376" lon="5.70858">
        <ele>717.154</ele>
        <time>2020-02-22T11:06:38Z</time>
      </trkpt>
      <trkpt lat="44.42347" lon="5.70843">
        <ele>718.675</ele>
        <time>2020-02-22T11:06:44Z</time>
      </trkpt>
      <trkpt lat="44.42322" lon="5.70828">
        <ele>719.976</ele>
        <time>2020-02-22T11:06:50Z</time>
      </trkpt>
      <trkpt lat="44.423" lon="5.70815">
        <ele>719.176</ele>
        <time>2020-02-22T11:06:55Z</time>
      </trkpt>
      <trkpt lat="44.42274" lon="5.70798">
        <ele>720.806</ele>
        <time>2020-02-22T11:07:01Z</time>
      </trkpt>
      <trkpt lat="44.42255" lon="5.70787">
        <ele>722.679</ele>
        <time>2020-02-22T11:07:06Z</time>
      </trkpt>
      <trkpt lat="44.42233" lon="5.70776">
        <ele>723.198</ele>
        <time>2020-02-22T11:07:12Z</time>
      </trkpt>
      <trkpt lat="44.42215" lon="5.70767">
        <ele>724.769</ele>
        <time>2020-02-22T11:07:17Z</time>
      </trkpt>
      <trkpt lat="44.42194" lon="5.70752">
        <ele>724.089</ele>
        <time>2020-02-22T11:07:23Z</time>
      </trkpt>
      <trkpt lat="44.42176" lon="5.70736">
        <ele>723.344</ele>
        <time>2020-02-22T11:07:29Z</time>
      </trkpt>
      <trkpt lat="44.42162" lon="5.70718">
        <ele>724.625</ele>
        <time>2020-02-22T11:07:34Z</time>
      </trkpt>
      <trkpt lat="44.4215" lon="5.707">
        <ele>726.663</ele>
        <time>2020-02-22T11:07:39Z</time>
      </trkpt>
      <trkpt lat="44.42142" lon="5.70681">
        <ele>728.054</ele>
        <time>2020-02-22T11:07:44Z</time>
      </trkpt>
      <trkpt lat="44.42134" lon="5.70653">
        <ele>730.584</ele>
        <time>2020-02-22T11:07:50Z</time>
      </trkpt>
      <trkpt lat="44.42129" lon="5.70628">
        <ele>733.104</ele>
        <time>2020-02-22T11:07:55Z</time>
      </trkpt>
      <trkpt lat="44.42124" lon="5.70593">
        <ele>733.495</ele>
        <time>2020-02-22T11:08:01Z</time>
      </trkpt>
      <trkpt lat="44.42124" lon="5.70558">
        <ele>733.732</ele>
        <time>2020-02-22T11:08:07Z</time>
      </trkpt>
      <trkpt lat="44.42121" lon="5.7052">
        <ele>731.907</ele>
        <time>2020-02-22T11:08:13Z</time>
      </trkpt>
      <trkpt lat="44.42115" lon="5.70482">
        <ele>730.733</ele>
        <time>2020-02-22T11:08:19Z</time>
      </trkpt>
      <trkpt lat="44.42104" lon="5.70448">
        <ele>731.373</ele>
        <time>2020-02-22T11:08:24Z</time>
      </trkpt>
      <trkpt lat="44.42097" lon="5.70403">
        <ele>731.094</ele>
        <time>2020-02-22T11:08:30Z</time>
      </trkpt>
      <trkpt lat="44.42094" lon="5.70357">
        <ele>731.158</ele>
        <time>2020-02-22T11:08:36Z</time>
      </trkpt>
      <trkpt lat="44.42098" lon="5.70306">
        <ele>732.355</ele>
        <time>2020-02-22T11:08:42Z</time>
      </trkpt>
      <trkpt lat="44.42097" lon="5.70264">
        <ele>732.49</ele>
        <time>2020-02-22T11:08:47Z</time>
      </trkpt>
      <trkpt lat="44.42092" lon="5.70213">
        <ele>731.343</ele>
        <time>2020-02-22T11:08:53Z</time>
      </trkpt>
      <trkpt lat="44.42088" lon="5.7016">
        <ele>731.255</ele>
        <time>2020-02-22T11:08:59Z</time>
      </trkpt>
      <trkpt lat="44.42088" lon="5.70116">
        <ele>729.668</ele>
        <time>2020-02-22T11:09:04Z</time>
      </trkpt>
      <trkpt lat="44.42096" lon="5.70074">
        <ele>729.396</ele>
        <time>2020-02-22T11:09:09Z</time>
      </trkpt>
      <trkpt lat="44.42106" lon="5.70025">
        <ele>729.603</ele>
        <time>2020-02-22T11:09:15Z</time>
      </trkpt>
      <trkpt lat="44.42105" lon="5.69983">
        <ele>733.136</ele>
        <time>2020-02-22T11:09:20Z</time>
      </trkpt>
      <trkpt lat="44.42103" lon="5.6993">
        <ele>735.116</ele>
        <time>2020-02-22T11:09:26Z</time>
      </trkpt>
      <trkpt lat="44.42097" lon="5.69886">
        <ele>736.376</ele>
        <time>2020-02-22T11:09:31Z</time>
      </trkpt>
      <trkpt lat="44.42076" lon="5.69841">
        <ele>735.335</ele>
        <time>2020-02-22T11:09:37Z</time>
      </trkpt>
      <trkpt lat="44.42055" lon="5.69807">
        <ele>733.482</ele>
        <time>2020-02-22T11:09:42Z</time>
      </trkpt>
      <trkpt lat="44.42044" lon="5.69756">
        <ele>734.062</ele>
        <time>2020-02-22T11:09:48Z</time>
      </trkpt>
      <trkpt lat="44.42042" lon="5.69714">
        <ele>734.518</ele>
        <time>2020-02-22T11:09:53Z</time>
      </trkpt>
      <trkpt lat="44.4204" lon="5.69669">
        <ele>735.012</ele>
        <time>2020-02-22T11:09:59Z</time>
      </trkpt>
      <trkpt lat="44.42035" lon="5.69632">
        <ele>737.181</ele>
        <time>2020-02-22T11:10:04Z</time>
      </trkpt>
      <trkpt lat="44.42029" lon="5.69596">
        <ele>734.959</ele>
        <time>2020-02-22T11:10:10Z</time>
      </trkpt>
      <trkpt lat="44.42019" lon="5.69566">
        <ele>736.801</ele>
        <time>2020-02-22T11:10:15Z</time>
      </trkpt>
      <trkpt lat="44.42009" lon="5.69539">
        <ele>738.242</ele>
        <time>2020-02-22T11:10:20Z</time>
      </trkpt>
      <trkpt lat="44.41996" lon="5.69509">
        <ele>740.067</ele>
        <time>2020-02-22T11:10:26Z</time>
      </trkpt>
      <trkpt lat="44.41978" lon="5.69477">
        <ele>741.429</ele>
        <time>2020-02-22T11:10:32Z</time>
      </trkpt>
      <trkpt lat="44.41966" lon="5.69454">
        <ele>741.669</ele>
        <time>2020-02-22T11:10:37Z</time>
      </trkpt>
      <trkpt lat="44.41951" lon="5.69433">
        <ele>743.958</ele>
        <time>2020-02-22T11:10:42Z</time>
      </trkpt>
      <trkpt lat="44.41936" lon="5.69413">
        <ele>742.328</ele>
        <time>2020-02-22T11:10:47Z</time>
      </trkpt>
      <trkpt lat="44.4192" lon="5.69388">
        <ele>744.34</ele>
        <time>2020-02-22T11:10:53Z</time>
      </trkpt>
      <trkpt lat="44.41903" lon="5.69375">
        <ele>745.772</ele>
        <time>2020-02-22T11:10:59Z</time>
      </trkpt>
      <trkpt lat="44.41885" lon="5.69387">
        <ele>739.865</ele>
        <time>2020-02-22T11:11:04Z</time>
      </trkpt>
      <trkpt lat="44.41861" lon="5.69382">
        <ele>737.086</ele>
        <time>2020-02-22T11:11:10Z</time>
      </trkpt>
      <trkpt lat="44.41836" lon="5.69363">
        <ele>738.539</ele>
        <time>2020-02-22T11:11:16Z</time>
      </trkpt>
      <trkpt lat="44.41817" lon="5.69348">
        <ele>740.671</ele>
        <time>2020-02-22T11:11:21Z</time>
      </trkpt>
      <trkpt lat="44.41796" lon="5.69334">
        <ele>739.315</ele>
        <time>2020-02-22T11:11:26Z</time>
      </trkpt>
      <trkpt lat="44.41774" lon="5.6932">
        <ele>737.346</ele>
        <time>2020-02-22T11:11:31Z</time>
      </trkpt>
      <trkpt lat="44.41753" lon="5.69306">
        <ele>736.184</ele>
        <time>2020-02-22T11:11:36Z</time>
      </trkpt>
      <trkpt lat="44.41731" lon="5.69294">
        <ele>732.613</ele>
        <time>2020-02-22T11:11:42Z</time>
      </trkpt>
      <trkpt lat="44.41712" lon="5.69289">
        <ele>736.059</ele>
        <time>2020-02-22T11:11:47Z</time>
      </trkpt>
      <trkpt lat="44.41686" lon="5.69284">
        <ele>739.327</ele>
        <time>2020-02-22T11:11:53Z</time>
      </trkpt>
      <trkpt lat="44.41668" lon="5.6927">
        <ele>741.919</ele>
        <time>2020-02-22T11:11:58Z</time>
      </trkpt>
      <trkpt lat="44.41668" lon="5.69232">
        <ele>743.14</ele>
        <time>2020-02-22T11:12:04Z</time>
      </trkpt>
      <trkpt lat="44.41677" lon="5.69203">
        <ele>743.438</ele>
        <time>2020-02-22T11:12:09Z</time>
      </trkpt>
      <trkpt lat="44.41683" lon="5.69173">
        <ele>743.237</ele>
        <time>2020-02-22T11:12:14Z</time>
      </trkpt>
      <trkpt lat="44.41695" lon="5.69136">
        <ele>749.157</ele>
        <time>2020-02-22T11:12:20Z</time>
      </trkpt>
      <trkpt lat="44.41693" lon="5.69094">
        <ele>754.219</ele>
        <time>2020-02-22T11:12:26Z</time>
      </trkpt>
      <trkpt lat="44.41686" lon="5.69059">
        <ele>755.429</ele>
        <time>2020-02-22T11:12:32Z</time>
      </trkpt>
      <trkpt lat="44.41677" lon="5.69024">
        <ele>756.774</ele>
        <time>2020-02-22T11:12:38Z</time>
      </trkpt>
      <trkpt lat="44.41665" lon="5.68995">
        <ele>757.599</ele>
        <time>2020-02-22T11:12:43Z</time>
      </trkpt>
      <trkpt lat="44.41659" lon="5.68961">
        <ele>757.202</ele>
        <time>2020-02-22T11:12:48Z</time>
      </trkpt>
      <trkpt lat="44.41653" lon="5.68922">
        <ele>758.832</ele>
        <time>2020-02-22T11:12:54Z</time>
      </trkpt>
      <trkpt lat="44.41648" lon="5.6889">
        <ele>759.474</ele>
        <time>2020-02-22T11:12:59Z</time>
      </trkpt>
      <trkpt lat="44.41642" lon="5.68853">
        <ele>758.728</ele>
        <time>2020-02-22T11:13:05Z</time>
      </trkpt>
      <trkpt lat="44.41634" lon="5.68823">
        <ele>758.541</ele>
        <time>2020-02-22T11:13:10Z</time>
      </trkpt>
      <trkpt lat="44.41624" lon="5.68791">
        <ele>759.05</ele>
        <time>2020-02-22T11:13:16Z</time>
      </trkpt>
      <trkpt lat="44.41616" lon="5.68761">
        <ele>761.222</ele>
        <time>2020-02-22T11:13:21Z</time>
      </trkpt>
      <trkpt lat="44.41612" lon="5.68726">
        <ele>761.229</ele>
        <time>2020-02-22T11:13:27Z</time>
      </trkpt>
      <trkpt lat="44.41611" lon="5.6869">
        <ele>762.668</ele>
        <time>2020-02-22T11:13:33Z</time>
      </trkpt>
      <trkpt lat="44.41609" lon="5.68658">
        <ele>763.531</ele>
        <time>2020-02-22T11:13:38Z</time>
      </trkpt>
      <trkpt lat="44.41604" lon="5.68623">
        <ele>763.315</ele>
        <time>2020-02-22T11:13:44Z</time>
      </trkpt>
      <trkpt lat="44.41592" lon="5.68589">
        <ele>763.747</ele>
        <time>2020-02-22T11:13:50Z</time>
      </trkpt>
      <trkpt lat="44.41579" lon="5.68564">
        <ele>766.04</ele>
        <time>2020-02-22T11:13:55Z</time>
      </trkpt>
      <trkpt lat="44.41562" lon="5.68535">
        <ele>766.137</ele>
        <time>2020-02-22T11:14:01Z</time>
      </trkpt>
      <trkpt lat="44.4155" lon="5.6851">
        <ele>767.603</ele>
        <time>2020-02-22T11:14:06Z</time>
      </trkpt>
      <trkpt lat="44.41534" lon="5.6848">
        <ele>767.764</ele>
        <time>2020-02-22T11:14:12Z</time>
      </trkpt>
      <trkpt lat="44.41522" lon="5.68449">
        <ele>770.155</ele>
        <time>2020-02-22T11:14:18Z</time>
      </trkpt>
      <trkpt lat="44.41513" lon="5.68418">
        <ele>770.843</ele>
        <time>2020-02-22T11:14:24Z</time>
      </trkpt>
      <trkpt lat="44.41504" lon="5.68387">
        <ele>772.322</ele>
        <time>2020-02-22T11:14:29Z</time>
      </trkpt>
      <trkpt lat="44.41492" lon="5.68343">
        <ele>770.713</ele>
        <time>2020-02-22T11:14:35Z</time>
      </trkpt>
      <trkpt lat="44.41478" lon="5.68294">
        <ele>771.656</ele>
        <time>2020-02-22T11:14:41Z</time>
      </trkpt>
      <trkpt lat="44.41466" lon="5.68252">
        <ele>770.798</ele>
        <time>2020-02-22T11:14:46Z</time>
      </trkpt>
      <trkpt lat="44.41454" lon="5.68206">
        <ele>769.116</ele>
        <time>2020-02-22T11:14:51Z</time>
      </trkpt>
      <trkpt lat="44.4146" lon="5.68153">
        <ele>768.104</ele>
        <time>2020-02-22T11:14:57Z</time>
      </trkpt>
      <trkpt lat="44.41466" lon="5.68107">
        <ele>768.898</ele>
        <time>2020-02-22T11:15:03Z</time>
      </trkpt>
      <trkpt lat="44.41465" lon="5.68061">
        <ele>767.615</ele>
        <time>2020-02-22T11:15:09Z</time>
      </trkpt>
      <trkpt lat="44.41463" lon="5.68025">
        <ele>768.722</ele>
        <time>2020-02-22T11:15:14Z</time>
      </trkpt>
      <trkpt lat="44.41465" lon="5.6798">
        <ele>770.189</ele>
        <time>2020-02-22T11:15:20Z</time>
      </trkpt>
      <trkpt lat="44.41473" lon="5.67941">
        <ele>772.197</ele>
        <time>2020-02-22T11:15:25Z</time>
      </trkpt>
      <trkpt lat="44.41482" lon="5.67894">
        <ele>773.077</ele>
        <time>2020-02-22T11:15:31Z</time>
      </trkpt>
      <trkpt lat="44.41492" lon="5.67854">
        <ele>774.919</ele>
        <time>2020-02-22T11:15:36Z</time>
      </trkpt>
      <trkpt lat="44.41504" lon="5.67807">
        <ele>774.398</ele>
        <time>2020-02-22T11:15:42Z</time>
      </trkpt>
      <trkpt lat="44.41509" lon="5.67767">
        <ele>774.312</ele>
        <time>2020-02-22T11:15:47Z</time>
      </trkpt>
      <trkpt lat="44.41508" lon="5.67721">
        <ele>774.221</ele>
        <time>2020-02-22T11:15:53Z</time>
      </trkpt>
      <trkpt lat="44.41506" lon="5.67682">
        <ele>769.733</ele>
        <time>2020-02-22T11:15:58Z</time>
      </trkpt>
      <trkpt lat="44.41506" lon="5.67645">
        <ele>772.198</ele>
        <time>2020-02-22T11:16:03Z</time>
      </trkpt>
      <trkpt lat="44.41512" lon="5.67605">
        <ele>771.942</ele>
        <time>2020-02-22T11:16:09Z</time>
      </trkpt>
      <trkpt lat="44.41521" lon="5.67565">
        <ele>772.941</ele>
        <time>2020-02-22T11:16:15Z</time>
      </trkpt>
      <trkpt lat="44.41528" lon="5.6753">
        <ele>775.236</ele>
        <time>2020-02-22T11:16:20Z</time>
      </trkpt>
      <trkpt lat="44.41534" lon="5.67489">
        <ele>776.359</ele>
        <time>2020-02-22T11:16:26Z</time>
      </trkpt>
      <trkpt lat="44.41542" lon="5.67456">
        <ele>778.551</ele>
        <time>2020-02-22T11:16:31Z</time>
      </trkpt>
      <trkpt lat="44.41547" lon="5.67421">
        <ele>779.042</ele>
        <time>2020-02-22T11:16:36Z</time>
      </trkpt>
      <trkpt lat="44.41549" lon="5.67379">
        <ele>780.075</ele>
        <time>2020-02-22T11:16:42Z</time>
      </trkpt>
      <trkpt lat="44.41546" lon="5.67339">
        <ele>780.827</ele>
        <time>2020-02-22T11:16:48Z</time>
      </trkpt>
      <trkpt lat="44.41546" lon="5.67307">
        <ele>779.641</ele>
        <time>2020-02-22T11:16:53Z</time>
      </trkpt>
      <trkpt lat="44.41548" lon="5.67276">
        <ele>780.443</ele>
        <time>2020-02-22T11:16:58Z</time>
      </trkpt>
      <trkpt lat="44.41553" lon="5.67236">
        <ele>779.176</ele>
        <time>2020-02-22T11:17:04Z</time>
      </trkpt>
      <trkpt lat="44.41561" lon="5.67206">
        <ele>781.067</ele>
        <time>2020-02-22T11:17:09Z</time>
      </trkpt>
      <trkpt lat="44.41571" lon="5.67176">
        <ele>782.239</ele>
        <time>2020-02-22T11:17:14Z</time>
      </trkpt>
      <trkpt lat="44.41582" lon="5.67146">
        <ele>782.199</ele>
        <time>2020-02-22T11:17:19Z</time>
      </trkpt>
      <trkpt lat="44.41595" lon="5.67111">
        <ele>782.801</ele>
        <time>2020-02-22T11:17:25Z</time>
      </trkpt>
      <trkpt lat="44.41611" lon="5.67074">
        <ele>782.213</ele>
        <time>2020-02-22T11:17:31Z</time>
      </trkpt>
      <trkpt lat="44.41624" lon="5.6704">
        <ele>779.135</ele>
        <time>2020-02-22T11:17:36Z</time>
      </trkpt>
      <trkpt lat="44.41638" lon="5.67009">
        <ele>778.417</ele>
        <time>2020-02-22T11:17:41Z</time>
      </trkpt>
      <trkpt lat="44.41649" lon="5.66968">
        <ele>781.924</ele>
        <time>2020-02-22T11:17:47Z</time>
      </trkpt>
      <trkpt lat="44.41649" lon="5.66932">
        <ele>782.155</ele>
        <time>2020-02-22T11:17:52Z</time>
      </trkpt>
      <trkpt lat="44.41642" lon="5.66897">
        <ele>788.063</ele>
        <time>2020-02-22T11:17:57Z</time>
      </trkpt>
      <trkpt lat="44.4163" lon="5.66854">
        <ele>788.464</ele>
        <time>2020-02-22T11:18:03Z</time>
      </trkpt>
      <trkpt lat="44.41618" lon="5.66812">
        <ele>788.159</ele>
        <time>2020-02-22T11:18:09Z</time>
      </trkpt>
      <trkpt lat="44.41605" lon="5.6677">
        <ele>788.094</ele>
        <time>2020-02-22T11:18:15Z</time>
      </trkpt>
      <trkpt lat="44.41596" lon="5.66722">
        <ele>787.663</ele>
        <time>2020-02-22T11:18:21Z</time>
      </trkpt>
      <trkpt lat="44.41598" lon="5.66677">
        <ele>788.065</ele>
        <time>2020-02-22T11:18:27Z</time>
      </trkpt>
      <trkpt lat="44.41599" lon="5.66672">
        <ele>787.163</ele>
        <time>2020-02-22T11:18:32Z</time>
      </trkpt>
      <trkpt lat="44.41598" lon="5.66672">
        <ele>785.8</ele>
        <time>2020-02-22T11:18:37Z</time>
      </trkpt>
      <trkpt lat="44.41598" lon="5.66673">
        <ele>786.706</ele>
        <time>2020-02-22T11:18:43Z</time>
      </trkpt>
      <trkpt lat="44.41598" lon="5.66673">
        <ele>786.713</ele>
        <time>2020-02-22T11:18:48Z</time>
      </trkpt>
      <trkpt lat="44.41598" lon="5.66673">
        <ele>786.699</ele>
        <time>2020-02-22T11:18:54Z</time>
      </trkpt>
      <trkpt lat="44.41598" lon="5.66673">
        <ele>786.733</ele>
        <time>2020-02-22T11:18:59Z</time>
      </trkpt>
      <trkpt lat="44.41598" lon="5.66673">
        <ele>786.726</ele>
        <time>2020-02-22T11:19:05Z</time>
      </trkpt>
      <trkpt lat="44.41598" lon="5.66673">
        <ele>786.715</ele>
        <time>2020-02-22T11:19:11Z</time>
      </trkpt>
      <trkpt lat="44.41598" lon="5.66673">
        <ele>786.695</ele>
        <time>2020-02-22T11:19:16Z</time>
      </trkpt>
      <trkpt lat="44.41598" lon="5.66673">
        <ele>786.701</ele>
        <time>2020-02-22T11:19:22Z</time>
      </trkpt>
      <trkpt lat="44.41598" lon="5.66673">
        <ele>786.701</ele>
        <time>2020-02-22T11:19:28Z</time>
      </trkpt>
      <trkpt lat="44.41598" lon="5.66673">
        <ele>786.687</ele>
        <time>2020-02-22T11:19:34Z</time>
      </trkpt>
      <trkpt lat="44.41598" lon="5.66673">
        <ele>786.71</ele>
        <time>2020-02-22T11:19:39Z</time>
      </trkpt>
      <trkpt lat="44.41598" lon="5.66673">
        <ele>786.742</ele>
        <time>2020-02-22T11:19:45Z</time>
      </trkpt>
      <trkpt lat="44.41598" lon="5.66673">
        <ele>786.742</ele>
        <time>2020-02-22T11:19:51Z</time>
      </trkpt>
      <trkpt lat="44.41598" lon="5.66672">
        <ele>786.713</ele>
        <time>2020-02-22T11:19:56Z</time>
      </trkpt>
      <trkpt lat="44.41598" lon="5.66672">
        <ele>786.735</ele>
        <time>2020-02-22T11:20:01Z</time>
      </trkpt>
      <trkpt lat="44.41598" lon="5.66672">
        <ele>786.801</ele>
        <time>2020-02-22T11:20:06Z</time>
      </trkpt>
      <trkpt lat="44.41598" lon="5.66672">
        <ele>786.832</ele>
        <time>2020-02-22T11:20:11Z</time>
      </trkpt>
      <trkpt lat="44.41598" lon="5.66672">
        <ele>786.846</ele>
        <time>2020-02-22T11:20:17Z</time>
      </trkpt>
      <trkpt lat="44.41598" lon="5.66672">
        <ele>786.85</ele>
        <time>2020-02-22T11:20:23Z</time>
      </trkpt>
      <trkpt lat="44.41598" lon="5.66672">
        <ele>786.863</ele>
        <time>2020-02-22T11:20:28Z</time>
      </trkpt>
      <trkpt lat="44.41598" lon="5.66672">
        <ele>786.872</ele>
        <time>2020-02-22T11:20:33Z</time>
      </trkpt>
      <trkpt lat="44.41598" lon="5.66672">
        <ele>786.861</ele>
        <time>2020-02-22T11:20:39Z</time>
      </trkpt>
      <trkpt lat="44.41598" lon="5.66672">
        <ele>786.847</ele>
        <time>2020-02-22T11:20:44Z</time>
      </trkpt>
      <trkpt lat="44.41598" lon="5.66672">
        <ele>786.854</ele>
        <time>2020-02-22T11:20:50Z</time>
      </trkpt>
      <trkpt lat="44.41598" lon="5.66672">
        <ele>786.852</ele>
        <time>2020-02-22T11:20:55Z</time>
      </trkpt>
      <trkpt lat="44.41598" lon="5.66672">
        <ele>786.85</ele>
        <time>2020-02-22T11:21:01Z</time>
      </trkpt>
      <trkpt lat="44.41598" lon="5.66672">
        <ele>786.861</ele>
        <time>2020-02-22T11:21:07Z</time>
      </trkpt>
      <trkpt lat="44.41598" lon="5.66672">
        <ele>786.855</ele>
        <time>2020-02-22T11:21:12Z</time>
      </trkpt>
      <trkpt lat="44.41599" lon="5.66673">
        <ele>787.391</ele>
        <time>2020-02-22T11:21:17Z</time>
      </trkpt>
      <trkpt lat="44.41599" lon="5.66668">
        <ele>789.875</ele>
        <time>2020-02-22T11:21:23Z</time>
      </trkpt>
      <trkpt lat="44.41599" lon="5.66649">
        <ele>790.021</ele>
        <time>2020-02-22T11:21:29Z</time>
      </trkpt>
      <trkpt lat="44.41601" lon="5.66621">
        <ele>790.663</ele>
        <time>2020-02-22T11:21:35Z</time>
      </trkpt>
      <trkpt lat="44.41601" lon="5.666">
        <ele>791.099</ele>
        <time>2020-02-22T11:21:40Z</time>
      </trkpt>
      <trkpt lat="44.41599" lon="5.66566">
        <ele>790.305</ele>
        <time>2020-02-22T11:21:46Z</time>
      </trkpt>
      <trkpt lat="44.41596" lon="5.66525">
        <ele>789.706</ele>
        <time>2020-02-22T11:21:52Z</time>
      </trkpt>
      <trkpt lat="44.41598" lon="5.66489">
        <ele>791.299</ele>
        <time>2020-02-22T11:21:57Z</time>
      </trkpt>
      <trkpt lat="44.41604" lon="5.66447">
        <ele>792.719</ele>
        <time>2020-02-22T11:22:03Z</time>
      </trkpt>
      <trkpt lat="44.41618" lon="5.6641">
        <ele>793.854</ele>
        <time>2020-02-22T11:22:09Z</time>
      </trkpt>
      <trkpt lat="44.41634" lon="5.66383">
        <ele>794.905</ele>
        <time>2020-02-22T11:22:14Z</time>
      </trkpt>
      <trkpt lat="44.41653" lon="5.66358">
        <ele>795.663</ele>
        <time>2020-02-22T11:22:19Z</time>
      </trkpt>
      <trkpt lat="44.41673" lon="5.66328">
        <ele>794.542</ele>
        <time>2020-02-22T11:22:25Z</time>
      </trkpt>
      <trkpt lat="44.41687" lon="5.66304">
        <ele>795.816</ele>
        <time>2020-02-22T11:22:30Z</time>
      </trkpt>
      <trkpt lat="44.41697" lon="5.66268">
        <ele>798.057</ele>
        <time>2020-02-22T11:22:36Z</time>
      </trkpt>
      <trkpt lat="44.41704" lon="5.66236">
        <ele>798.322</ele>
        <time>2020-02-22T11:22:41Z</time>
      </trkpt>
      <trkpt lat="44.41706" lon="5.66195">
        <ele>796.772</ele>
        <time>2020-02-22T11:22:47Z</time>
      </trkpt>
      <trkpt lat="44.41698" lon="5.66161">
        <ele>796.214</ele>
        <time>2020-02-22T11:22:52Z</time>
      </trkpt>
      <trkpt lat="44.41682" lon="5.66128">
        <ele>797.109</ele>
        <time>2020-02-22T11:22:58Z</time>
      </trkpt>
      <trkpt lat="44.41661" lon="5.66107">
        <ele>797.288</ele>
        <time>2020-02-22T11:23:03Z</time>
      </trkpt>
      <trkpt lat="44.41637" lon="5.66081">
        <ele>797.422</ele>
        <time>2020-02-22T11:23:09Z</time>
      </trkpt>
      <trkpt lat="44.41621" lon="5.66045">
        <ele>798.773</ele>
        <time>2020-02-22T11:23:15Z</time>
      </trkpt>
      <trkpt lat="44.41617" lon="5.66009">
        <ele>799.276</ele>
        <time>2020-02-22T11:23:20Z</time>
      </trkpt>
      <trkpt lat="44.41626" lon="5.65969">
        <ele>799.952</ele>
        <time>2020-02-22T11:23:26Z</time>
      </trkpt>
      <trkpt lat="44.41642" lon="5.65931">
        <ele>801.631</ele>
        <time>2020-02-22T11:23:32Z</time>
      </trkpt>
      <trkpt lat="44.41655" lon="5.65894">
        <ele>802.282</ele>
        <time>2020-02-22T11:23:38Z</time>
      </trkpt>
      <trkpt lat="44.41668" lon="5.65856">
        <ele>803.98</ele>
        <time>2020-02-22T11:23:44Z</time>
      </trkpt>
      <trkpt lat="44.41682" lon="5.65825">
        <ele>803.726</ele>
        <time>2020-02-22T11:23:49Z</time>
      </trkpt>
      <trkpt lat="44.41697" lon="5.65795">
        <ele>804.531</ele>
        <time>2020-02-22T11:23:54Z</time>
      </trkpt>
      <trkpt lat="44.41708" lon="5.65756">
        <ele>805.095</ele>
        <time>2020-02-22T11:24:00Z</time>
      </trkpt>
      <trkpt lat="44.41714" lon="5.65712">
        <ele>808.409</ele>
        <time>2020-02-22T11:24:06Z</time>
      </trkpt>
      <trkpt lat="44.41713" lon="5.65674">
        <ele>807.692</ele>
        <time>2020-02-22T11:24:11Z</time>
      </trkpt>
      <trkpt lat="44.41712" lon="5.65636">
        <ele>807.507</ele>
        <time>2020-02-22T11:24:16Z</time>
      </trkpt>
      <trkpt lat="44.41711" lon="5.65585">
        <ele>808.017</ele>
        <time>2020-02-22T11:24:22Z</time>
      </trkpt>
      <trkpt lat="44.41716" lon="5.65547">
        <ele>808.051</ele>
        <time>2020-02-22T11:24:27Z</time>
      </trkpt>
      <trkpt lat="44.4173" lon="5.65501">
        <ele>808.554</ele>
        <time>2020-02-22T11:24:33Z</time>
      </trkpt>
      <trkpt lat="44.41743" lon="5.65465">
        <ele>809.289</ele>
        <time>2020-02-22T11:24:38Z</time>
      </trkpt>
      <trkpt lat="44.41753" lon="5.65422">
        <ele>808.973</ele>
        <time>2020-02-22T11:24:44Z</time>
      </trkpt>
      <trkpt lat="44.41756" lon="5.65384">
        <ele>809.865</ele>
        <time>2020-02-22T11:24:49Z</time>
      </trkpt>
      <trkpt lat="44.41752" lon="5.65336">
        <ele>809.986</ele>
        <time>2020-02-22T11:24:55Z</time>
      </trkpt>
      <trkpt lat="44.4174" lon="5.65294">
        <ele>809.92</ele>
        <time>2020-02-22T11:25:01Z</time>
      </trkpt>
      <trkpt lat="44.41721" lon="5.6527">
        <ele>810.642</ele>
        <time>2020-02-22T11:25:06Z</time>
      </trkpt>
      <trkpt lat="44.41692" lon="5.65258">
        <ele>811.787</ele>
        <time>2020-02-22T11:25:12Z</time>
      </trkpt>
      <trkpt lat="44.41667" lon="5.6526">
        <ele>810.435</ele>
        <time>2020-02-22T11:25:17Z</time>
      </trkpt>
      <trkpt lat="44.41635" lon="5.6526">
        <ele>809.682</ele>
        <time>2020-02-22T11:25:23Z</time>
      </trkpt>
      <trkpt lat="44.4161" lon="5.65245">
        <ele>809.12</ele>
        <time>2020-02-22T11:25:28Z</time>
      </trkpt>
      <trkpt lat="44.41587" lon="5.65214">
        <ele>809.778</ele>
        <time>2020-02-22T11:25:34Z</time>
      </trkpt>
      <trkpt lat="44.41579" lon="5.6518">
        <ele>809.244</ele>
        <time>2020-02-22T11:25:39Z</time>
      </trkpt>
      <trkpt lat="44.4158" lon="5.65136">
        <ele>811.174</ele>
        <time>2020-02-22T11:25:45Z</time>
      </trkpt>
      <trkpt lat="44.41582" lon="5.65097">
        <ele>812.209</ele>
        <time>2020-02-22T11:25:50Z</time>
      </trkpt>
      <trkpt lat="44.41583" lon="5.6505">
        <ele>814.706</ele>
        <time>2020-02-22T11:25:56Z</time>
      </trkpt>
      <trkpt lat="44.41588" lon="5.65014">
        <ele>815.071</ele>
        <time>2020-02-22T11:26:01Z</time>
      </trkpt>
      <trkpt lat="44.41596" lon="5.64969">
        <ele>815.692</ele>
        <time>2020-02-22T11:26:07Z</time>
      </trkpt>
      <trkpt lat="44.41608" lon="5.64935">
        <ele>816.318</ele>
        <time>2020-02-22T11:26:12Z</time>
      </trkpt>
      <trkpt lat="44.41622" lon="5.64897">
        <ele>816.675</ele>
        <time>2020-02-22T11:26:18Z</time>
      </trkpt>
      <trkpt lat="44.41636" lon="5.64868">
        <ele>818.527</ele>
        <time>2020-02-22T11:26:23Z</time>
      </trkpt>
      <trkpt lat="44.41654" lon="5.64834">
        <ele>818.371</ele>
        <time>2020-02-22T11:26:29Z</time>
      </trkpt>
      <trkpt lat="44.41665" lon="5.64803">
        <ele>818.198</ele>
        <time>2020-02-22T11:26:34Z</time>
      </trkpt>
      <trkpt lat="44.41679" lon="5.64765">
        <ele>818.402</ele>
        <time>2020-02-22T11:26:40Z</time>
      </trkpt>
      <trkpt lat="44.41691" lon="5.64736">
        <ele>819.69</ele>
        <time>2020-02-22T11:26:45Z</time>
      </trkpt>
      <trkpt lat="44.41707" lon="5.64698">
        <ele>823.108</ele>
        <time>2020-02-22T11:26:51Z</time>
      </trkpt>
      <trkpt lat="44.41723" lon="5.64669">
        <ele>823.318</ele>
        <time>2020-02-22T11:26:56Z</time>
      </trkpt>
      <trkpt lat="44.41745" lon="5.64635">
        <ele>823.304</ele>
        <time>2020-02-22T11:27:02Z</time>
      </trkpt>
      <trkpt lat="44.41765" lon="5.64611">
        <ele>823.723</ele>
        <time>2020-02-22T11:27:07Z</time>
      </trkpt>
      <trkpt lat="44.41786" lon="5.64578">
        <ele>826.376</ele>
        <time>2020-02-22T11:27:13Z</time>
      </trkpt>
      <trkpt lat="44.41803" lon="5.6455">
        <ele>826.365</ele>
        <time>2020-02-22T11:27:18Z</time>
      </trkpt>
      <trkpt lat="44.41823" lon="5.64514">
        <ele>827.02</ele>
        <time>2020-02-22T11:27:24Z</time>
      </trkpt>
      <trkpt lat="44.41843" lon="5.64486">
        <ele>825.861</ele>
        <time>2020-02-22T11:27:29Z</time>
      </trkpt>
      <trkpt lat="44.41863" lon="5.64452">
        <ele>825.94</ele>
        <time>2020-02-22T11:27:35Z</time>
      </trkpt>
      <trkpt lat="44.4188" lon="5.64425">
        <ele>825.766</ele>
        <time>2020-02-22T11:27:40Z</time>
      </trkpt>
      <trkpt lat="44.419" lon="5.64391">
        <ele>827.807</ele>
        <time>2020-02-22T11:27:46Z</time>
      </trkpt>
      <trkpt lat="44.41917" lon="5.64356">
        <ele>826.919</ele>
        <time>2020-02-22T11:27:52Z</time>
      </trkpt>
      <trkpt lat="44.41926" lon="5.6432">
        <ele>826.461</ele>
        <time>2020-02-22T11:27:58Z</time>
      </trkpt>
      <trkpt lat="44.41931" lon="5.64282">
        <ele>828.074</ele>
        <time>2020-02-22T11:28:04Z</time>
      </trkpt>
      <trkpt lat="44.41927" lon="5.64248">
        <ele>830.924</ele>
        <time>2020-02-22T11:28:10Z</time>
      </trkpt>
      <trkpt lat="44.41922" lon="5.64222">
        <ele>832.57</ele>
        <time>2020-02-22T11:28:15Z</time>
      </trkpt>
      <trkpt lat="44.41915" lon="5.64194">
        <ele>832.005</ele>
        <time>2020-02-22T11:28:21Z</time>
      </trkpt>
      <trkpt lat="44.41911" lon="5.64166">
        <ele>832.915</ele>
        <time>2020-02-22T11:28:27Z</time>
      </trkpt>
      <trkpt lat="44.4191" lon="5.64144">
        <ele>833.897</ele>
        <time>2020-02-22T11:28:32Z</time>
      </trkpt>
      <trkpt lat="44.41913" lon="5.64122">
        <ele>834.918</ele>
        <time>2020-02-22T11:28:37Z</time>
      </trkpt>
      <trkpt lat="44.41918" lon="5.641">
        <ele>834.512</ele>
        <time>2020-02-22T11:28:42Z</time>
      </trkpt>
      <trkpt lat="44.41927" lon="5.64073">
        <ele>836.228</ele>
        <time>2020-02-22T11:28:48Z</time>
      </trkpt>
      <trkpt lat="44.41936" lon="5.64046">
        <ele>837.349</ele>
        <time>2020-02-22T11:28:54Z</time>
      </trkpt>
      <trkpt lat="44.41944" lon="5.64022">
        <ele>839.867</ele>
        <time>2020-02-22T11:28:59Z</time>
      </trkpt>
      <trkpt lat="44.4195" lon="5.63989">
        <ele>843.085</ele>
        <time>2020-02-22T11:29:05Z</time>
      </trkpt>
      <trkpt lat="44.41952" lon="5.6396">
        <ele>843.961</ele>
        <time>2020-02-22T11:29:10Z</time>
      </trkpt>
      <trkpt lat="44.41952" lon="5.63933">
        <ele>842.898</ele>
        <time>2020-02-22T11:29:15Z</time>
      </trkpt>
      <trkpt lat="44.41944" lon="5.63897">
        <ele>844.62</ele>
        <time>2020-02-22T11:29:21Z</time>
      </trkpt>
      <trkpt lat="44.41934" lon="5.63867">
        <ele>844.308</ele>
        <time>2020-02-22T11:29:26Z</time>
      </trkpt>
      <trkpt lat="44.41921" lon="5.6383">
        <ele>843.929</ele>
        <time>2020-02-22T11:29:32Z</time>
      </trkpt>
      <trkpt lat="44.41908" lon="5.63791">
        <ele>844.081</ele>
        <time>2020-02-22T11:29:38Z</time>
      </trkpt>
      <trkpt lat="44.41896" lon="5.6375">
        <ele>844.151</ele>
        <time>2020-02-22T11:29:44Z</time>
      </trkpt>
      <trkpt lat="44.41888" lon="5.63716">
        <ele>843.985</ele>
        <time>2020-02-22T11:29:49Z</time>
      </trkpt>
      <trkpt lat="44.41882" lon="5.63678">
        <ele>844.589</ele>
        <time>2020-02-22T11:29:54Z</time>
      </trkpt>
      <trkpt lat="44.41872" lon="5.63631">
        <ele>842.845</ele>
        <time>2020-02-22T11:30:00Z</time>
      </trkpt>
      <trkpt lat="44.41863" lon="5.63586">
        <ele>843.36</ele>
        <time>2020-02-22T11:30:06Z</time>
      </trkpt>
      <trkpt lat="44.41852" lon="5.63543">
        <ele>842.8</ele>
        <time>2020-02-22T11:30:12Z</time>
      </trkpt>
      <trkpt lat="44.41838" lon="5.63499">
        <ele>844.501</ele>
        <time>2020-02-22T11:30:18Z</time>
      </trkpt>
      <trkpt lat="44.41827" lon="5.6346">
        <ele>846.073</ele>
        <time>2020-02-22T11:30:23Z</time>
      </trkpt>
      <trkpt lat="44.41816" lon="5.63408">
        <ele>846.793</ele>
        <time>2020-02-22T11:30:29Z</time>
      </trkpt>
      <trkpt lat="44.4181" lon="5.63365">
        <ele>846.822</ele>
        <time>2020-02-22T11:30:34Z</time>
      </trkpt>
      <trkpt lat="44.41804" lon="5.63314">
        <ele>845.561</ele>
        <time>2020-02-22T11:30:40Z</time>
      </trkpt>
      <trkpt lat="44.41805" lon="5.6327">
        <ele>844.38</ele>
        <time>2020-02-22T11:30:45Z</time>
      </trkpt>
      <trkpt lat="44.41808" lon="5.63218">
        <ele>843.143</ele>
        <time>2020-02-22T11:30:51Z</time>
      </trkpt>
      <trkpt lat="44.41811" lon="5.63166">
        <ele>843.287</ele>
        <time>2020-02-22T11:30:57Z</time>
      </trkpt>
      <trkpt lat="44.41814" lon="5.63122">
        <ele>844.869</ele>
        <time>2020-02-22T11:31:02Z</time>
      </trkpt>
      <trkpt lat="44.41818" lon="5.63075">
        <ele>844.281</ele>
        <time>2020-02-22T11:31:08Z</time>
      </trkpt>
      <trkpt lat="44.41818" lon="5.63034">
        <ele>844.979</ele>
        <time>2020-02-22T11:31:13Z</time>
      </trkpt>
      <trkpt lat="44.41816" lon="5.62988">
        <ele>847.003</ele>
        <time>2020-02-22T11:31:19Z</time>
      </trkpt>
      <trkpt lat="44.41813" lon="5.62949">
        <ele>847.318</ele>
        <time>2020-02-22T11:31:24Z</time>
      </trkpt>
      <trkpt lat="44.41806" lon="5.62902">
        <ele>849.65</ele>
        <time>2020-02-22T11:31:30Z</time>
      </trkpt>
      <trkpt lat="44.41801" lon="5.62867">
        <ele>849.448</ele>
        <time>2020-02-22T11:31:35Z</time>
      </trkpt>
      <trkpt lat="44.41793" lon="5.62824">
        <ele>849.598</ele>
        <time>2020-02-22T11:31:41Z</time>
      </trkpt>
      <trkpt lat="44.41786" lon="5.6279">
        <ele>851.232</ele>
        <time>2020-02-22T11:31:46Z</time>
      </trkpt>
      <trkpt lat="44.41779" lon="5.62756">
        <ele>852.132</ele>
        <time>2020-02-22T11:31:51Z</time>
      </trkpt>
      <trkpt lat="44.41774" lon="5.62723">
        <ele>852.783</ele>
        <time>2020-02-22T11:31:56Z</time>
      </trkpt>
      <trkpt lat="44.41765" lon="5.62683">
        <ele>853.783</ele>
        <time>2020-02-22T11:32:02Z</time>
      </trkpt>
      <trkpt lat="44.41759" lon="5.62641">
        <ele>855.147</ele>
        <time>2020-02-22T11:32:08Z</time>
      </trkpt>
      <trkpt lat="44.41758" lon="5.62602">
        <ele>855.327</ele>
        <time>2020-02-22T11:32:13Z</time>
      </trkpt>
      <trkpt lat="44.41753" lon="5.62551">
        <ele>855.17</ele>
        <time>2020-02-22T11:32:19Z</time>
      </trkpt>
      <trkpt lat="44.41748" lon="5.62507">
        <ele>855.402</ele>
        <time>2020-02-22T11:32:24Z</time>
      </trkpt>
      <trkpt lat="44.41742" lon="5.6245">
        <ele>855.843</ele>
        <time>2020-02-22T11:32:30Z</time>
      </trkpt>
      <trkpt lat="44.41731" lon="5.62396">
        <ele>855.122</ele>
        <time>2020-02-22T11:32:36Z</time>
      </trkpt>
      <trkpt lat="44.41709" lon="5.62345">
        <ele>855.089</ele>
        <time>2020-02-22T11:32:42Z</time>
      </trkpt>
      <trkpt lat="44.41691" lon="5.62306">
        <ele>853.779</ele>
        <time>2020-02-22T11:32:47Z</time>
      </trkpt>
      <trkpt lat="44.41672" lon="5.6226">
        <ele>854.931</ele>
        <time>2020-02-22T11:32:53Z</time>
      </trkpt>
      <trkpt lat="44.41653" lon="5.62215">
        <ele>854.615</ele>
        <time>2020-02-22T11:32:59Z</time>
      </trkpt>
      <trkpt lat="44.4164" lon="5.62166">
        <ele>856.068</ele>
        <time>2020-02-22T11:33:05Z</time>
      </trkpt>
      <trkpt lat="44.41637" lon="5.62123">
        <ele>856.656</ele>
        <time>2020-02-22T11:33:10Z</time>
      </trkpt>
      <trkpt lat="44.41635" lon="5.62071">
        <ele>857.238</ele>
        <time>2020-02-22T11:33:16Z</time>
      </trkpt>
      <trkpt lat="44.41638" lon="5.6203">
        <ele>858.518</ele>
        <time>2020-02-22T11:33:21Z</time>
      </trkpt>
      <trkpt lat="44.41646" lon="5.61983">
        <ele>860.903</ele>
        <time>2020-02-22T11:33:27Z</time>
      </trkpt>
      <trkpt lat="44.4165" lon="5.61947">
        <ele>861.448</ele>
        <time>2020-02-22T11:33:32Z</time>
      </trkpt>
      <trkpt lat="44.41648" lon="5.61901">
        <ele>861.268</ele>
        <time>2020-02-22T11:33:38Z</time>
      </trkpt>
      <trkpt lat="44.41643" lon="5.61863">
        <ele>862.408</ele>
        <time>2020-02-22T11:33:43Z</time>
      </trkpt>
      <trkpt lat="44.41637" lon="5.6182">
        <ele>861.321</ele>
        <time>2020-02-22T11:33:49Z</time>
      </trkpt>
      <trkpt lat="44.41633" lon="5.61781">
        <ele>861.68</ele>
        <time>2020-02-22T11:33:54Z</time>
      </trkpt>
      <trkpt lat="44.41624" lon="5.61735">
        <ele>862.021</ele>
        <time>2020-02-22T11:34:00Z</time>
      </trkpt>
      <trkpt lat="44.41618" lon="5.617">
        <ele>863.8</ele>
        <time>2020-02-22T11:34:05Z</time>
      </trkpt>
      <trkpt lat="44.41611" lon="5.61656">
        <ele>867.013</ele>
        <time>2020-02-22T11:34:11Z</time>
      </trkpt>
      <trkpt lat="44.41606" lon="5.6162">
        <ele>866.319</ele>
        <time>2020-02-22T11:34:16Z</time>
      </trkpt>
      <trkpt lat="44.41598" lon="5.61574">
        <ele>866.203</ele>
        <time>2020-02-22T11:34:22Z</time>
      </trkpt>
      <trkpt lat="44.41593" lon="5.61536">
        <ele>868.96</ele>
        <time>2020-02-22T11:34:27Z</time>
      </trkpt>
      <trkpt lat="44.41586" lon="5.61491">
        <ele>867.92</ele>
        <time>2020-02-22T11:34:33Z</time>
      </trkpt>
      <trkpt lat="44.4158" lon="5.61457">
        <ele>867.119</ele>
        <time>2020-02-22T11:34:38Z</time>
      </trkpt>
      <trkpt lat="44.41573" lon="5.61414">
        <ele>867.389</ele>
        <time>2020-02-22T11:34:44Z</time>
      </trkpt>
      <trkpt lat="44.41567" lon="5.6137">
        <ele>865.712</ele>
        <time>2020-02-22T11:34:50Z</time>
      </trkpt>
      <trkpt lat="44.41562" lon="5.61334">
        <ele>867.348</ele>
        <time>2020-02-22T11:34:55Z</time>
      </trkpt>
      <trkpt lat="44.41556" lon="5.6129">
        <ele>869.423</ele>
        <time>2020-02-22T11:35:01Z</time>
      </trkpt>
      <trkpt lat="44.41556" lon="5.61257">
        <ele>870.488</ele>
        <time>2020-02-22T11:35:06Z</time>
      </trkpt>
      <trkpt lat="44.41559" lon="5.61217">
        <ele>872.63</ele>
        <time>2020-02-22T11:35:12Z</time>
      </trkpt>
      <trkpt lat="44.41562" lon="5.61179">
        <ele>872.001</ele>
        <time>2020-02-22T11:35:18Z</time>
      </trkpt>
      <trkpt lat="44.41566" lon="5.61145">
        <ele>874.486</ele>
        <time>2020-02-22T11:35:24Z</time>
      </trkpt>
      <trkpt lat="44.41566" lon="5.61144">
        <ele>874.85</ele>
        <time>2020-02-22T11:35:29Z</time>
      </trkpt>
      <trkpt lat="44.41566" lon="5.61144">
        <ele>874.121</ele>
        <time>2020-02-22T11:35:35Z</time>
      </trkpt>
      <trkpt lat="44.41566" lon="5.61145">
        <ele>873.731</ele>
        <time>2020-02-22T11:35:41Z</time>
      </trkpt>
      <trkpt lat="44.41566" lon="5.61145">
        <ele>873.977</ele>
        <time>2020-02-22T11:35:47Z</time>
      </trkpt>
      <trkpt lat="44.41566" lon="5.61145">
        <ele>873.964</ele>
        <time>2020-02-22T11:35:53Z</time>
      </trkpt>
      <trkpt lat="44.41566" lon="5.61145">
        <ele>873.983</ele>
        <time>2020-02-22T11:35:58Z</time>
      </trkpt>
      <trkpt lat="44.41566" lon="5.61145">
        <ele>873.982</ele>
        <time>2020-02-22T11:36:04Z</time>
      </trkpt>
      <trkpt lat="44.41566" lon="5.61145">
        <ele>873.997</ele>
        <time>2020-02-22T11:36:09Z</time>
      </trkpt>
      <trkpt lat="44.41566" lon="5.61145">
        <ele>874.019</ele>
        <time>2020-02-22T11:36:15Z</time>
      </trkpt>
      <trkpt lat="44.41566" lon="5.61145">
        <ele>874.025</ele>
        <time>2020-02-22T11:36:20Z</time>
      </trkpt>
      <trkpt lat="44.41566" lon="5.61145">
        <ele>874.011</ele>
        <time>2020-02-22T11:36:25Z</time>
      </trkpt>
      <trkpt lat="44.41566" lon="5.61145">
        <ele>874.004</ele>
        <time>2020-02-22T11:36:31Z</time>
      </trkpt>
      <trkpt lat="44.41566" lon="5.61145">
        <ele>874.014</ele>
        <time>2020-02-22T11:36:37Z</time>
      </trkpt>
      <trkpt lat="44.41567" lon="5.61142">
        <ele>874.029</ele>
        <time>2020-02-22T11:36:43Z</time>
      </trkpt>
      <trkpt lat="44.41568" lon="5.61129">
        <ele>874.678</ele>
        <time>2020-02-22T11:36:48Z</time>
      </trkpt>
      <trkpt lat="44.4157" lon="5.61114">
        <ele>874.947</ele>
        <time>2020-02-22T11:36:54Z</time>
      </trkpt>
      <trkpt lat="44.41572" lon="5.61097">
        <ele>875.938</ele>
        <time>2020-02-22T11:37:00Z</time>
      </trkpt>
      <trkpt lat="44.41573" lon="5.61089">
        <ele>877.191</ele>
        <time>2020-02-22T11:37:06Z</time>
      </trkpt>
      <trkpt lat="44.41573" lon="5.61089">
        <ele>878.001</ele>
        <time>2020-02-22T11:37:12Z</time>
      </trkpt>
      <trkpt lat="44.41573" lon="5.61087">
        <ele>879.191</ele>
        <time>2020-02-22T11:37:17Z</time>
      </trkpt>
      <trkpt lat="44.41573" lon="5.61075">
        <ele>879.694</ele>
        <time>2020-02-22T11:37:22Z</time>
      </trkpt>
      <trkpt lat="44.41577" lon="5.61049">
        <ele>881.252</ele>
        <time>2020-02-22T11:37:28Z</time>
      </trkpt>
      <trkpt lat="44.41578" lon="5.61023">
        <ele>880.753</ele>
        <time>2020-02-22T11:37:33Z</time>
      </trkpt>
      <trkpt lat="44.41579" lon="5.60998">
        <ele>880.232</ele>
        <time>2020-02-22T11:37:38Z</time>
      </trkpt>
      <trkpt lat="44.41579" lon="5.60967">
        <ele>880.374</ele>
        <time>2020-02-22T11:37:44Z</time>
      </trkpt>
      <trkpt lat="44.41579" lon="5.60937">
        <ele>881.404</ele>
        <time>2020-02-22T11:37:50Z</time>
      </trkpt>
      <trkpt lat="44.41579" lon="5.60912">
        <ele>881.923</ele>
        <time>2020-02-22T11:37:55Z</time>
      </trkpt>
      <trkpt lat="44.41579" lon="5.60887">
        <ele>882.252</ele>
        <time>2020-02-22T11:38:00Z</time>
      </trkpt>
      <trkpt lat="44.41581" lon="5.60856">
        <ele>884.284</ele>
        <time>2020-02-22T11:38:06Z</time>
      </trkpt>
      <trkpt lat="44.41582" lon="5.60829">
        <ele>884.917</ele>
        <time>2020-02-22T11:38:11Z</time>
      </trkpt>
      <trkpt lat="44.41581" lon="5.60794">
        <ele>884.88</ele>
        <time>2020-02-22T11:38:17Z</time>
      </trkpt>
      <trkpt lat="44.41582" lon="5.60766">
        <ele>886.479</ele>
        <time>2020-02-22T11:38:22Z</time>
      </trkpt>
      <trkpt lat="44.41583" lon="5.60732">
        <ele>888.083</ele>
        <time>2020-02-22T11:38:28Z</time>
      </trkpt>
      <trkpt lat="44.41583" lon="5.60703">
        <ele>888.224</ele>
        <time>2020-02-22T11:38:33Z</time>
      </trkpt>
      <trkpt lat="44.41584" lon="5.6067">
        <ele>889.135</ele>
        <time>2020-02-22T11:38:39Z</time>
      </trkpt>
      <trkpt lat="44.41585" lon="5.60641">
        <ele>889.482</ele>
        <time>2020-02-22T11:38:44Z</time>
      </trkpt>
      <trkpt lat="44.41587" lon="5.60605">
        <ele>888.095</ele>
        <time>2020-02-22T11:38:50Z</time>
      </trkpt>
      <trkpt lat="44.41591" lon="5.60574">
        <ele>888.031</ele>
        <time>2020-02-22T11:38:55Z</time>
      </trkpt>
      <trkpt lat="44.41595" lon="5.60538">
        <ele>889.109</ele>
        <time>2020-02-22T11:39:01Z</time>
      </trkpt>
      <trkpt lat="44.41601" lon="5.60501">
        <ele>890.123</ele>
        <time>2020-02-22T11:39:07Z</time>
      </trkpt>
      <trkpt lat="44.41606" lon="5.6047">
        <ele>889.788</ele>
        <time>2020-02-22T11:39:12Z</time>
      </trkpt>
      <trkpt lat="44.41613" lon="5.60436">
        <ele>891.75</ele>
        <time>2020-02-22T11:39:18Z</time>
      </trkpt>
      <trkpt lat="44.41619" lon="5.604">
        <ele>892.533</ele>
        <time>2020-02-22T11:39:24Z</time>
      </trkpt>
      <trkpt lat="44.41625" lon="5.60365">
        <ele>892.341</ele>
        <time>2020-02-22T11:39:30Z</time>
      </trkpt>
      <trkpt lat="44.4163" lon="5.60336">
        <ele>892</ele>
        <time>2020-02-22T11:39:35Z</time>
      </trkpt>
      <trkpt lat="44.41636" lon="5.60297">
        <ele>892.369</ele>
        <time>2020-02-22T11:39:41Z</time>
      </trkpt>
      <trkpt lat="44.41641" lon="5.60265">
        <ele>892.523</ele>
        <time>2020-02-22T11:39:46Z</time>
      </trkpt>
      <trkpt lat="44.41649" lon="5.60224">
        <ele>894.411</ele>
        <time>2020-02-22T11:39:52Z</time>
      </trkpt>
      <trkpt lat="44.41655" lon="5.6019">
        <ele>894.622</ele>
        <time>2020-02-22T11:39:57Z</time>
      </trkpt>
      <trkpt lat="44.4166" lon="5.60157">
        <ele>895.058</ele>
        <time>2020-02-22T11:40:02Z</time>
      </trkpt>
      <trkpt lat="44.41667" lon="5.60118">
        <ele>895.743</ele>
        <time>2020-02-22T11:40:08Z</time>
      </trkpt>
      <trkpt lat="44.41672" lon="5.60086">
        <ele>895.622</ele>
        <time>2020-02-22T11:40:13Z</time>
      </trkpt>
      <trkpt lat="44.41679" lon="5.6005">
        <ele>895.479</ele>
        <time>2020-02-22T11:40:19Z</time>
      </trkpt>
      <trkpt lat="44.41684" lon="5.6002">
        <ele>896.102</ele>
        <time>2020-02-22T11:40:24Z</time>
      </trkpt>
      <trkpt lat="44.4169" lon="5.59982">
        <ele>896.474</ele>
        <time>2020-02-22T11:40:30Z</time>
      </trkpt>
      <trkpt lat="44.41695" lon="5.59954">
        <ele>898.411</ele>
        <time>2020-02-22T11:40:35Z</time>
      </trkpt>
      <trkpt lat="44.41702" lon="5.59918">
        <ele>899.107</ele>
        <time>2020-02-22T11:40:41Z</time>
      </trkpt>
      <trkpt lat="44.41706" lon="5.59887">
        <ele>900.519</ele>
        <time>2020-02-22T11:40:46Z</time>
      </trkpt>
      <trkpt lat="44.4171" lon="5.59851">
        <ele>901.583</ele>
        <time>2020-02-22T11:40:52Z</time>
      </trkpt>
      <trkpt lat="44.41713" lon="5.5982">
        <ele>902.126</ele>
        <time>2020-02-22T11:40:57Z</time>
      </trkpt>
      <trkpt lat="44.41717" lon="5.59785">
        <ele>902.268</ele>
        <time>2020-02-22T11:41:03Z</time>
      </trkpt>
      <trkpt lat="44.41719" lon="5.59747">
        <ele>903.307</ele>
        <time>2020-02-22T11:41:09Z</time>
      </trkpt>
      <trkpt lat="44.41722" lon="5.59715">
        <ele>903.649</ele>
        <time>2020-02-22T11:41:14Z</time>
      </trkpt>
      <trkpt lat="44.41726" lon="5.59678">
        <ele>904.976</ele>
        <time>2020-02-22T11:41:20Z</time>
      </trkpt>
      <trkpt lat="44.41727" lon="5.59649">
        <ele>906.503</ele>
        <time>2020-02-22T11:41:25Z</time>
      </trkpt>
      <trkpt lat="44.41729" lon="5.59614">
        <ele>906.996</ele>
        <time>2020-02-22T11:41:31Z</time>
      </trkpt>
      <trkpt lat="44.4173" lon="5.59578">
        <ele>907.761</ele>
        <time>2020-02-22T11:41:37Z</time>
      </trkpt>
      <trkpt lat="44.41728" lon="5.59545">
        <ele>908.437</ele>
        <time>2020-02-22T11:41:42Z</time>
      </trkpt>
      <trkpt lat="44.41724" lon="5.59509">
        <ele>910.036</ele>
        <time>2020-02-22T11:41:48Z</time>
      </trkpt>
      <trkpt lat="44.41721" lon="5.59478">
        <ele>909.382</ele>
        <time>2020-02-22T11:41:53Z</time>
      </trkpt>
      <trkpt lat="44.41716" lon="5.59444">
        <ele>909.747</ele>
        <time>2020-02-22T11:41:59Z</time>
      </trkpt>
      <trkpt lat="44.41711" lon="5.59418">
        <ele>910.055</ele>
        <time>2020-02-22T11:42:04Z</time>
      </trkpt>
      <trkpt lat="44.41705" lon="5.5939">
        <ele>909.856</ele>
        <time>2020-02-22T11:42:10Z</time>
      </trkpt>
      <trkpt lat="44.417" lon="5.59368">
        <ele>911.406</ele>
        <time>2020-02-22T11:42:15Z</time>
      </trkpt>
      <trkpt lat="44.41695" lon="5.5934">
        <ele>913.344</ele>
        <time>2020-02-22T11:42:21Z</time>
      </trkpt>
      <trkpt lat="44.4169" lon="5.59316">
        <ele>914.727</ele>
        <time>2020-02-22T11:42:26Z</time>
      </trkpt>
      <trkpt lat="44.41684" lon="5.59288">
        <ele>914.423</ele>
        <time>2020-02-22T11:42:32Z</time>
      </trkpt>
      <trkpt lat="44.41681" lon="5.59264">
        <ele>914.88</ele>
        <time>2020-02-22T11:42:37Z</time>
      </trkpt>
      <trkpt lat="44.41675" lon="5.59233">
        <ele>916.236</ele>
        <time>2020-02-22T11:42:43Z</time>
      </trkpt>
      <trkpt lat="44.41672" lon="5.59207">
        <ele>916.477</ele>
        <time>2020-02-22T11:42:48Z</time>
      </trkpt>
      <trkpt lat="44.41668" lon="5.59175">
        <ele>916.5</ele>
        <time>2020-02-22T11:42:54Z</time>
      </trkpt>
      <trkpt lat="44.41664" lon="5.59146">
        <ele>917.909</ele>
        <time>2020-02-22T11:42:59Z</time>
      </trkpt>
      <trkpt lat="44.41659" lon="5.59111">
        <ele>919.764</ele>
        <time>2020-02-22T11:43:05Z</time>
      </trkpt>
      <trkpt lat="44.41653" lon="5.59074">
        <ele>919.757</ele>
        <time>2020-02-22T11:43:11Z</time>
      </trkpt>
      <trkpt lat="44.41647" lon="5.59033">
        <ele>919.47</ele>
        <time>2020-02-22T11:43:17Z</time>
      </trkpt>
      <trkpt lat="44.41643" lon="5.58998">
        <ele>919.049</ele>
        <time>2020-02-22T11:43:22Z</time>
      </trkpt>
      <trkpt lat="44.41636" lon="5.58954">
        <ele>919.813</ele>
        <time>2020-02-22T11:43:28Z</time>
      </trkpt>
      <trkpt lat="44.41632" lon="5.58917">
        <ele>918.464</ele>
        <time>2020-02-22T11:43:33Z</time>
      </trkpt>
      <trkpt lat="44.41625" lon="5.58872">
        <ele>919.889</ele>
        <time>2020-02-22T11:43:39Z</time>
      </trkpt>
      <trkpt lat="44.41618" lon="5.58827">
        <ele>921.13</ele>
        <time>2020-02-22T11:43:45Z</time>
      </trkpt>
      <trkpt lat="44.41612" lon="5.5879">
        <ele>921.104</ele>
        <time>2020-02-22T11:43:50Z</time>
      </trkpt>
      <trkpt lat="44.41607" lon="5.58756">
        <ele>922.081</ele>
        <time>2020-02-22T11:43:55Z</time>
      </trkpt>
      <trkpt lat="44.41601" lon="5.58719">
        <ele>922.911</ele>
        <time>2020-02-22T11:44:01Z</time>
      </trkpt>
      <trkpt lat="44.41598" lon="5.58686">
        <ele>924.729</ele>
        <time>2020-02-22T11:44:06Z</time>
      </trkpt>
      <trkpt lat="44.41593" lon="5.58648">
        <ele>925.361</ele>
        <time>2020-02-22T11:44:12Z</time>
      </trkpt>
      <trkpt lat="44.41589" lon="5.58619">
        <ele>925.448</ele>
        <time>2020-02-22T11:44:17Z</time>
      </trkpt>
      <trkpt lat="44.41584" lon="5.58582">
        <ele>927.496</ele>
        <time>2020-02-22T11:44:23Z</time>
      </trkpt>
      <trkpt lat="44.41579" lon="5.5855">
        <ele>927.11</ele>
        <time>2020-02-22T11:44:28Z</time>
      </trkpt>
      <trkpt lat="44.41572" lon="5.5851">
        <ele>927.401</ele>
        <time>2020-02-22T11:44:34Z</time>
      </trkpt>
      <trkpt lat="44.41564" lon="5.58471">
        <ele>927.976</ele>
        <time>2020-02-22T11:44:40Z</time>
      </trkpt>
      <trkpt lat="44.41559" lon="5.58436">
        <ele>928.595</ele>
        <time>2020-02-22T11:44:45Z</time>
      </trkpt>
      <trkpt lat="44.41554" lon="5.58395">
        <ele>929.76</ele>
        <time>2020-02-22T11:44:51Z</time>
      </trkpt>
      <trkpt lat="44.41549" lon="5.58361">
        <ele>929.527</ele>
        <time>2020-02-22T11:44:56Z</time>
      </trkpt>
      <trkpt lat="44.41543" lon="5.5832">
        <ele>929.781</ele>
        <time>2020-02-22T11:45:02Z</time>
      </trkpt>
      <trkpt lat="44.41537" lon="5.58284">
        <ele>930.76</ele>
        <time>2020-02-22T11:45:07Z</time>
      </trkpt>
      <trkpt lat="44.41531" lon="5.58238">
        <ele>931.243</ele>
        <time>2020-02-22T11:45:13Z</time>
      </trkpt>
      <trkpt lat="44.41525" lon="5.58195">
        <ele>931.423</ele>
        <time>2020-02-22T11:45:18Z</time>
      </trkpt>
      <trkpt lat="44.41519" lon="5.58137">
        <ele>930.506</ele>
        <time>2020-02-22T11:45:24Z</time>
      </trkpt>
      <trkpt lat="44.41518" lon="5.58083">
        <ele>927.697</ele>
        <time>2020-02-22T11:45:29Z</time>
      </trkpt>
      <trkpt lat="44.41523" lon="5.58012">
        <ele>925.192</ele>
        <time>2020-02-22T11:45:35Z</time>
      </trkpt>
      <trkpt lat="44.41531" lon="5.57951">
        <ele>922.739</ele>
        <time>2020-02-22T11:45:40Z</time>
      </trkpt>
      <trkpt lat="44.41541" lon="5.57874">
        <ele>918.993</ele>
        <time>2020-02-22T11:45:46Z</time>
      </trkpt>
      <trkpt lat="44.41541" lon="5.57802">
        <ele>914.293</ele>
        <time>2020-02-22T11:45:51Z</time>
      </trkpt>
      <trkpt lat="44.41524" lon="5.57714">
        <ele>909.967</ele>
        <time>2020-02-22T11:45:57Z</time>
      </trkpt>
      <trkpt lat="44.41498" lon="5.57645">
        <ele>905.437</ele>
        <time>2020-02-22T11:46:02Z</time>
      </trkpt>
      <trkpt lat="44.41469" lon="5.57559">
        <ele>899.857</ele>
        <time>2020-02-22T11:46:08Z</time>
      </trkpt>
      <trkpt lat="44.41451" lon="5.57479">
        <ele>894.385</ele>
        <time>2020-02-22T11:46:13Z</time>
      </trkpt>
      <trkpt lat="44.41435" lon="5.57377">
        <ele>889.295</ele>
        <time>2020-02-22T11:46:19Z</time>
      </trkpt>
      <trkpt lat="44.41423" lon="5.5729">
        <ele>884.749</ele>
        <time>2020-02-22T11:46:24Z</time>
      </trkpt>
      <trkpt lat="44.41414" lon="5.57187">
        <ele>880.101</ele>
        <time>2020-02-22T11:46:30Z</time>
      </trkpt>
      <trkpt lat="44.41407" lon="5.57105">
        <ele>877.094</ele>
        <time>2020-02-22T11:46:35Z</time>
      </trkpt>
      <trkpt lat="44.41399" lon="5.57017">
        <ele>876.614</ele>
        <time>2020-02-22T11:46:41Z</time>
      </trkpt>
      <trkpt lat="44.41394" lon="5.56956">
        <ele>877.176</ele>
        <time>2020-02-22T11:46:46Z</time>
      </trkpt>
      <trkpt lat="44.41388" lon="5.56891">
        <ele>878.927</ele>
        <time>2020-02-22T11:46:52Z</time>
      </trkpt>
      <trkpt lat="44.41383" lon="5.56846">
        <ele>879.43</ele>
        <time>2020-02-22T11:46:57Z</time>
      </trkpt>
      <trkpt lat="44.4138" lon="5.56797">
        <ele>881.02</ele>
        <time>2020-02-22T11:47:03Z</time>
      </trkpt>
      <trkpt lat="44.41377" lon="5.5676">
        <ele>882.24</ele>
        <time>2020-02-22T11:47:08Z</time>
      </trkpt>
      <trkpt lat="44.41376" lon="5.56714">
        <ele>883.11</ele>
        <time>2020-02-22T11:47:14Z</time>
      </trkpt>
      <trkpt lat="44.41378" lon="5.56673">
        <ele>882.874</ele>
        <time>2020-02-22T11:47:19Z</time>
      </trkpt>
      <trkpt lat="44.41381" lon="5.56621">
        <ele>879.869</ele>
        <time>2020-02-22T11:47:25Z</time>
      </trkpt>
      <trkpt lat="44.41383" lon="5.56574">
        <ele>879.532</ele>
        <time>2020-02-22T11:47:30Z</time>
      </trkpt>
      <trkpt lat="44.41386" lon="5.56518">
        <ele>878.457</ele>
        <time>2020-02-22T11:47:36Z</time>
      </trkpt>
      <trkpt lat="44.41389" lon="5.5647">
        <ele>878.243</ele>
        <time>2020-02-22T11:47:41Z</time>
      </trkpt>
      <trkpt lat="44.41388" lon="5.56412">
        <ele>878.439</ele>
        <time>2020-02-22T11:47:47Z</time>
      </trkpt>
      <trkpt lat="44.41378" lon="5.5637">
        <ele>878.647</ele>
        <time>2020-02-22T11:47:52Z</time>
      </trkpt>
      <trkpt lat="44.41359" lon="5.56329">
        <ele>878.158</ele>
        <time>2020-02-22T11:47:58Z</time>
      </trkpt>
      <trkpt lat="44.41341" lon="5.56304">
        <ele>877.933</ele>
        <time>2020-02-22T11:48:03Z</time>
      </trkpt>
      <trkpt lat="44.41322" lon="5.56276">
        <ele>880.907</ele>
        <time>2020-02-22T11:48:09Z</time>
      </trkpt>
      <trkpt lat="44.41308" lon="5.56254">
        <ele>881.511</ele>
        <time>2020-02-22T11:48:14Z</time>
      </trkpt>
      <trkpt lat="44.41294" lon="5.56224">
        <ele>882.166</ele>
        <time>2020-02-22T11:48:20Z</time>
      </trkpt>
      <trkpt lat="44.41288" lon="5.56184">
        <ele>881.246</ele>
        <time>2020-02-22T11:48:26Z</time>
      </trkpt>
      <trkpt lat="44.41285" lon="5.56146">
        <ele>881.964</ele>
        <time>2020-02-22T11:48:31Z</time>
      </trkpt>
      <trkpt lat="44.41285" lon="5.56094">
        <ele>879.915</ele>
        <time>2020-02-22T11:48:37Z</time>
      </trkpt>
      <trkpt lat="44.4128" lon="5.56046">
        <ele>879.176</ele>
        <time>2020-02-22T11:48:42Z</time>
      </trkpt>
      <trkpt lat="44.41274" lon="5.55982">
        <ele>876.994</ele>
        <time>2020-02-22T11:48:48Z</time>
      </trkpt>
      <trkpt lat="44.41269" lon="5.55923">
        <ele>874.164</ele>
        <time>2020-02-22T11:48:53Z</time>
      </trkpt>
      <trkpt lat="44.41264" lon="5.55844">
        <ele>871.747</ele>
        <time>2020-02-22T11:48:59Z</time>
      </trkpt>
      <trkpt lat="44.41264" lon="5.55775">
        <ele>868.652</ele>
        <time>2020-02-22T11:49:04Z</time>
      </trkpt>
      <trkpt lat="44.41265" lon="5.55696">
        <ele>866.734</ele>
        <time>2020-02-22T11:49:10Z</time>
      </trkpt>
      <trkpt lat="44.4125" lon="5.55639">
        <ele>864.349</ele>
        <time>2020-02-22T11:49:15Z</time>
      </trkpt>
      <trkpt lat="44.41227" lon="5.55585">
        <ele>865.175</ele>
        <time>2020-02-22T11:49:21Z</time>
      </trkpt>
      <trkpt lat="44.41214" lon="5.5554">
        <ele>864.047</ele>
        <time>2020-02-22T11:49:26Z</time>
      </trkpt>
      <trkpt lat="44.41199" lon="5.55478">
        <ele>861.221</ele>
        <time>2020-02-22T11:49:32Z</time>
      </trkpt>
      <trkpt lat="44.41192" lon="5.55417">
        <ele>859.187</ele>
        <time>2020-02-22T11:49:37Z</time>
      </trkpt>
      <trkpt lat="44.4118" lon="5.55341">
        <ele>856.011</ele>
        <time>2020-02-22T11:49:43Z</time>
      </trkpt>
      <trkpt lat="44.4115" lon="5.55281">
        <ele>854.596</ele>
        <time>2020-02-22T11:49:49Z</time>
      </trkpt>
      <trkpt lat="44.41118" lon="5.5525">
        <ele>854.754</ele>
        <time>2020-02-22T11:49:54Z</time>
      </trkpt>
      <trkpt lat="44.4108" lon="5.55229">
        <ele>855.551</ele>
        <time>2020-02-22T11:50:00Z</time>
      </trkpt>
      <trkpt lat="44.41049" lon="5.5521">
        <ele>855.388</ele>
        <time>2020-02-22T11:50:06Z</time>
      </trkpt>
      <trkpt lat="44.41029" lon="5.55192">
        <ele>855.445</ele>
        <time>2020-02-22T11:50:11Z</time>
      </trkpt>
      <trkpt lat="44.41009" lon="5.55168">
        <ele>857.306</ele>
        <time>2020-02-22T11:50:17Z</time>
      </trkpt>
      <trkpt lat="44.40994" lon="5.5514">
        <ele>859.299</ele>
        <time>2020-02-22T11:50:23Z</time>
      </trkpt>
      <trkpt lat="44.40985" lon="5.55107">
        <ele>858.995</ele>
        <time>2020-02-22T11:50:29Z</time>
      </trkpt>
      <trkpt lat="44.40981" lon="5.55075">
        <ele>860.501</ele>
        <time>2020-02-22T11:50:35Z</time>
      </trkpt>
      <trkpt lat="44.40981" lon="5.55061">
        <ele>862.124</ele>
        <time>2020-02-22T11:50:41Z</time>
      </trkpt>
      <trkpt lat="44.40984" lon="5.55018">
        <ele>865.433</ele>
        <time>2020-02-22T11:50:47Z</time>
      </trkpt>
      <trkpt lat="44.40987" lon="5.54994">
        <ele>866.666</ele>
        <time>2020-02-22T11:50:52Z</time>
      </trkpt>
      <trkpt lat="44.40993" lon="5.54968">
        <ele>867.917</ele>
        <time>2020-02-22T11:50:58Z</time>
      </trkpt>
      <trkpt lat="44.41002" lon="5.54947">
        <ele>868.1</ele>
        <time>2020-02-22T11:51:03Z</time>
      </trkpt>
      <trkpt lat="44.41013" lon="5.54929">
        <ele>868.768</ele>
        <time>2020-02-22T11:51:08Z</time>
      </trkpt>
      <trkpt lat="44.41026" lon="5.54909">
        <ele>868.65</ele>
        <time>2020-02-22T11:51:14Z</time>
      </trkpt>
      <trkpt lat="44.41036" lon="5.54892">
        <ele>868.248</ele>
        <time>2020-02-22T11:51:19Z</time>
      </trkpt>
      <trkpt lat="44.41047" lon="5.54872">
        <ele>868.745</ele>
        <time>2020-02-22T11:51:25Z</time>
      </trkpt>
      <trkpt lat="44.41055" lon="5.54854">
        <ele>868.554</ele>
        <time>2020-02-22T11:51:30Z</time>
      </trkpt>
      <trkpt lat="44.41062" lon="5.5483">
        <ele>870.25</ele>
        <time>2020-02-22T11:51:36Z</time>
      </trkpt>
      <trkpt lat="44.41066" lon="5.54809">
        <ele>870.768</ele>
        <time>2020-02-22T11:51:41Z</time>
      </trkpt>
      <trkpt lat="44.4107" lon="5.54783">
        <ele>872.057</ele>
        <time>2020-02-22T11:51:47Z</time>
      </trkpt>
      <trkpt lat="44.41072" lon="5.5476">
        <ele>872.76</ele>
        <time>2020-02-22T11:51:52Z</time>
      </trkpt>
      <trkpt lat="44.4107" lon="5.54736">
        <ele>873.407</ele>
        <time>2020-02-22T11:51:58Z</time>
      </trkpt>
      <trkpt lat="44.41066" lon="5.54713">
        <ele>875.258</ele>
        <time>2020-02-22T11:52:04Z</time>
      </trkpt>
      <trkpt lat="44.41062" lon="5.54695">
        <ele>875.86</ele>
        <time>2020-02-22T11:52:09Z</time>
      </trkpt>
      <trkpt lat="44.41057" lon="5.54673">
        <ele>876.698</ele>
        <time>2020-02-22T11:52:15Z</time>
      </trkpt>
      <trkpt lat="44.41052" lon="5.54656">
        <ele>878.692</ele>
        <time>2020-02-22T11:52:20Z</time>
      </trkpt>
      <trkpt lat="44.41045" lon="5.54635">
        <ele>879.471</ele>
        <time>2020-02-22T11:52:26Z</time>
      </trkpt>
      <trkpt lat="44.4104" lon="5.54617">
        <ele>881.011</ele>
        <time>2020-02-22T11:52:31Z</time>
      </trkpt>
      <trkpt lat="44.41032" lon="5.54595">
        <ele>880.976</ele>
        <time>2020-02-22T11:52:37Z</time>
      </trkpt>
      <trkpt lat="44.41027" lon="5.54576">
        <ele>882.332</ele>
        <time>2020-02-22T11:52:42Z</time>
      </trkpt>
      <trkpt lat="44.4102" lon="5.54555">
        <ele>884.069</ele>
        <time>2020-02-22T11:52:48Z</time>
      </trkpt>
      <trkpt lat="44.41014" lon="5.54538">
        <ele>885.849</ele>
        <time>2020-02-22T11:52:53Z</time>
      </trkpt>
      <trkpt lat="44.41007" lon="5.54517">
        <ele>888.352</ele>
        <time>2020-02-22T11:52:59Z</time>
      </trkpt>
      <trkpt lat="44.41" lon="5.54502">
        <ele>887.619</ele>
        <time>2020-02-22T11:53:04Z</time>
      </trkpt>
      <trkpt lat="44.4098" lon="5.54492">
        <ele>886.76</ele>
        <time>2020-02-22T11:53:10Z</time>
      </trkpt>
      <trkpt lat="44.40964" lon="5.54482">
        <ele>887.571</ele>
        <time>2020-02-22T11:53:15Z</time>
      </trkpt>
      <trkpt lat="44.40947" lon="5.54474">
        <ele>887.755</ele>
        <time>2020-02-22T11:53:21Z</time>
      </trkpt>
      <trkpt lat="44.40936" lon="5.54462">
        <ele>887.318</ele>
        <time>2020-02-22T11:53:26Z</time>
      </trkpt>
      <trkpt lat="44.40934" lon="5.54438">
        <ele>887.799</ele>
        <time>2020-02-22T11:53:32Z</time>
      </trkpt>
      <trkpt lat="44.40935" lon="5.54409">
        <ele>888.48</ele>
        <time>2020-02-22T11:53:38Z</time>
      </trkpt>
      <trkpt lat="44.40935" lon="5.54385">
        <ele>888.226</ele>
        <time>2020-02-22T11:53:43Z</time>
      </trkpt>
      <trkpt lat="44.40935" lon="5.5436">
        <ele>888.689</ele>
        <time>2020-02-22T11:53:48Z</time>
      </trkpt>
      <trkpt lat="44.40937" lon="5.54332">
        <ele>888.581</ele>
        <time>2020-02-22T11:53:54Z</time>
      </trkpt>
      <trkpt lat="44.40939" lon="5.54307">
        <ele>889.596</ele>
        <time>2020-02-22T11:53:59Z</time>
      </trkpt>
      <trkpt lat="44.40943" lon="5.54273">
        <ele>887.77</ele>
        <time>2020-02-22T11:54:05Z</time>
      </trkpt>
      <trkpt lat="44.4095" lon="5.54243">
        <ele>887.709</ele>
        <time>2020-02-22T11:54:10Z</time>
      </trkpt>
      <trkpt lat="44.4096" lon="5.54209">
        <ele>887.627</ele>
        <time>2020-02-22T11:54:16Z</time>
      </trkpt>
      <trkpt lat="44.4097" lon="5.54181">
        <ele>888.151</ele>
        <time>2020-02-22T11:54:21Z</time>
      </trkpt>
      <trkpt lat="44.40988" lon="5.54153">
        <ele>888.094</ele>
        <time>2020-02-22T11:54:27Z</time>
      </trkpt>
      <trkpt lat="44.41005" lon="5.5414">
        <ele>888.068</ele>
        <time>2020-02-22T11:54:32Z</time>
      </trkpt>
      <trkpt lat="44.4102" lon="5.54112">
        <ele>887.441</ele>
        <time>2020-02-22T11:54:37Z</time>
      </trkpt>
      <trkpt lat="44.41044" lon="5.5408">
        <ele>884.925</ele>
        <time>2020-02-22T11:54:43Z</time>
      </trkpt>
      <trkpt lat="44.41066" lon="5.54053">
        <ele>884.406</ele>
        <time>2020-02-22T11:54:48Z</time>
      </trkpt>
      <trkpt lat="44.41091" lon="5.54022">
        <ele>884.735</ele>
        <time>2020-02-22T11:54:54Z</time>
      </trkpt>
      <trkpt lat="44.41109" lon="5.53991">
        <ele>885.932</ele>
        <time>2020-02-22T11:54:59Z</time>
      </trkpt>
      <trkpt lat="44.41125" lon="5.53948">
        <ele>886.218</ele>
        <time>2020-02-22T11:55:05Z</time>
      </trkpt>
      <trkpt lat="44.4113" lon="5.53906">
        <ele>888.092</ele>
        <time>2020-02-22T11:55:11Z</time>
      </trkpt>
      <trkpt lat="44.41129" lon="5.53873">
        <ele>890.585</ele>
        <time>2020-02-22T11:55:16Z</time>
      </trkpt>
      <trkpt lat="44.41123" lon="5.53838">
        <ele>889.725</ele>
        <time>2020-02-22T11:55:22Z</time>
      </trkpt>
      <trkpt lat="44.41118" lon="5.53806">
        <ele>890.055</ele>
        <time>2020-02-22T11:55:27Z</time>
      </trkpt>
      <trkpt lat="44.4111" lon="5.53766">
        <ele>890.717</ele>
        <time>2020-02-22T11:55:33Z</time>
      </trkpt>
      <trkpt lat="44.411" lon="5.53732">
        <ele>890.565</ele>
        <time>2020-02-22T11:55:38Z</time>
      </trkpt>
      <trkpt lat="44.41082" lon="5.53686">
        <ele>887.408</ele>
        <time>2020-02-22T11:55:44Z</time>
      </trkpt>
      <trkpt lat="44.41066" lon="5.53639">
        <ele>883.167</ele>
        <time>2020-02-22T11:55:49Z</time>
      </trkpt>
      <trkpt lat="44.4104" lon="5.53575">
        <ele>879.902</ele>
        <time>2020-02-22T11:55:55Z</time>
      </trkpt>
      <trkpt lat="44.41019" lon="5.53519">
        <ele>876.499</ele>
        <time>2020-02-22T11:56:00Z</time>
      </trkpt>
      <trkpt lat="44.40996" lon="5.5346">
        <ele>872.934</ele>
        <time>2020-02-22T11:56:05Z</time>
      </trkpt>
      <trkpt lat="44.40966" lon="5.5339">
        <ele>871.079</ele>
        <time>2020-02-22T11:56:11Z</time>
      </trkpt>
      <trkpt lat="44.40928" lon="5.53346">
        <ele>868.27</ele>
        <time>2020-02-22T11:56:16Z</time>
      </trkpt>
      <trkpt lat="44.40869" lon="5.53313">
        <ele>864.507</ele>
        <time>2020-02-22T11:56:22Z</time>
      </trkpt>
      <trkpt lat="44.40822" lon="5.53289">
        <ele>865.504</ele>
        <time>2020-02-22T11:56:27Z</time>
      </trkpt>
      <trkpt lat="44.40767" lon="5.53287">
        <ele>865.849</ele>
        <time>2020-02-22T11:56:33Z</time>
      </trkpt>
      <trkpt lat="44.40727" lon="5.53269">
        <ele>865.666</ele>
        <time>2020-02-22T11:56:38Z</time>
      </trkpt>
      <trkpt lat="44.40689" lon="5.53231">
        <ele>865.94</ele>
        <time>2020-02-22T11:56:44Z</time>
      </trkpt>
      <trkpt lat="44.40657" lon="5.53215">
        <ele>866.721</ele>
        <time>2020-02-22T11:56:49Z</time>
      </trkpt>
      <trkpt lat="44.40619" lon="5.53199">
        <ele>865.76</ele>
        <time>2020-02-22T11:56:55Z</time>
      </trkpt>
      <trkpt lat="44.40588" lon="5.5318">
        <ele>865.197</ele>
        <time>2020-02-22T11:57:00Z</time>
      </trkpt>
      <trkpt lat="44.40563" lon="5.53141">
        <ele>864.546</ele>
        <time>2020-02-22T11:57:06Z</time>
      </trkpt>
      <trkpt lat="44.40553" lon="5.53091">
        <ele>865.23</ele>
        <time>2020-02-22T11:57:12Z</time>
      </trkpt>
      <trkpt lat="44.40563" lon="5.5305">
        <ele>865.605</ele>
        <time>2020-02-22T11:57:17Z</time>
      </trkpt>
      <trkpt lat="44.40595" lon="5.53017">
        <ele>864.113</ele>
        <time>2020-02-22T11:57:23Z</time>
      </trkpt>
      <trkpt lat="44.40629" lon="5.52989">
        <ele>860.091</ele>
        <time>2020-02-22T11:57:28Z</time>
      </trkpt>
      <trkpt lat="44.40656" lon="5.52929">
        <ele>856.782</ele>
        <time>2020-02-22T11:57:34Z</time>
      </trkpt>
      <trkpt lat="44.40654" lon="5.52865">
        <ele>854.393</ele>
        <time>2020-02-22T11:57:39Z</time>
      </trkpt>
      <trkpt lat="44.40614" lon="5.5281">
        <ele>851.203</ele>
        <time>2020-02-22T11:57:45Z</time>
      </trkpt>
      <trkpt lat="44.4057" lon="5.52792">
        <ele>849.363</ele>
        <time>2020-02-22T11:57:50Z</time>
      </trkpt>
      <trkpt lat="44.40526" lon="5.52772">
        <ele>846.673</ele>
        <time>2020-02-22T11:57:55Z</time>
      </trkpt>
      <trkpt lat="44.4048" lon="5.5273">
        <ele>844.566</ele>
        <time>2020-02-22T11:58:01Z</time>
      </trkpt>
      <trkpt lat="44.4045" lon="5.52687">
        <ele>843.939</ele>
        <time>2020-02-22T11:58:06Z</time>
      </trkpt>
      <trkpt lat="44.40414" lon="5.52645">
        <ele>843.291</ele>
        <time>2020-02-22T11:58:12Z</time>
      </trkpt>
      <trkpt lat="44.40376" lon="5.52613">
        <ele>842.636</ele>
        <time>2020-02-22T11:58:18Z</time>
      </trkpt>
      <trkpt lat="44.40348" lon="5.52588">
        <ele>842.042</ele>
        <time>2020-02-22T11:58:23Z</time>
      </trkpt>
      <trkpt lat="44.40337" lon="5.52575">
        <ele>842.328</ele>
        <time>2020-02-22T11:58:29Z</time>
      </trkpt>
      <trkpt lat="44.40339" lon="5.52575">
        <ele>843.592</ele>
        <time>2020-02-22T11:58:35Z</time>
      </trkpt>
      <trkpt lat="44.4034" lon="5.52575">
        <ele>845.125</ele>
        <time>2020-02-22T11:58:40Z</time>
      </trkpt>
      <trkpt lat="44.4034" lon="5.52575">
        <ele>845.145</ele>
        <time>2020-02-22T11:58:46Z</time>
      </trkpt>
      <trkpt lat="44.4034" lon="5.52575">
        <ele>845.136</ele>
        <time>2020-02-22T11:58:51Z</time>
      </trkpt>
      <trkpt lat="44.4034" lon="5.52575">
        <ele>845.139</ele>
        <time>2020-02-22T11:58:57Z</time>
      </trkpt>
      <trkpt lat="44.4034" lon="5.52575">
        <ele>845.113</ele>
        <time>2020-02-22T11:59:03Z</time>
      </trkpt>
      <trkpt lat="44.4034" lon="5.52575">
        <ele>845.089</ele>
        <time>2020-02-22T11:59:08Z</time>
      </trkpt>
      <trkpt lat="44.4033" lon="5.52567">
        <ele>844.748</ele>
        <time>2020-02-22T11:59:14Z</time>
      </trkpt>
      <trkpt lat="44.40319" lon="5.52574">
        <ele>842.954</ele>
        <time>2020-02-22T11:59:19Z</time>
      </trkpt>
      <trkpt lat="44.40305" lon="5.52581">
        <ele>843.232</ele>
        <time>2020-02-22T11:59:25Z</time>
      </trkpt>
      <trkpt lat="44.4029" lon="5.52587">
        <ele>842.275</ele>
        <time>2020-02-22T11:59:31Z</time>
      </trkpt>
      <trkpt lat="44.40276" lon="5.52596">
        <ele>843.517</ele>
        <time>2020-02-22T11:59:36Z</time>
      </trkpt>
      <trkpt lat="44.40262" lon="5.52614">
        <ele>844.538</ele>
        <time>2020-02-22T11:59:42Z</time>
      </trkpt>
      <trkpt lat="44.40254" lon="5.52632">
        <ele>844.419</ele>
        <time>2020-02-22T11:59:47Z</time>
      </trkpt>
      <trkpt lat="44.40249" lon="5.52657">
        <ele>845.116</ele>
        <time>2020-02-22T11:59:53Z</time>
      </trkpt>
      <trkpt lat="44.40247" lon="5.52677">
        <ele>847.947</ele>
        <time>2020-02-22T11:59:58Z</time>
      </trkpt>
      <trkpt lat="44.40247" lon="5.52701">
        <ele>848.471</ele>
        <time>2020-02-22T12:00:04Z</time>
      </trkpt>
      <trkpt lat="44.40246" lon="5.52722">
        <ele>850.113</ele>
        <time>2020-02-22T12:00:09Z</time>
      </trkpt>
      <trkpt lat="44.40246" lon="5.52744">
        <ele>852.235</ele>
        <time>2020-02-22T12:00:15Z</time>
      </trkpt>
      <trkpt lat="44.40246" lon="5.52762">
        <ele>852.093</ele>
        <time>2020-02-22T12:00:20Z</time>
      </trkpt>
      <trkpt lat="44.40243" lon="5.52785">
        <ele>852.853</ele>
        <time>2020-02-22T12:00:26Z</time>
      </trkpt>
      <trkpt lat="44.40238" lon="5.52801">
        <ele>855.046</ele>
        <time>2020-02-22T12:00:31Z</time>
      </trkpt>
      <trkpt lat="44.40226" lon="5.52815">
        <ele>855.119</ele>
        <time>2020-02-22T12:00:37Z</time>
      </trkpt>
      <trkpt lat="44.40214" lon="5.5282">
        <ele>855.842</ele>
        <time>2020-02-22T12:00:42Z</time>
      </trkpt>
      <trkpt lat="44.40199" lon="5.52826">
        <ele>857.678</ele>
        <time>2020-02-22T12:00:48Z</time>
      </trkpt>
      <trkpt lat="44.40189" lon="5.52836">
        <ele>860.751</ele>
        <time>2020-02-22T12:00:53Z</time>
      </trkpt>
      <trkpt lat="44.40177" lon="5.52848">
        <ele>857.442</ele>
        <time>2020-02-22T12:00:59Z</time>
      </trkpt>
      <trkpt lat="44.40167" lon="5.52858">
        <ele>857.948</ele>
        <time>2020-02-22T12:01:04Z</time>
      </trkpt>
      <trkpt lat="44.40153" lon="5.5287">
        <ele>857.007</ele>
        <time>2020-02-22T12:01:10Z</time>
      </trkpt>
      <trkpt lat="44.40141" lon="5.52881">
        <ele>858.936</ele>
        <time>2020-02-22T12:01:15Z</time>
      </trkpt>
      <trkpt lat="44.40129" lon="5.52895">
        <ele>858.803</ele>
        <time>2020-02-22T12:01:21Z</time>
      </trkpt>
      <trkpt lat="44.40122" lon="5.5291">
        <ele>860.353</ele>
        <time>2020-02-22T12:01:26Z</time>
      </trkpt>
      <trkpt lat="44.40114" lon="5.5293">
        <ele>862.522</ele>
        <time>2020-02-22T12:01:32Z</time>
      </trkpt>
      <trkpt lat="44.40106" lon="5.52946">
        <ele>861.751</ele>
        <time>2020-02-22T12:01:37Z</time>
      </trkpt>
      <trkpt lat="44.40095" lon="5.52964">
        <ele>862.348</ele>
        <time>2020-02-22T12:01:43Z</time>
      </trkpt>
      <trkpt lat="44.40087" lon="5.52977">
        <ele>864.668</ele>
        <time>2020-02-22T12:01:48Z</time>
      </trkpt>
      <trkpt lat="44.40074" lon="5.52988">
        <ele>867.167</ele>
        <time>2020-02-22T12:01:54Z</time>
      </trkpt>
      <trkpt lat="44.40062" lon="5.52993">
        <ele>867.656</ele>
        <time>2020-02-22T12:01:59Z</time>
      </trkpt>
      <trkpt lat="44.40048" lon="5.52989">
        <ele>869.021</ele>
        <time>2020-02-22T12:02:05Z</time>
      </trkpt>
      <trkpt lat="44.40034" lon="5.52985">
        <ele>870.645</ele>
        <time>2020-02-22T12:02:10Z</time>
      </trkpt>
      <trkpt lat="44.40019" lon="5.52988">
        <ele>871.869</ele>
        <time>2020-02-22T12:02:16Z</time>
      </trkpt>
      <trkpt lat="44.40008" lon="5.52998">
        <ele>873.396</ele>
        <time>2020-02-22T12:02:21Z</time>
      </trkpt>
      <trkpt lat="44.39997" lon="5.53005">
        <ele>874.183</ele>
        <time>2020-02-22T12:02:27Z</time>
      </trkpt>
      <trkpt lat="44.39986" lon="5.53003">
        <ele>875.322</ele>
        <time>2020-02-22T12:02:32Z</time>
      </trkpt>
      <trkpt lat="44.39973" lon="5.52996">
        <ele>876.215</ele>
        <time>2020-02-22T12:02:38Z</time>
      </trkpt>
      <trkpt lat="44.39962" lon="5.52995">
        <ele>878.135</ele>
        <time>2020-02-22T12:02:43Z</time>
      </trkpt>
      <trkpt lat="44.39948" lon="5.52994">
        <ele>879.985</ele>
        <time>2020-02-22T12:02:49Z</time>
      </trkpt>
      <trkpt lat="44.39936" lon="5.52995">
        <ele>881.76</ele>
        <time>2020-02-22T12:02:54Z</time>
      </trkpt>
      <trkpt lat="44.39922" lon="5.52993">
        <ele>881.582</ele>
        <time>2020-02-22T12:03:00Z</time>
      </trkpt>
      <trkpt lat="44.39912" lon="5.5299">
        <ele>883.287</ele>
        <time>2020-02-22T12:03:05Z</time>
      </trkpt>
      <trkpt lat="44.39899" lon="5.52984">
        <ele>884.371</ele>
        <time>2020-02-22T12:03:11Z</time>
      </trkpt>
      <trkpt lat="44.39887" lon="5.52983">
        <ele>884.581</ele>
        <time>2020-02-22T12:03:16Z</time>
      </trkpt>
      <trkpt lat="44.39875" lon="5.5299">
        <ele>883.99</ele>
        <time>2020-02-22T12:03:22Z</time>
      </trkpt>
      <trkpt lat="44.39865" lon="5.53">
        <ele>884.669</ele>
        <time>2020-02-22T12:03:27Z</time>
      </trkpt>
      <trkpt lat="44.39857" lon="5.53017">
        <ele>883.851</ele>
        <time>2020-02-22T12:03:33Z</time>
      </trkpt>
      <trkpt lat="44.39852" lon="5.53032">
        <ele>885.469</ele>
        <time>2020-02-22T12:03:38Z</time>
      </trkpt>
      <trkpt lat="44.39843" lon="5.53049">
        <ele>887.241</ele>
        <time>2020-02-22T12:03:44Z</time>
      </trkpt>
      <trkpt lat="44.39835" lon="5.5306">
        <ele>889.334</ele>
        <time>2020-02-22T12:03:49Z</time>
      </trkpt>
      <trkpt lat="44.39822" lon="5.53066">
        <ele>890.137</ele>
        <time>2020-02-22T12:03:55Z</time>
      </trkpt>
      <trkpt lat="44.39811" lon="5.53064">
        <ele>893.357</ele>
        <time>2020-02-22T12:04:00Z</time>
      </trkpt>
      <trkpt lat="44.39797" lon="5.53059">
        <ele>895.196</ele>
        <time>2020-02-22T12:04:06Z</time>
      </trkpt>
      <trkpt lat="44.39787" lon="5.53052">
        <ele>896.171</ele>
        <time>2020-02-22T12:04:11Z</time>
      </trkpt>
      <trkpt lat="44.39774" lon="5.53046">
        <ele>897.616</ele>
        <time>2020-02-22T12:04:17Z</time>
      </trkpt>
      <trkpt lat="44.39763" lon="5.53043">
        <ele>897.325</ele>
        <time>2020-02-22T12:04:22Z</time>
      </trkpt>
      <trkpt lat="44.39749" lon="5.53042">
        <ele>897.486</ele>
        <time>2020-02-22T12:04:28Z</time>
      </trkpt>
      <trkpt lat="44.39736" lon="5.5304">
        <ele>899.529</ele>
        <time>2020-02-22T12:04:34Z</time>
      </trkpt>
      <trkpt lat="44.39725" lon="5.53036">
        <ele>898.959</ele>
        <time>2020-02-22T12:04:39Z</time>
      </trkpt>
      <trkpt lat="44.39712" lon="5.53026">
        <ele>898.598</ele>
        <time>2020-02-22T12:04:45Z</time>
      </trkpt>
      <trkpt lat="44.39704" lon="5.53013">
        <ele>899.122</ele>
        <time>2020-02-22T12:04:50Z</time>
      </trkpt>
      <trkpt lat="44.39695" lon="5.52998">
        <ele>900.059</ele>
        <time>2020-02-22T12:04:56Z</time>
      </trkpt>
      <trkpt lat="44.39686" lon="5.52988">
        <ele>901.148</ele>
        <time>2020-02-22T12:05:01Z</time>
      </trkpt>
      <trkpt lat="44.39674" lon="5.52984">
        <ele>902.441</ele>
        <time>2020-02-22T12:05:07Z</time>
      </trkpt>
      <trkpt lat="44.39662" lon="5.52982">
        <ele>903.333</ele>
        <time>2020-02-22T12:05:12Z</time>
      </trkpt>
      <trkpt lat="44.39648" lon="5.52978">
        <ele>903.912</ele>
        <time>2020-02-22T12:05:18Z</time>
      </trkpt>
      <trkpt lat="44.39637" lon="5.52976">
        <ele>906.183</ele>
        <time>2020-02-22T12:05:23Z</time>
      </trkpt>
      <trkpt lat="44.39623" lon="5.52974">
        <ele>907.276</ele>
        <time>2020-02-22T12:05:29Z</time>
      </trkpt>
      <trkpt lat="44.39611" lon="5.52975">
        <ele>908.365</ele>
        <time>2020-02-22T12:05:34Z</time>
      </trkpt>
      <trkpt lat="44.39597" lon="5.52983">
        <ele>910.243</ele>
        <time>2020-02-22T12:05:40Z</time>
      </trkpt>
      <trkpt lat="44.39588" lon="5.52996">
        <ele>910.958</ele>
        <time>2020-02-22T12:05:46Z</time>
      </trkpt>
      <trkpt lat="44.39581" lon="5.53008">
        <ele>911.27</ele>
        <time>2020-02-22T12:05:51Z</time>
      </trkpt>
      <trkpt lat="44.39573" lon="5.53025">
        <ele>911.164</ele>
        <time>2020-02-22T12:05:57Z</time>
      </trkpt>
      <trkpt lat="44.39567" lon="5.53037">
        <ele>910.876</ele>
        <time>2020-02-22T12:06:02Z</time>
      </trkpt>
      <trkpt lat="44.39559" lon="5.53055">
        <ele>912.382</ele>
        <time>2020-02-22T12:06:08Z</time>
      </trkpt>
      <trkpt lat="44.39553" lon="5.53069">
        <ele>913.12</ele>
        <time>2020-02-22T12:06:13Z</time>
      </trkpt>
      <trkpt lat="44.39543" lon="5.5308">
        <ele>913.194</ele>
        <time>2020-02-22T12:06:19Z</time>
      </trkpt>
      <trkpt lat="44.3953" lon="5.53079">
        <ele>914.493</ele>
        <time>2020-02-22T12:06:24Z</time>
      </trkpt>
      <trkpt lat="44.39518" lon="5.53068">
        <ele>914.955</ele>
        <time>2020-02-22T12:06:30Z</time>
      </trkpt>
      <trkpt lat="44.3951" lon="5.53055">
        <ele>915.263</ele>
        <time>2020-02-22T12:06:35Z</time>
      </trkpt>
      <trkpt lat="44.39498" lon="5.53043">
        <ele>914.98</ele>
        <time>2020-02-22T12:06:41Z</time>
      </trkpt>
      <trkpt lat="44.39488" lon="5.53036">
        <ele>916.107</ele>
        <time>2020-02-22T12:06:46Z</time>
      </trkpt>
      <trkpt lat="44.39474" lon="5.53035">
        <ele>915.367</ele>
        <time>2020-02-22T12:06:52Z</time>
      </trkpt>
      <trkpt lat="44.39461" lon="5.53033">
        <ele>916.576</ele>
        <time>2020-02-22T12:06:57Z</time>
      </trkpt>
      <trkpt lat="44.39448" lon="5.53026">
        <ele>918.179</ele>
        <time>2020-02-22T12:07:03Z</time>
      </trkpt>
      <trkpt lat="44.39438" lon="5.5302">
        <ele>919.929</ele>
        <time>2020-02-22T12:07:08Z</time>
      </trkpt>
      <trkpt lat="44.39426" lon="5.53012">
        <ele>921.359</ele>
        <time>2020-02-22T12:07:14Z</time>
      </trkpt>
      <trkpt lat="44.39414" lon="5.53008">
        <ele>921.458</ele>
        <time>2020-02-22T12:07:19Z</time>
      </trkpt>
      <trkpt lat="44.39401" lon="5.53003">
        <ele>922.581</ele>
        <time>2020-02-22T12:07:25Z</time>
      </trkpt>
      <trkpt lat="44.3939" lon="5.52996">
        <ele>923.84</ele>
        <time>2020-02-22T12:07:30Z</time>
      </trkpt>
      <trkpt lat="44.3938" lon="5.52985">
        <ele>924.998</ele>
        <time>2020-02-22T12:07:36Z</time>
      </trkpt>
      <trkpt lat="44.39368" lon="5.52972">
        <ele>926.545</ele>
        <time>2020-02-22T12:07:42Z</time>
      </trkpt>
      <trkpt lat="44.39358" lon="5.5296">
        <ele>927.635</ele>
        <time>2020-02-22T12:07:47Z</time>
      </trkpt>
      <trkpt lat="44.39345" lon="5.52947">
        <ele>927.919</ele>
        <time>2020-02-22T12:07:53Z</time>
      </trkpt>
      <trkpt lat="44.39333" lon="5.52939">
        <ele>928.753</ele>
        <time>2020-02-22T12:07:58Z</time>
      </trkpt>
      <trkpt lat="44.39317" lon="5.52933">
        <ele>929.165</ele>
        <time>2020-02-22T12:08:04Z</time>
      </trkpt>
      <trkpt lat="44.39301" lon="5.5293">
        <ele>929.867</ele>
        <time>2020-02-22T12:08:10Z</time>
      </trkpt>
      <trkpt lat="44.3929" lon="5.52928">
        <ele>929.239</ele>
        <time>2020-02-22T12:08:15Z</time>
      </trkpt>
      <trkpt lat="44.39276" lon="5.52925">
        <ele>928.979</ele>
        <time>2020-02-22T12:08:21Z</time>
      </trkpt>
      <trkpt lat="44.39263" lon="5.52922">
        <ele>929.705</ele>
        <time>2020-02-22T12:08:26Z</time>
      </trkpt>
      <trkpt lat="44.39249" lon="5.52918">
        <ele>931.096</ele>
        <time>2020-02-22T12:08:32Z</time>
      </trkpt>
      <trkpt lat="44.39235" lon="5.52914">
        <ele>932.188</ele>
        <time>2020-02-22T12:08:37Z</time>
      </trkpt>
      <trkpt lat="44.39211" lon="5.52909">
        <ele>930.26</ele>
        <time>2020-02-22T12:08:43Z</time>
      </trkpt>
      <trkpt lat="44.39192" lon="5.52881">
        <ele>927.976</ele>
        <time>2020-02-22T12:08:48Z</time>
      </trkpt>
      <trkpt lat="44.39176" lon="5.52823">
        <ele>925.618</ele>
        <time>2020-02-22T12:08:54Z</time>
      </trkpt>
      <trkpt lat="44.39153" lon="5.52788">
        <ele>925.201</ele>
        <time>2020-02-22T12:08:59Z</time>
      </trkpt>
      <trkpt lat="44.39121" lon="5.52795">
        <ele>925.608</ele>
        <time>2020-02-22T12:09:05Z</time>
      </trkpt>
      <trkpt lat="44.39102" lon="5.52805">
        <ele>925.579</ele>
        <time>2020-02-22T12:09:10Z</time>
      </trkpt>
      <trkpt lat="44.39079" lon="5.52811">
        <ele>923.619</ele>
        <time>2020-02-22T12:09:16Z</time>
      </trkpt>
      <trkpt lat="44.39061" lon="5.52814">
        <ele>924.466</ele>
        <time>2020-02-22T12:09:21Z</time>
      </trkpt>
      <trkpt lat="44.39042" lon="5.52809">
        <ele>926.659</ele>
        <time>2020-02-22T12:09:27Z</time>
      </trkpt>
      <trkpt lat="44.39027" lon="5.52804">
        <ele>929.276</ele>
        <time>2020-02-22T12:09:32Z</time>
      </trkpt>
      <trkpt lat="44.39009" lon="5.528">
        <ele>931.001</ele>
        <time>2020-02-22T12:09:38Z</time>
      </trkpt>
      <trkpt lat="44.38993" lon="5.52795">
        <ele>930.905</ele>
        <time>2020-02-22T12:09:43Z</time>
      </trkpt>
      <trkpt lat="44.38975" lon="5.52791">
        <ele>933.888</ele>
        <time>2020-02-22T12:09:49Z</time>
      </trkpt>
      <trkpt lat="44.38959" lon="5.52789">
        <ele>934.83</ele>
        <time>2020-02-22T12:09:54Z</time>
      </trkpt>
      <trkpt lat="44.38939" lon="5.52785">
        <ele>936.239</ele>
        <time>2020-02-22T12:10:00Z</time>
      </trkpt>
      <trkpt lat="44.38918" lon="5.52783">
        <ele>936.81</ele>
        <time>2020-02-22T12:10:05Z</time>
      </trkpt>
      <trkpt lat="44.38887" lon="5.52779">
        <ele>935.36</ele>
        <time>2020-02-22T12:10:11Z</time>
      </trkpt>
      <trkpt lat="44.38858" lon="5.52772">
        <ele>932.792</ele>
        <time>2020-02-22T12:10:16Z</time>
      </trkpt>
      <trkpt lat="44.38817" lon="5.52762">
        <ele>928.9</ele>
        <time>2020-02-22T12:10:22Z</time>
      </trkpt>
      <trkpt lat="44.38771" lon="5.52757">
        <ele>926.127</ele>
        <time>2020-02-22T12:10:28Z</time>
      </trkpt>
      <trkpt lat="44.3873" lon="5.52756">
        <ele>923.398</ele>
        <time>2020-02-22T12:10:33Z</time>
      </trkpt>
      <trkpt lat="44.38688" lon="5.52749">
        <ele>922.166</ele>
        <time>2020-02-22T12:10:38Z</time>
      </trkpt>
      <trkpt lat="44.38639" lon="5.52729">
        <ele>917.981</ele>
        <time>2020-02-22T12:10:44Z</time>
      </trkpt>
      <trkpt lat="44.38595" lon="5.52701">
        <ele>915.031</ele>
        <time>2020-02-22T12:10:49Z</time>
      </trkpt>
      <trkpt lat="44.38549" lon="5.52649">
        <ele>910.364</ele>
        <time>2020-02-22T12:10:55Z</time>
      </trkpt>
      <trkpt lat="44.3852" lon="5.52589">
        <ele>906.167</ele>
        <time>2020-02-22T12:11:00Z</time>
      </trkpt>
      <trkpt lat="44.38468" lon="5.52543">
        <ele>901.19</ele>
        <time>2020-02-22T12:11:06Z</time>
      </trkpt>
      <trkpt lat="44.38425" lon="5.52502">
        <ele>897.667</ele>
        <time>2020-02-22T12:11:11Z</time>
      </trkpt>
      <trkpt lat="44.38387" lon="5.5245">
        <ele>893.626</ele>
        <time>2020-02-22T12:11:16Z</time>
      </trkpt>
      <trkpt lat="44.38341" lon="5.52386">
        <ele>888.759</ele>
        <time>2020-02-22T12:11:22Z</time>
      </trkpt>
      <trkpt lat="44.38296" lon="5.5232">
        <ele>884.514</ele>
        <time>2020-02-22T12:11:28Z</time>
      </trkpt>
      <trkpt lat="44.38266" lon="5.52257">
        <ele>880.488</ele>
        <time>2020-02-22T12:11:33Z</time>
      </trkpt>
      <trkpt lat="44.3823" lon="5.52178">
        <ele>873.379</ele>
        <time>2020-02-22T12:11:39Z</time>
      </trkpt>
      <trkpt lat="44.38209" lon="5.52118">
        <ele>868.585</ele>
        <time>2020-02-22T12:11:44Z</time>
      </trkpt>
      <trkpt lat="44.3817" lon="5.52126">
        <ele>862.224</ele>
        <time>2020-02-22T12:11:50Z</time>
      </trkpt>
      <trkpt lat="44.38137" lon="5.52114">
        <ele>856.454</ele>
        <time>2020-02-22T12:11:55Z</time>
      </trkpt>
      <trkpt lat="44.3813" lon="5.5205">
        <ele>850.652</ele>
        <time>2020-02-22T12:12:01Z</time>
      </trkpt>
      <trkpt lat="44.38145" lon="5.51988">
        <ele>846.816</ele>
        <time>2020-02-22T12:12:06Z</time>
      </trkpt>
      <trkpt lat="44.38182" lon="5.51954">
        <ele>844.322</ele>
        <time>2020-02-22T12:12:12Z</time>
      </trkpt>
      <trkpt lat="44.38178" lon="5.51924">
        <ele>840.194</ele>
        <time>2020-02-22T12:12:17Z</time>
      </trkpt>
      <trkpt lat="44.38131" lon="5.51902">
        <ele>837.244</ele>
        <time>2020-02-22T12:12:23Z</time>
      </trkpt>
      <trkpt lat="44.38089" lon="5.51907">
        <ele>833.038</ele>
        <time>2020-02-22T12:12:28Z</time>
      </trkpt>
      <trkpt lat="44.38025" lon="5.51927">
        <ele>829.199</ele>
        <time>2020-02-22T12:12:34Z</time>
      </trkpt>
      <trkpt lat="44.37968" lon="5.51932">
        <ele>823.958</ele>
        <time>2020-02-22T12:12:39Z</time>
      </trkpt>
      <trkpt lat="44.37891" lon="5.51946">
        <ele>814.979</ele>
        <time>2020-02-22T12:12:45Z</time>
      </trkpt>
      <trkpt lat="44.3784" lon="5.51956">
        <ele>810.32</ele>
        <time>2020-02-22T12:12:50Z</time>
      </trkpt>
      <trkpt lat="44.37795" lon="5.51983">
        <ele>806.681</ele>
        <time>2020-02-22T12:12:56Z</time>
      </trkpt>
      <trkpt lat="44.37769" lon="5.51997">
        <ele>803.103</ele>
        <time>2020-02-22T12:13:01Z</time>
      </trkpt>
      <trkpt lat="44.37771" lon="5.51943">
        <ele>797.745</ele>
        <time>2020-02-22T12:13:07Z</time>
      </trkpt>
      <trkpt lat="44.37775" lon="5.51888">
        <ele>796.368</ele>
        <time>2020-02-22T12:13:12Z</time>
      </trkpt>
      <trkpt lat="44.37778" lon="5.51831">
        <ele>795.869</ele>
        <time>2020-02-22T12:13:17Z</time>
      </trkpt>
      <trkpt lat="44.37766" lon="5.51766">
        <ele>792.266</ele>
        <time>2020-02-22T12:13:23Z</time>
      </trkpt>
      <trkpt lat="44.37742" lon="5.51714">
        <ele>789.918</ele>
        <time>2020-02-22T12:13:29Z</time>
      </trkpt>
      <trkpt lat="44.37741" lon="5.5166">
        <ele>784.141</ele>
        <time>2020-02-22T12:13:34Z</time>
      </trkpt>
      <trkpt lat="44.37765" lon="5.51604">
        <ele>782.57</ele>
        <time>2020-02-22T12:13:40Z</time>
      </trkpt>
      <trkpt lat="44.37774" lon="5.51559">
        <ele>783.481</ele>
        <time>2020-02-22T12:13:45Z</time>
      </trkpt>
      <trkpt lat="44.37775" lon="5.51532">
        <ele>782.597</ele>
        <time>2020-02-22T12:13:51Z</time>
      </trkpt>
      <trkpt lat="44.37775" lon="5.51529">
        <ele>782.028</ele>
        <time>2020-02-22T12:13:56Z</time>
      </trkpt>
      <trkpt lat="44.37775" lon="5.51531">
        <ele>784.228</ele>
        <time>2020-02-22T12:14:02Z</time>
      </trkpt>
      <trkpt lat="44.37778" lon="5.51539">
        <ele>784.769</ele>
        <time>2020-02-22T12:14:07Z</time>
      </trkpt>
      <trkpt lat="44.3778" lon="5.51538">
        <ele>786.199</ele>
        <time>2020-02-22T12:14:13Z</time>
      </trkpt>
      <trkpt lat="44.3778" lon="5.51538">
        <ele>786.681</ele>
        <time>2020-02-22T12:14:18Z</time>
      </trkpt>
      <trkpt lat="44.3778" lon="5.51537">
        <ele>787.752</ele>
        <time>2020-02-22T12:14:24Z</time>
      </trkpt>
      <trkpt lat="44.37779" lon="5.51531">
        <ele>784.651</ele>
        <time>2020-02-22T12:14:29Z</time>
      </trkpt>
      <trkpt lat="44.37778" lon="5.51526">
        <ele>785.005</ele>
        <time>2020-02-22T12:14:35Z</time>
      </trkpt>
      <trkpt lat="44.37777" lon="5.51525">
        <ele>786.675</ele>
        <time>2020-02-22T12:14:40Z</time>
      </trkpt>
      <trkpt lat="44.37777" lon="5.51524">
        <ele>785.532</ele>
        <time>2020-02-22T12:14:45Z</time>
      </trkpt>
      <trkpt lat="44.37777" lon="5.51524">
        <ele>785.701</ele>
        <time>2020-02-22T12:14:51Z</time>
      </trkpt>
      <trkpt lat="44.37777" lon="5.51524">
        <ele>785.727</ele>
        <time>2020-02-22T12:14:56Z</time>
      </trkpt>
      <trkpt lat="44.37777" lon="5.51524">
        <ele>785.729</ele>
        <time>2020-02-22T12:15:02Z</time>
      </trkpt>
      <trkpt lat="44.37777" lon="5.51524">
        <ele>785.735</ele>
        <time>2020-02-22T12:15:07Z</time>
      </trkpt>
      <trkpt lat="44.37777" lon="5.51524">
        <ele>785.716</ele>
        <time>2020-02-22T12:15:13Z</time>
      </trkpt>
      <trkpt lat="44.37777" lon="5.51524">
        <ele>785.72</ele>
        <time>2020-02-22T12:15:19Z</time>
      </trkpt>
      <trkpt lat="44.37777" lon="5.51524">
        <ele>785.708</ele>
        <time>2020-02-22T12:15:24Z</time>
      </trkpt>
      <trkpt lat="44.37777" lon="5.51524">
        <ele>785.74</ele>
        <time>2020-02-22T12:15:30Z</time>
      </trkpt>
      <trkpt lat="44.37777" lon="5.51524">
        <ele>785.775</ele>
        <time>2020-02-22T12:15:36Z</time>
      </trkpt>
      <trkpt lat="44.37777" lon="5.51524">
        <ele>785.767</ele>
        <time>2020-02-22T12:15:41Z</time>
      </trkpt>
      <trkpt lat="44.37777" lon="5.51527">
        <ele>786.8</ele>
        <time>2020-02-22T12:15:46Z</time>
      </trkpt>
      <trkpt lat="44.37777" lon="5.51529">
        <ele>786.282</ele>
        <time>2020-02-22T12:15:52Z</time>
      </trkpt>
      <trkpt lat="44.37773" lon="5.5153">
        <ele>783.452</ele>
        <time>2020-02-22T12:15:58Z</time>
      </trkpt>
      <trkpt lat="44.37772" lon="5.51535">
        <ele>785.413</ele>
        <time>2020-02-22T12:16:03Z</time>
      </trkpt>
      <trkpt lat="44.37773" lon="5.51535">
        <ele>786.304</ele>
        <time>2020-02-22T12:16:09Z</time>
      </trkpt>
      <trkpt lat="44.37777" lon="5.51534">
        <ele>786.917</ele>
        <time>2020-02-22T12:16:14Z</time>
      </trkpt>
      <trkpt lat="44.37781" lon="5.51536">
        <ele>786.469</ele>
        <time>2020-02-22T12:16:20Z</time>
      </trkpt>
      <trkpt lat="44.3778" lon="5.51537">
        <ele>785.382</ele>
        <time>2020-02-22T12:16:26Z</time>
      </trkpt>
      <trkpt lat="44.37781" lon="5.51538">
        <ele>785.107</ele>
        <time>2020-02-22T12:16:32Z</time>
      </trkpt>
      <trkpt lat="44.37781" lon="5.51537">
        <ele>785.749</ele>
        <time>2020-02-22T12:16:38Z</time>
      </trkpt>
      <trkpt lat="44.37786" lon="5.51538">
        <ele>786.72</ele>
        <time>2020-02-22T12:16:44Z</time>
      </trkpt>
      <trkpt lat="44.37786" lon="5.51544">
        <ele>786.97</ele>
        <time>2020-02-22T12:16:49Z</time>
      </trkpt>
      <trkpt lat="44.37786" lon="5.51544">
        <ele>787.027</ele>
        <time>2020-02-22T12:16:55Z</time>
      </trkpt>
      <trkpt lat="44.37786" lon="5.51544">
        <ele>786.737</ele>
        <time>2020-02-22T12:17:01Z</time>
      </trkpt>
      <trkpt lat="44.37786" lon="5.51544">
        <ele>786.737</ele>
        <time>2020-02-22T12:17:07Z</time>
      </trkpt>
      <trkpt lat="44.37786" lon="5.51544">
        <ele>786.736</ele>
        <time>2020-02-22T12:17:12Z</time>
      </trkpt>
      <trkpt lat="44.37786" lon="5.51544">
        <ele>786.734</ele>
        <time>2020-02-22T12:17:18Z</time>
      </trkpt>
      <trkpt lat="44.37786" lon="5.51544">
        <ele>786.732</ele>
        <time>2020-02-22T12:17:24Z</time>
      </trkpt>
      <trkpt lat="44.37786" lon="5.51544">
        <ele>786.724</ele>
        <time>2020-02-22T12:17:29Z</time>
      </trkpt>
      <trkpt lat="44.37786" lon="5.51544">
        <ele>786.717</ele>
        <time>2020-02-22T12:17:34Z</time>
      </trkpt>
      <trkpt lat="44.37785" lon="5.51544">
        <ele>786.974</ele>
        <time>2020-02-22T12:17:40Z</time>
      </trkpt>
      <trkpt lat="44.37784" lon="5.51544">
        <ele>785.651</ele>
        <time>2020-02-22T12:17:46Z</time>
      </trkpt>
      <trkpt lat="44.37784" lon="5.51544">
        <ele>786.464</ele>
        <time>2020-02-22T12:17:51Z</time>
      </trkpt>
      <trkpt lat="44.37784" lon="5.51544">
        <ele>785.735</ele>
        <time>2020-02-22T12:17:56Z</time>
      </trkpt>
      <trkpt lat="44.37785" lon="5.51543">
        <ele>786.521</ele>
        <time>2020-02-22T12:18:02Z</time>
      </trkpt>
      <trkpt lat="44.37785" lon="5.51544">
        <ele>786.814</ele>
        <time>2020-02-22T12:18:07Z</time>
      </trkpt>
      <trkpt lat="44.37785" lon="5.51544">
        <ele>786.816</ele>
        <time>2020-02-22T12:18:12Z</time>
      </trkpt>
      <trkpt lat="44.37785" lon="5.51544">
        <ele>786.835</ele>
        <time>2020-02-22T12:18:18Z</time>
      </trkpt>
      <trkpt lat="44.37785" lon="5.51544">
        <ele>786.842</ele>
        <time>2020-02-22T12:18:24Z</time>
      </trkpt>
      <trkpt lat="44.37785" lon="5.51544">
        <ele>786.833</ele>
        <time>2020-02-22T12:18:30Z</time>
      </trkpt>
      <trkpt lat="44.37785" lon="5.51544">
        <ele>786.838</ele>
        <time>2020-02-22T12:18:35Z</time>
      </trkpt>
      <trkpt lat="44.37785" lon="5.51544">
        <ele>786.831</ele>
        <time>2020-02-22T12:18:40Z</time>
      </trkpt>
      <trkpt lat="44.37785" lon="5.51544">
        <ele>786.832</ele>
        <time>2020-02-22T12:18:46Z</time>
      </trkpt>
      <trkpt lat="44.37785" lon="5.51544">
        <ele>786.816</ele>
        <time>2020-02-22T12:18:51Z</time>
      </trkpt>
      <trkpt lat="44.37785" lon="5.51544">
        <ele>786.82</ele>
        <time>2020-02-22T12:18:57Z</time>
      </trkpt>
      <trkpt lat="44.37785" lon="5.51544">
        <ele>786.79</ele>
        <time>2020-02-22T12:19:02Z</time>
      </trkpt>
      <trkpt lat="44.37785" lon="5.51544">
        <ele>786.763</ele>
        <time>2020-02-22T12:19:08Z</time>
      </trkpt>
      <trkpt lat="44.37785" lon="5.51544">
        <ele>786.745</ele>
        <time>2020-02-22T12:19:13Z</time>
      </trkpt>
      <trkpt lat="44.37785" lon="5.51544">
        <ele>786.758</ele>
        <time>2020-02-22T12:19:18Z</time>
      </trkpt>
      <trkpt lat="44.37785" lon="5.51544">
        <ele>786.771</ele>
        <time>2020-02-22T12:19:24Z</time>
      </trkpt>
      <trkpt lat="44.37785" lon="5.51544">
        <ele>786.768</ele>
        <time>2020-02-22T12:19:29Z</time>
      </trkpt>
      <trkpt lat="44.37785" lon="5.51544">
        <ele>786.77</ele>
        <time>2020-02-22T12:19:34Z</time>
      </trkpt>
      <trkpt lat="44.37785" lon="5.51544">
        <ele>786.765</ele>
        <time>2020-02-22T12:19:40Z</time>
      </trkpt>
      <trkpt lat="44.37785" lon="5.51544">
        <ele>786.767</ele>
        <time>2020-02-22T12:19:45Z</time>
      </trkpt>
      <trkpt lat="44.37785" lon="5.51544">
        <ele>786.768</ele>
        <time>2020-02-22T12:19:51Z</time>
      </trkpt>
      <trkpt lat="44.37785" lon="5.51544">
        <ele>786.799</ele>
        <time>2020-02-22T12:19:56Z</time>
      </trkpt>
      <trkpt lat="44.37785" lon="5.51544">
        <ele>786.79</ele>
        <time>2020-02-22T12:20:01Z</time>
      </trkpt>
      <trkpt lat="44.37785" lon="5.51544">
        <ele>786.803</ele>
        <time>2020-02-22T12:20:07Z</time>
      </trkpt>
      <trkpt lat="44.37785" lon="5.51544">
        <ele>786.789</ele>
        <time>2020-02-22T12:20:13Z</time>
      </trkpt>
      <trkpt lat="44.37785" lon="5.51544">
        <ele>786.784</ele>
        <time>2020-02-22T12:20:18Z</time>
      </trkpt>
      <trkpt lat="44.37785" lon="5.51544">
        <ele>786.771</ele>
        <time>2020-02-22T12:20:24Z</time>
      </trkpt>
      <trkpt lat="44.37785" lon="5.51544">
        <ele>786.767</ele>
        <time>2020-02-22T12:20:29Z</time>
      </trkpt>
      <trkpt lat="44.37785" lon="5.51544">
        <ele>786.762</ele>
        <time>2020-02-22T12:20:35Z</time>
      </trkpt>
      <trkpt lat="44.37785" lon="5.51544">
        <ele>786.769</ele>
        <time>2020-02-22T12:20:40Z</time>
      </trkpt>
      <trkpt lat="44.37785" lon="5.51544">
        <ele>786.76</ele>
        <time>2020-02-22T12:20:46Z</time>
      </trkpt>
      <trkpt lat="44.37785" lon="5.51544">
        <ele>786.756</ele>
        <time>2020-02-22T12:20:51Z</time>
      </trkpt>
      <trkpt lat="44.37785" lon="5.51544">
        <ele>786.738</ele>
        <time>2020-02-22T12:20:57Z</time>
      </trkpt>
      <trkpt lat="44.37785" lon="5.51544">
        <ele>786.732</ele>
        <time>2020-02-22T12:21:02Z</time>
      </trkpt>
      <trkpt lat="44.37785" lon="5.51544">
        <ele>786.731</ele>
        <time>2020-02-22T12:21:08Z</time>
      </trkpt>
      <trkpt lat="44.37785" lon="5.51544">
        <ele>786.728</ele>
        <time>2020-02-22T12:21:13Z</time>
      </trkpt>
      <trkpt lat="44.37785" lon="5.51544">
        <ele>786.727</ele>
        <time>2020-02-22T12:21:19Z</time>
      </trkpt>
      <trkpt lat="44.37785" lon="5.51544">
        <ele>786.725</ele>
        <time>2020-02-22T12:21:24Z</time>
      </trkpt>
      <trkpt lat="44.37785" lon="5.51544">
        <ele>786.72</ele>
        <time>2020-02-22T12:21:30Z</time>
      </trkpt>
      <trkpt lat="44.37785" lon="5.51544">
        <ele>786.721</ele>
        <time>2020-02-22T12:21:35Z</time>
      </trkpt>
      <trkpt lat="44.37785" lon="5.51544">
        <ele>786.701</ele>
        <time>2020-02-22T12:21:41Z</time>
      </trkpt>
      <trkpt lat="44.37785" lon="5.51544">
        <ele>786.703</ele>
        <time>2020-02-22T12:21:46Z</time>
      </trkpt>
      <trkpt lat="44.37785" lon="5.51544">
        <ele>786.708</ele>
        <time>2020-02-22T12:21:52Z</time>
      </trkpt>
      <trkpt lat="44.37785" lon="5.51544">
        <ele>786.716</ele>
        <time>2020-02-22T12:21:57Z</time>
      </trkpt>
      <trkpt lat="44.37784" lon="5.51542">
        <ele>785.206</ele>
        <time>2020-02-22T12:22:03Z</time>
      </trkpt>
      <trkpt lat="44.37785" lon="5.51539">
        <ele>784.142</ele>
        <time>2020-02-22T12:22:08Z</time>
      </trkpt>
      <trkpt lat="44.37783" lon="5.51534">
        <ele>783.921</ele>
        <time>2020-02-22T12:22:14Z</time>
      </trkpt>
      <trkpt lat="44.37779" lon="5.51537">
        <ele>782.909</ele>
        <time>2020-02-22T12:22:19Z</time>
      </trkpt>
      <trkpt lat="44.37779" lon="5.51538">
        <ele>783.5</ele>
        <time>2020-02-22T12:22:25Z</time>
      </trkpt>
      <trkpt lat="44.37779" lon="5.51539">
        <ele>783.455</ele>
        <time>2020-02-22T12:22:30Z</time>
      </trkpt>
      <trkpt lat="44.37778" lon="5.51539">
        <ele>782.548</ele>
        <time>2020-02-22T12:22:36Z</time>
      </trkpt>
      <trkpt lat="44.37778" lon="5.51538">
        <ele>782.554</ele>
        <time>2020-02-22T12:22:41Z</time>
      </trkpt>
      <trkpt lat="44.37778" lon="5.51538">
        <ele>782.615</ele>
        <time>2020-02-22T12:22:47Z</time>
      </trkpt>
      <trkpt lat="44.37778" lon="5.51538">
        <ele>782.54</ele>
        <time>2020-02-22T12:22:52Z</time>
      </trkpt>
      <trkpt lat="44.37778" lon="5.51538">
        <ele>782.539</ele>
        <time>2020-02-22T12:22:58Z</time>
      </trkpt>
      <trkpt lat="44.37778" lon="5.51538">
        <ele>782.539</ele>
        <time>2020-02-22T12:23:03Z</time>
      </trkpt>
      <trkpt lat="44.37778" lon="5.51538">
        <ele>782.53</ele>
        <time>2020-02-22T12:23:09Z</time>
      </trkpt>
      <trkpt lat="44.37778" lon="5.51538">
        <ele>782.589</ele>
        <time>2020-02-22T12:23:15Z</time>
      </trkpt>
      <trkpt lat="44.37778" lon="5.51538">
        <ele>782.237</ele>
        <time>2020-02-22T12:23:20Z</time>
      </trkpt>
      <trkpt lat="44.37778" lon="5.51538">
        <ele>782.24</ele>
        <time>2020-02-22T12:23:26Z</time>
      </trkpt>
      <trkpt lat="44.37778" lon="5.51538">
        <ele>782.223</ele>
        <time>2020-02-22T12:23:32Z</time>
      </trkpt>
      <trkpt lat="44.37778" lon="5.51539">
        <ele>782.244</ele>
        <time>2020-02-22T12:23:37Z</time>
      </trkpt>
      <trkpt lat="44.37777" lon="5.51536">
        <ele>782.116</ele>
        <time>2020-02-22T12:23:43Z</time>
      </trkpt>
      <trkpt lat="44.37772" lon="5.51529">
        <ele>782.492</ele>
        <time>2020-02-22T12:23:48Z</time>
      </trkpt>
      <trkpt lat="44.37758" lon="5.51518">
        <ele>781.775</ele>
        <time>2020-02-22T12:23:53Z</time>
      </trkpt>
      <trkpt lat="44.37741" lon="5.51503">
        <ele>781.299</ele>
        <time>2020-02-22T12:23:58Z</time>
      </trkpt>
      <trkpt lat="44.37738" lon="5.51497">
        <ele>780.009</ele>
        <time>2020-02-22T12:24:04Z</time>
      </trkpt>
      <trkpt lat="44.37738" lon="5.51498">
        <ele>781.019</ele>
        <time>2020-02-22T12:24:09Z</time>
      </trkpt>
      <trkpt lat="44.37738" lon="5.51498">
        <ele>780.995</ele>
        <time>2020-02-22T12:24:14Z</time>
      </trkpt>
      <trkpt lat="44.37739" lon="5.51499">
        <ele>780.98</ele>
        <time>2020-02-22T12:24:20Z</time>
      </trkpt>
      <trkpt lat="44.37738" lon="5.51498">
        <ele>781.725</ele>
        <time>2020-02-22T12:24:26Z</time>
      </trkpt>
      <trkpt lat="44.37738" lon="5.51498">
        <ele>781.9</ele>
        <time>2020-02-22T12:24:31Z</time>
      </trkpt>
      <trkpt lat="44.37734" lon="5.51494">
        <ele>781.51</ele>
        <time>2020-02-22T12:24:37Z</time>
      </trkpt>
      <trkpt lat="44.37734" lon="5.51492">
        <ele>779.608</ele>
        <time>2020-02-22T12:24:42Z</time>
      </trkpt>
      <trkpt lat="44.37736" lon="5.51492">
        <ele>780.606</ele>
        <time>2020-02-22T12:24:47Z</time>
      </trkpt>
      <trkpt lat="44.37736" lon="5.51491">
        <ele>780.625</ele>
        <time>2020-02-22T12:24:53Z</time>
      </trkpt>
      <trkpt lat="44.37736" lon="5.51491">
        <ele>781.644</ele>
        <time>2020-02-22T12:24:58Z</time>
      </trkpt>
      <trkpt lat="44.37736" lon="5.51491">
        <ele>781.711</ele>
        <time>2020-02-22T12:25:04Z</time>
      </trkpt>
      <trkpt lat="44.37736" lon="5.51491">
        <ele>781.702</ele>
        <time>2020-02-22T12:25:09Z</time>
      </trkpt>
      <trkpt lat="44.37735" lon="5.51491">
        <ele>781.712</ele>
        <time>2020-02-22T12:25:15Z</time>
      </trkpt>
      <trkpt lat="44.37735" lon="5.51492">
        <ele>780.402</ele>
        <time>2020-02-22T12:25:21Z</time>
      </trkpt>
      <trkpt lat="44.37734" lon="5.51492">
        <ele>780.372</ele>
        <time>2020-02-22T12:25:27Z</time>
      </trkpt>
      <trkpt lat="44.37734" lon="5.51491">
        <ele>780.499</ele>
        <time>2020-02-22T12:25:32Z</time>
      </trkpt>
      <trkpt lat="44.37733" lon="5.51491">
        <ele>780.746</ele>
        <time>2020-02-22T12:25:37Z</time>
      </trkpt>
      <trkpt lat="44.37733" lon="5.51492">
        <ele>780.089</ele>
        <time>2020-02-22T12:25:43Z</time>
      </trkpt>
      <trkpt lat="44.3773" lon="5.5149">
        <ele>780.271</ele>
        <time>2020-02-22T12:25:48Z</time>
      </trkpt>
      <trkpt lat="44.37722" lon="5.51482">
        <ele>780.304</ele>
        <time>2020-02-22T12:25:53Z</time>
      </trkpt>
      <trkpt lat="44.37712" lon="5.51471">
        <ele>779.807</ele>
        <time>2020-02-22T12:25:58Z</time>
      </trkpt>
      <trkpt lat="44.377" lon="5.51459">
        <ele>779.544</ele>
        <time>2020-02-22T12:26:04Z</time>
      </trkpt>
      <trkpt lat="44.37694" lon="5.51448">
        <ele>779.267</ele>
        <time>2020-02-22T12:26:10Z</time>
      </trkpt>
      <trkpt lat="44.37697" lon="5.51436">
        <ele>779.049</ele>
        <time>2020-02-22T12:26:15Z</time>
      </trkpt>
      <trkpt lat="44.37704" lon="5.51425">
        <ele>777.021</ele>
        <time>2020-02-22T12:26:21Z</time>
      </trkpt>
      <trkpt lat="44.37712" lon="5.5141">
        <ele>777.509</ele>
        <time>2020-02-22T12:26:27Z</time>
      </trkpt>
      <trkpt lat="44.3772" lon="5.51391">
        <ele>776.86</ele>
        <time>2020-02-22T12:26:33Z</time>
      </trkpt>
      <trkpt lat="44.37728" lon="5.51375">
        <ele>776.96</ele>
        <time>2020-02-22T12:26:38Z</time>
      </trkpt>
      <trkpt lat="44.37745" lon="5.51358">
        <ele>779.091</ele>
        <time>2020-02-22T12:26:44Z</time>
      </trkpt>
      <trkpt lat="44.37765" lon="5.51343">
        <ele>778.515</ele>
        <time>2020-02-22T12:26:49Z</time>
      </trkpt>
      <trkpt lat="44.37786" lon="5.51332">
        <ele>778.893</ele>
        <time>2020-02-22T12:26:55Z</time>
      </trkpt>
      <trkpt lat="44.37799" lon="5.51327">
        <ele>777.677</ele>
        <time>2020-02-22T12:27:01Z</time>
      </trkpt>
      <trkpt lat="44.37804" lon="5.5133">
        <ele>779.434</ele>
        <time>2020-02-22T12:27:06Z</time>
      </trkpt>
      <trkpt lat="44.37793" lon="5.51331">
        <ele>779.564</ele>
        <time>2020-02-22T12:27:12Z</time>
      </trkpt>
      <trkpt lat="44.37782" lon="5.51335">
        <ele>779.877</ele>
        <time>2020-02-22T12:27:17Z</time>
      </trkpt>
      <trkpt lat="44.37767" lon="5.51342">
        <ele>780.535</ele>
        <time>2020-02-22T12:27:23Z</time>
      </trkpt>
      <trkpt lat="44.37755" lon="5.51352">
        <ele>780.784</ele>
        <time>2020-02-22T12:27:28Z</time>
      </trkpt>
      <trkpt lat="44.37738" lon="5.51359">
        <ele>781.627</ele>
        <time>2020-02-22T12:27:34Z</time>
      </trkpt>
      <trkpt lat="44.37729" lon="5.51367">
        <ele>779.597</ele>
        <time>2020-02-22T12:27:39Z</time>
      </trkpt>
      <trkpt lat="44.37717" lon="5.51391">
        <ele>780.686</ele>
        <time>2020-02-22T12:27:45Z</time>
      </trkpt>
      <trkpt lat="44.37705" lon="5.5142">
        <ele>779.255</ele>
        <time>2020-02-22T12:27:51Z</time>
      </trkpt>
      <trkpt lat="44.37698" lon="5.51439">
        <ele>773.809</ele>
        <time>2020-02-22T12:27:56Z</time>
      </trkpt>
      <trkpt lat="44.37694" lon="5.51453">
        <ele>775.849</ele>
        <time>2020-02-22T12:28:02Z</time>
      </trkpt>
      <trkpt lat="44.37692" lon="5.5146">
        <ele>775.066</ele>
        <time>2020-02-22T12:28:08Z</time>
      </trkpt>
      <trkpt lat="44.37692" lon="5.51459">
        <ele>778.29</ele>
        <time>2020-02-22T12:28:14Z</time>
      </trkpt>
      <trkpt lat="44.37692" lon="5.51458">
        <ele>777.735</ele>
        <time>2020-02-22T12:28:20Z</time>
      </trkpt>
      <trkpt lat="44.37691" lon="5.51458">
        <ele>779.951</ele>
        <time>2020-02-22T12:28:26Z</time>
      </trkpt>
      <trkpt lat="44.37691" lon="5.51458">
        <ele>780.635</ele>
        <time>2020-02-22T12:28:32Z</time>
      </trkpt>
      <trkpt lat="44.37691" lon="5.51458">
        <ele>780.645</ele>
        <time>2020-02-22T12:28:38Z</time>
      </trkpt>
      <trkpt lat="44.37691" lon="5.51458">
        <ele>780.655</ele>
        <time>2020-02-22T12:28:43Z</time>
      </trkpt>
      <trkpt lat="44.3769" lon="5.51458">
        <ele>780.678</ele>
        <time>2020-02-22T12:28:49Z</time>
      </trkpt>
      <trkpt lat="44.3769" lon="5.51458">
        <ele>780.696</ele>
        <time>2020-02-22T12:28:54Z</time>
      </trkpt>
      <trkpt lat="44.3769" lon="5.51458">
        <ele>780.719</ele>
        <time>2020-02-22T12:28:59Z</time>
      </trkpt>
      <trkpt lat="44.37691" lon="5.51458">
        <ele>780.743</ele>
        <time>2020-02-22T12:29:05Z</time>
      </trkpt>
      <trkpt lat="44.37691" lon="5.51458">
        <ele>780.739</ele>
        <time>2020-02-22T12:29:10Z</time>
      </trkpt>
      <trkpt lat="44.37691" lon="5.51458">
        <ele>780.762</ele>
        <time>2020-02-22T12:29:16Z</time>
      </trkpt>
      <trkpt lat="44.3769" lon="5.51458">
        <ele>780.76</ele>
        <time>2020-02-22T12:29:21Z</time>
      </trkpt>
      <trkpt lat="44.3769" lon="5.51458">
        <ele>780.781</ele>
        <time>2020-02-22T12:29:27Z</time>
      </trkpt>
      <trkpt lat="44.3769" lon="5.51458">
        <ele>780.772</ele>
        <time>2020-02-22T12:29:33Z</time>
      </trkpt>
      <trkpt lat="44.3769" lon="5.51458">
        <ele>780.775</ele>
        <time>2020-02-22T12:29:39Z</time>
      </trkpt>
      <trkpt lat="44.3769" lon="5.51458">
        <ele>780.791</ele>
        <time>2020-02-22T12:29:45Z</time>
      </trkpt>
      <trkpt lat="44.3769" lon="5.51458">
        <ele>780.779</ele>
        <time>2020-02-22T12:29:51Z</time>
      </trkpt>
      <trkpt lat="44.3769" lon="5.51458">
        <ele>780.776</ele>
        <time>2020-02-22T12:29:57Z</time>
      </trkpt>
      <trkpt lat="44.3769" lon="5.51458">
        <ele>780.774</ele>
        <time>2020-02-22T12:30:03Z</time>
      </trkpt>
      <trkpt lat="44.3769" lon="5.51458">
        <ele>780.791</ele>
        <time>2020-02-22T12:30:09Z</time>
      </trkpt>
      <trkpt lat="44.37688" lon="5.51462">
        <ele>780.079</ele>
        <time>2020-02-22T12:30:15Z</time>
      </trkpt>
      <trkpt lat="44.37683" lon="5.51475">
        <ele>781.282</ele>
        <time>2020-02-22T12:30:20Z</time>
      </trkpt>
      <trkpt lat="44.37671" lon="5.51504">
        <ele>780.145</ele>
        <time>2020-02-22T12:30:26Z</time>
      </trkpt>
      <trkpt lat="44.37654" lon="5.51547">
        <ele>778.153</ele>
        <time>2020-02-22T12:30:32Z</time>
      </trkpt>
      <trkpt lat="44.37631" lon="5.51599">
        <ele>773.837</ele>
        <time>2020-02-22T12:30:38Z</time>
      </trkpt>
      <trkpt lat="44.37612" lon="5.51646">
        <ele>771.993</ele>
        <time>2020-02-22T12:30:43Z</time>
      </trkpt>
      <trkpt lat="44.37588" lon="5.51705">
        <ele>769.787</ele>
        <time>2020-02-22T12:30:49Z</time>
      </trkpt>
      <trkpt lat="44.37565" lon="5.51758">
        <ele>769.227</ele>
        <time>2020-02-22T12:30:54Z</time>
      </trkpt>
      <trkpt lat="44.37535" lon="5.51803">
        <ele>769.848</ele>
        <time>2020-02-22T12:30:59Z</time>
      </trkpt>
      <trkpt lat="44.37496" lon="5.51858">
        <ele>767.381</ele>
        <time>2020-02-22T12:31:05Z</time>
      </trkpt>
      <trkpt lat="44.3745" lon="5.51919">
        <ele>763.401</ele>
        <time>2020-02-22T12:31:11Z</time>
      </trkpt>
      <trkpt lat="44.37401" lon="5.51981">
        <ele>760.361</ele>
        <time>2020-02-22T12:31:17Z</time>
      </trkpt>
      <trkpt lat="44.37352" lon="5.52028">
        <ele>761.75</ele>
        <time>2020-02-22T12:31:23Z</time>
      </trkpt>
      <trkpt lat="44.37312" lon="5.52073">
        <ele>759.767</ele>
        <time>2020-02-22T12:31:29Z</time>
      </trkpt>
      <trkpt lat="44.37285" lon="5.52121">
        <ele>757.55</ele>
        <time>2020-02-22T12:31:34Z</time>
      </trkpt>
      <trkpt lat="44.37257" lon="5.52183">
        <ele>756.223</ele>
        <time>2020-02-22T12:31:40Z</time>
      </trkpt>
      <trkpt lat="44.37231" lon="5.52243">
        <ele>755.344</ele>
        <time>2020-02-22T12:31:46Z</time>
      </trkpt>
      <trkpt lat="44.37195" lon="5.52284">
        <ele>755.487</ele>
        <time>2020-02-22T12:31:52Z</time>
      </trkpt>
      <trkpt lat="44.37165" lon="5.52313">
        <ele>754.452</ele>
        <time>2020-02-22T12:31:57Z</time>
      </trkpt>
      <trkpt lat="44.37132" lon="5.52343">
        <ele>753.746</ele>
        <time>2020-02-22T12:32:02Z</time>
      </trkpt>
      <trkpt lat="44.37089" lon="5.52371">
        <ele>751.049</ele>
        <time>2020-02-22T12:32:08Z</time>
      </trkpt>
      <trkpt lat="44.37042" lon="5.52394">
        <ele>750.61</ele>
        <time>2020-02-22T12:32:14Z</time>
      </trkpt>
      <trkpt lat="44.37" lon="5.52404">
        <ele>752.832</ele>
        <time>2020-02-22T12:32:19Z</time>
      </trkpt>
      <trkpt lat="44.3695" lon="5.52417">
        <ele>752.082</ele>
        <time>2020-02-22T12:32:25Z</time>
      </trkpt>
      <trkpt lat="44.36919" lon="5.52447">
        <ele>750.97</ele>
        <time>2020-02-22T12:32:30Z</time>
      </trkpt>
      <trkpt lat="44.36946" lon="5.52494">
        <ele>751.201</ele>
        <time>2020-02-22T12:32:36Z</time>
      </trkpt>
      <trkpt lat="44.36986" lon="5.52501">
        <ele>751.533</ele>
        <time>2020-02-22T12:32:41Z</time>
      </trkpt>
      <trkpt lat="44.37039" lon="5.52508">
        <ele>751.004</ele>
        <time>2020-02-22T12:32:47Z</time>
      </trkpt>
      <trkpt lat="44.37077" lon="5.52541">
        <ele>745.641</ele>
        <time>2020-02-22T12:32:52Z</time>
      </trkpt>
      <trkpt lat="44.37078" lon="5.52616">
        <ele>743.333</ele>
        <time>2020-02-22T12:32:58Z</time>
      </trkpt>
      <trkpt lat="44.37096" lon="5.52674">
        <ele>737.392</ele>
        <time>2020-02-22T12:33:03Z</time>
      </trkpt>
      <trkpt lat="44.37114" lon="5.52751">
        <ele>736.067</ele>
        <time>2020-02-22T12:33:09Z</time>
      </trkpt>
      <trkpt lat="44.37131" lon="5.52826">
        <ele>729.392</ele>
        <time>2020-02-22T12:33:15Z</time>
      </trkpt>
      <trkpt lat="44.37124" lon="5.52904">
        <ele>723.609</ele>
        <time>2020-02-22T12:33:21Z</time>
      </trkpt>
      <trkpt lat="44.37121" lon="5.52973">
        <ele>720.94</ele>
        <time>2020-02-22T12:33:26Z</time>
      </trkpt>
      <trkpt lat="44.37091" lon="5.53028">
        <ele>719.347</ele>
        <time>2020-02-22T12:33:31Z</time>
      </trkpt>
      <trkpt lat="44.37109" lon="5.53103">
        <ele>717.151</ele>
        <time>2020-02-22T12:33:37Z</time>
      </trkpt>
      <trkpt lat="44.37127" lon="5.5316">
        <ele>715.667</ele>
        <time>2020-02-22T12:33:42Z</time>
      </trkpt>
      <trkpt lat="44.37139" lon="5.53233">
        <ele>713.972</ele>
        <time>2020-02-22T12:33:48Z</time>
      </trkpt>
      <trkpt lat="44.37102" lon="5.5329">
        <ele>712.316</ele>
        <time>2020-02-22T12:33:54Z</time>
      </trkpt>
      <trkpt lat="44.37071" lon="5.53324">
        <ele>712.216</ele>
        <time>2020-02-22T12:33:59Z</time>
      </trkpt>
      <trkpt lat="44.37033" lon="5.5332">
        <ele>711.694</ele>
        <time>2020-02-22T12:34:05Z</time>
      </trkpt>
      <trkpt lat="44.37013" lon="5.53299">
        <ele>714.296</ele>
        <time>2020-02-22T12:34:10Z</time>
      </trkpt>
      <trkpt lat="44.3699" lon="5.53283">
        <ele>717.6</ele>
        <time>2020-02-22T12:34:16Z</time>
      </trkpt>
      <trkpt lat="44.3697" lon="5.53288">
        <ele>717.983</ele>
        <time>2020-02-22T12:34:21Z</time>
      </trkpt>
      <trkpt lat="44.36953" lon="5.53311">
        <ele>719.587</ele>
        <time>2020-02-22T12:34:27Z</time>
      </trkpt>
      <trkpt lat="44.3694" lon="5.53331">
        <ele>718.906</ele>
        <time>2020-02-22T12:34:32Z</time>
      </trkpt>
      <trkpt lat="44.36923" lon="5.53354">
        <ele>720.62</ele>
        <time>2020-02-22T12:34:38Z</time>
      </trkpt>
      <trkpt lat="44.3691" lon="5.53371">
        <ele>721.475</ele>
        <time>2020-02-22T12:34:43Z</time>
      </trkpt>
      <trkpt lat="44.36894" lon="5.53397">
        <ele>721.711</ele>
        <time>2020-02-22T12:34:49Z</time>
      </trkpt>
      <trkpt lat="44.36883" lon="5.53419">
        <ele>721.946</ele>
        <time>2020-02-22T12:34:54Z</time>
      </trkpt>
      <trkpt lat="44.36876" lon="5.53452">
        <ele>721.725</ele>
        <time>2020-02-22T12:35:00Z</time>
      </trkpt>
      <trkpt lat="44.36869" lon="5.53486">
        <ele>722.465</ele>
        <time>2020-02-22T12:35:06Z</time>
      </trkpt>
      <trkpt lat="44.36861" lon="5.53514">
        <ele>723.416</ele>
        <time>2020-02-22T12:35:11Z</time>
      </trkpt>
      <trkpt lat="44.36851" lon="5.53543">
        <ele>724.003</ele>
        <time>2020-02-22T12:35:17Z</time>
      </trkpt>
      <trkpt lat="44.36843" lon="5.53566">
        <ele>724.562</ele>
        <time>2020-02-22T12:35:22Z</time>
      </trkpt>
      <trkpt lat="44.36833" lon="5.53596">
        <ele>724.58</ele>
        <time>2020-02-22T12:35:28Z</time>
      </trkpt>
      <trkpt lat="44.36824" lon="5.5362">
        <ele>724.568</ele>
        <time>2020-02-22T12:35:33Z</time>
      </trkpt>
      <trkpt lat="44.36814" lon="5.53649">
        <ele>724.556</ele>
        <time>2020-02-22T12:35:39Z</time>
      </trkpt>
      <trkpt lat="44.36804" lon="5.53675">
        <ele>725.041</ele>
        <time>2020-02-22T12:35:44Z</time>
      </trkpt>
      <trkpt lat="44.3679" lon="5.537">
        <ele>725.888</ele>
        <time>2020-02-22T12:35:49Z</time>
      </trkpt>
      <trkpt lat="44.36769" lon="5.53729">
        <ele>726.381</ele>
        <time>2020-02-22T12:35:55Z</time>
      </trkpt>
      <trkpt lat="44.36747" lon="5.53746">
        <ele>729.285</ele>
        <time>2020-02-22T12:36:01Z</time>
      </trkpt>
      <trkpt lat="44.36733" lon="5.53763">
        <ele>731.043</ele>
        <time>2020-02-22T12:36:06Z</time>
      </trkpt>
      <trkpt lat="44.36721" lon="5.53787">
        <ele>730.681</ele>
        <time>2020-02-22T12:36:12Z</time>
      </trkpt>
      <trkpt lat="44.36712" lon="5.53809">
        <ele>730.463</ele>
        <time>2020-02-22T12:36:17Z</time>
      </trkpt>
      <trkpt lat="44.36704" lon="5.5384">
        <ele>730.118</ele>
        <time>2020-02-22T12:36:23Z</time>
      </trkpt>
      <trkpt lat="44.36699" lon="5.53864">
        <ele>729.926</ele>
        <time>2020-02-22T12:36:28Z</time>
      </trkpt>
      <trkpt lat="44.367" lon="5.53894">
        <ele>730.356</ele>
        <time>2020-02-22T12:36:34Z</time>
      </trkpt>
      <trkpt lat="44.36707" lon="5.53922">
        <ele>732.32</ele>
        <time>2020-02-22T12:36:40Z</time>
      </trkpt>
      <trkpt lat="44.36718" lon="5.53942">
        <ele>733.035</ele>
        <time>2020-02-22T12:36:45Z</time>
      </trkpt>
      <trkpt lat="44.36733" lon="5.53965">
        <ele>733.459</ele>
        <time>2020-02-22T12:36:51Z</time>
      </trkpt>
      <trkpt lat="44.36745" lon="5.53984">
        <ele>733.73</ele>
        <time>2020-02-22T12:36:56Z</time>
      </trkpt>
      <trkpt lat="44.36758" lon="5.54008">
        <ele>734.473</ele>
        <time>2020-02-22T12:37:02Z</time>
      </trkpt>
      <trkpt lat="44.3676" lon="5.54033">
        <ele>734.791</ele>
        <time>2020-02-22T12:37:07Z</time>
      </trkpt>
      <trkpt lat="44.3676" lon="5.54064">
        <ele>736.189</ele>
        <time>2020-02-22T12:37:13Z</time>
      </trkpt>
      <trkpt lat="44.36762" lon="5.54089">
        <ele>737.862</ele>
        <time>2020-02-22T12:37:18Z</time>
      </trkpt>
      <trkpt lat="44.36764" lon="5.54118">
        <ele>738.42</ele>
        <time>2020-02-22T12:37:24Z</time>
      </trkpt>
      <trkpt lat="44.36764" lon="5.54142">
        <ele>739.642</ele>
        <time>2020-02-22T12:37:29Z</time>
      </trkpt>
      <trkpt lat="44.36763" lon="5.54176">
        <ele>739.288</ele>
        <time>2020-02-22T12:37:35Z</time>
      </trkpt>
      <trkpt lat="44.36759" lon="5.54203">
        <ele>739.655</ele>
        <time>2020-02-22T12:37:40Z</time>
      </trkpt>
      <trkpt lat="44.36755" lon="5.54237">
        <ele>741.195</ele>
        <time>2020-02-22T12:37:46Z</time>
      </trkpt>
      <trkpt lat="44.36753" lon="5.54264">
        <ele>741.636</ele>
        <time>2020-02-22T12:37:51Z</time>
      </trkpt>
      <trkpt lat="44.36749" lon="5.54294">
        <ele>743.015</ele>
        <time>2020-02-22T12:37:57Z</time>
      </trkpt>
      <trkpt lat="44.36748" lon="5.54317">
        <ele>742.707</ele>
        <time>2020-02-22T12:38:02Z</time>
      </trkpt>
      <trkpt lat="44.36751" lon="5.54346">
        <ele>744.831</ele>
        <time>2020-02-22T12:38:08Z</time>
      </trkpt>
      <trkpt lat="44.36757" lon="5.54373">
        <ele>745.719</ele>
        <time>2020-02-22T12:38:13Z</time>
      </trkpt>
      <trkpt lat="44.36769" lon="5.54405">
        <ele>746.022</ele>
        <time>2020-02-22T12:38:19Z</time>
      </trkpt>
      <trkpt lat="44.36778" lon="5.54434">
        <ele>746.265</ele>
        <time>2020-02-22T12:38:24Z</time>
      </trkpt>
      <trkpt lat="44.36787" lon="5.54471">
        <ele>747.827</ele>
        <time>2020-02-22T12:38:30Z</time>
      </trkpt>
      <trkpt lat="44.36796" lon="5.54501">
        <ele>747.222</ele>
        <time>2020-02-22T12:38:35Z</time>
      </trkpt>
      <trkpt lat="44.36811" lon="5.54537">
        <ele>748.847</ele>
        <time>2020-02-22T12:38:41Z</time>
      </trkpt>
      <trkpt lat="44.36823" lon="5.54564">
        <ele>748.029</ele>
        <time>2020-02-22T12:38:46Z</time>
      </trkpt>
      <trkpt lat="44.36833" lon="5.54593">
        <ele>748.83</ele>
        <time>2020-02-22T12:38:52Z</time>
      </trkpt>
      <trkpt lat="44.36834" lon="5.54597">
        <ele>748.903</ele>
        <time>2020-02-22T12:38:57Z</time>
      </trkpt>
      <trkpt lat="44.36834" lon="5.54595">
        <ele>747.519</ele>
        <time>2020-02-22T12:39:03Z</time>
      </trkpt>
      <trkpt lat="44.36834" lon="5.54595">
        <ele>747.474</ele>
        <time>2020-02-22T12:39:08Z</time>
      </trkpt>
      <trkpt lat="44.36834" lon="5.54596">
        <ele>747.139</ele>
        <time>2020-02-22T12:39:14Z</time>
      </trkpt>
      <trkpt lat="44.3684" lon="5.54603">
        <ele>746.113</ele>
        <time>2020-02-22T12:39:19Z</time>
      </trkpt>
      <trkpt lat="44.36846" lon="5.54621">
        <ele>745.708</ele>
        <time>2020-02-22T12:39:25Z</time>
      </trkpt>
      <trkpt lat="44.36854" lon="5.54644">
        <ele>745.186</ele>
        <time>2020-02-22T12:39:31Z</time>
      </trkpt>
      <trkpt lat="44.3685" lon="5.54672">
        <ele>745.522</ele>
        <time>2020-02-22T12:39:36Z</time>
      </trkpt>
      <trkpt lat="44.36825" lon="5.54683">
        <ele>746.207</ele>
        <time>2020-02-22T12:39:42Z</time>
      </trkpt>
      <trkpt lat="44.36802" lon="5.54685">
        <ele>746.904</ele>
        <time>2020-02-22T12:39:48Z</time>
      </trkpt>
      <trkpt lat="44.36786" lon="5.54686">
        <ele>749.01</ele>
        <time>2020-02-22T12:39:53Z</time>
      </trkpt>
      <trkpt lat="44.36768" lon="5.5469">
        <ele>750.156</ele>
        <time>2020-02-22T12:39:59Z</time>
      </trkpt>
      <trkpt lat="44.36751" lon="5.54697">
        <ele>750.601</ele>
        <time>2020-02-22T12:40:04Z</time>
      </trkpt>
      <trkpt lat="44.36732" lon="5.54716">
        <ele>749.928</ele>
        <time>2020-02-22T12:40:10Z</time>
      </trkpt>
      <trkpt lat="44.36716" lon="5.54734">
        <ele>748.948</ele>
        <time>2020-02-22T12:40:15Z</time>
      </trkpt>
      <trkpt lat="44.36702" lon="5.54759">
        <ele>747.993</ele>
        <time>2020-02-22T12:40:21Z</time>
      </trkpt>
      <trkpt lat="44.36692" lon="5.5478">
        <ele>750.757</ele>
        <time>2020-02-22T12:40:26Z</time>
      </trkpt>
      <trkpt lat="44.36684" lon="5.54805">
        <ele>752.192</ele>
        <time>2020-02-22T12:40:32Z</time>
      </trkpt>
      <trkpt lat="44.36678" lon="5.54829">
        <ele>752.632</ele>
        <time>2020-02-22T12:40:38Z</time>
      </trkpt>
      <trkpt lat="44.36671" lon="5.5485">
        <ele>753.45</ele>
        <time>2020-02-22T12:40:43Z</time>
      </trkpt>
      <trkpt lat="44.36665" lon="5.54881">
        <ele>754.769</ele>
        <time>2020-02-22T12:40:49Z</time>
      </trkpt>
      <trkpt lat="44.36667" lon="5.54909">
        <ele>753.502</ele>
        <time>2020-02-22T12:40:54Z</time>
      </trkpt>
      <trkpt lat="44.3667" lon="5.54939">
        <ele>754.796</ele>
        <time>2020-02-22T12:41:00Z</time>
      </trkpt>
      <trkpt lat="44.3667" lon="5.54964">
        <ele>754.063</ele>
        <time>2020-02-22T12:41:05Z</time>
      </trkpt>
      <trkpt lat="44.3667" lon="5.54992">
        <ele>756.516</ele>
        <time>2020-02-22T12:41:11Z</time>
      </trkpt>
      <trkpt lat="44.36671" lon="5.55014">
        <ele>757.929</ele>
        <time>2020-02-22T12:41:16Z</time>
      </trkpt>
      <trkpt lat="44.36669" lon="5.55043">
        <ele>759.377</ele>
        <time>2020-02-22T12:41:22Z</time>
      </trkpt>
      <trkpt lat="44.36665" lon="5.55064">
        <ele>760.21</ele>
        <time>2020-02-22T12:41:27Z</time>
      </trkpt>
      <trkpt lat="44.3666" lon="5.55092">
        <ele>761.748</ele>
        <time>2020-02-22T12:41:33Z</time>
      </trkpt>
      <trkpt lat="44.36655" lon="5.55113">
        <ele>763.471</ele>
        <time>2020-02-22T12:41:38Z</time>
      </trkpt>
      <trkpt lat="44.36646" lon="5.55133">
        <ele>764.571</ele>
        <time>2020-02-22T12:41:44Z</time>
      </trkpt>
      <trkpt lat="44.36635" lon="5.55144">
        <ele>765.704</ele>
        <time>2020-02-22T12:41:49Z</time>
      </trkpt>
      <trkpt lat="44.36622" lon="5.55154">
        <ele>766.797</ele>
        <time>2020-02-22T12:41:55Z</time>
      </trkpt>
      <trkpt lat="44.3661" lon="5.55161">
        <ele>768.08</ele>
        <time>2020-02-22T12:42:00Z</time>
      </trkpt>
      <trkpt lat="44.36595" lon="5.55174">
        <ele>767.622</ele>
        <time>2020-02-22T12:42:06Z</time>
      </trkpt>
      <trkpt lat="44.36582" lon="5.55184">
        <ele>768.106</ele>
        <time>2020-02-22T12:42:11Z</time>
      </trkpt>
      <trkpt lat="44.36568" lon="5.55199">
        <ele>768.229</ele>
        <time>2020-02-22T12:42:17Z</time>
      </trkpt>
      <trkpt lat="44.36557" lon="5.55211">
        <ele>768.6</ele>
        <time>2020-02-22T12:42:22Z</time>
      </trkpt>
      <trkpt lat="44.36543" lon="5.55225">
        <ele>769.547</ele>
        <time>2020-02-22T12:42:28Z</time>
      </trkpt>
      <trkpt lat="44.36533" lon="5.55236">
        <ele>770.224</ele>
        <time>2020-02-22T12:42:33Z</time>
      </trkpt>
      <trkpt lat="44.36518" lon="5.5525">
        <ele>772.168</ele>
        <time>2020-02-22T12:42:39Z</time>
      </trkpt>
      <trkpt lat="44.36504" lon="5.55261">
        <ele>773.83</ele>
        <time>2020-02-22T12:42:44Z</time>
      </trkpt>
      <trkpt lat="44.36493" lon="5.55281">
        <ele>773.225</ele>
        <time>2020-02-22T12:42:50Z</time>
      </trkpt>
      <trkpt lat="44.36487" lon="5.55301">
        <ele>774.904</ele>
        <time>2020-02-22T12:42:55Z</time>
      </trkpt>
      <trkpt lat="44.36484" lon="5.55325">
        <ele>776.012</ele>
        <time>2020-02-22T12:43:01Z</time>
      </trkpt>
      <trkpt lat="44.36485" lon="5.55347">
        <ele>776.154</ele>
        <time>2020-02-22T12:43:06Z</time>
      </trkpt>
      <trkpt lat="44.36486" lon="5.5537">
        <ele>777.468</ele>
        <time>2020-02-22T12:43:12Z</time>
      </trkpt>
      <trkpt lat="44.36486" lon="5.5539">
        <ele>776.372</ele>
        <time>2020-02-22T12:43:17Z</time>
      </trkpt>
      <trkpt lat="44.36483" lon="5.55412">
        <ele>778.277</ele>
        <time>2020-02-22T12:43:23Z</time>
      </trkpt>
      <trkpt lat="44.36477" lon="5.55427">
        <ele>779.794</ele>
        <time>2020-02-22T12:43:28Z</time>
      </trkpt>
      <trkpt lat="44.36467" lon="5.55442">
        <ele>780.614</ele>
        <time>2020-02-22T12:43:34Z</time>
      </trkpt>
      <trkpt lat="44.3646" lon="5.55454">
        <ele>779.68</ele>
        <time>2020-02-22T12:43:39Z</time>
      </trkpt>
      <trkpt lat="44.36456" lon="5.55472">
        <ele>779.83</ele>
        <time>2020-02-22T12:43:45Z</time>
      </trkpt>
      <trkpt lat="44.36452" lon="5.55484">
        <ele>780.224</ele>
        <time>2020-02-22T12:43:50Z</time>
      </trkpt>
      <trkpt lat="44.36447" lon="5.555">
        <ele>781.663</ele>
        <time>2020-02-22T12:43:56Z</time>
      </trkpt>
      <trkpt lat="44.36441" lon="5.55512">
        <ele>782.543</ele>
        <time>2020-02-22T12:44:01Z</time>
      </trkpt>
      <trkpt lat="44.36432" lon="5.55525">
        <ele>783.664</ele>
        <time>2020-02-22T12:44:07Z</time>
      </trkpt>
      <trkpt lat="44.36424" lon="5.55536">
        <ele>785.26</ele>
        <time>2020-02-22T12:44:12Z</time>
      </trkpt>
      <trkpt lat="44.36424" lon="5.55552">
        <ele>785.785</ele>
        <time>2020-02-22T12:44:18Z</time>
      </trkpt>
      <trkpt lat="44.36434" lon="5.55557">
        <ele>787.633</ele>
        <time>2020-02-22T12:44:23Z</time>
      </trkpt>
      <trkpt lat="44.36447" lon="5.5555">
        <ele>788.342</ele>
        <time>2020-02-22T12:44:29Z</time>
      </trkpt>
      <trkpt lat="44.36459" lon="5.55547">
        <ele>789.832</ele>
        <time>2020-02-22T12:44:34Z</time>
      </trkpt>
      <trkpt lat="44.36472" lon="5.55552">
        <ele>788.514</ele>
        <time>2020-02-22T12:44:40Z</time>
      </trkpt>
      <trkpt lat="44.36478" lon="5.55564">
        <ele>789.072</ele>
        <time>2020-02-22T12:44:45Z</time>
      </trkpt>
      <trkpt lat="44.36485" lon="5.55581">
        <ele>789.327</ele>
        <time>2020-02-22T12:44:51Z</time>
      </trkpt>
      <trkpt lat="44.36485" lon="5.55596">
        <ele>790.726</ele>
        <time>2020-02-22T12:44:56Z</time>
      </trkpt>
      <trkpt lat="44.36483" lon="5.55611">
        <ele>792.427</ele>
        <time>2020-02-22T12:45:02Z</time>
      </trkpt>
      <trkpt lat="44.36479" lon="5.55624">
        <ele>792.422</ele>
        <time>2020-02-22T12:45:07Z</time>
      </trkpt>
      <trkpt lat="44.36473" lon="5.55635">
        <ele>794.102</ele>
        <time>2020-02-22T12:45:12Z</time>
      </trkpt>
      <trkpt lat="44.36465" lon="5.55645">
        <ele>794.396</ele>
        <time>2020-02-22T12:45:18Z</time>
      </trkpt>
      <trkpt lat="44.36457" lon="5.55656">
        <ele>795.185</ele>
        <time>2020-02-22T12:45:24Z</time>
      </trkpt>
      <trkpt lat="44.36453" lon="5.55669">
        <ele>795.925</ele>
        <time>2020-02-22T12:45:29Z</time>
      </trkpt>
      <trkpt lat="44.36449" lon="5.55684">
        <ele>795.534</ele>
        <time>2020-02-22T12:45:35Z</time>
      </trkpt>
      <trkpt lat="44.36449" lon="5.55698">
        <ele>797.77</ele>
        <time>2020-02-22T12:45:40Z</time>
      </trkpt>
      <trkpt lat="44.36453" lon="5.55716">
        <ele>799.143</ele>
        <time>2020-02-22T12:45:46Z</time>
      </trkpt>
      <trkpt lat="44.36457" lon="5.55732">
        <ele>799.242</ele>
        <time>2020-02-22T12:45:52Z</time>
      </trkpt>
      <trkpt lat="44.36464" lon="5.55744">
        <ele>802.078</ele>
        <time>2020-02-22T12:45:57Z</time>
      </trkpt>
      <trkpt lat="44.3647" lon="5.55758">
        <ele>803.604</ele>
        <time>2020-02-22T12:46:03Z</time>
      </trkpt>
      <trkpt lat="44.36474" lon="5.55769">
        <ele>805.127</ele>
        <time>2020-02-22T12:46:08Z</time>
      </trkpt>
      <trkpt lat="44.36476" lon="5.55784">
        <ele>807.319</ele>
        <time>2020-02-22T12:46:14Z</time>
      </trkpt>
      <trkpt lat="44.36475" lon="5.55797">
        <ele>808.971</ele>
        <time>2020-02-22T12:46:19Z</time>
      </trkpt>
      <trkpt lat="44.36471" lon="5.5581">
        <ele>811.31</ele>
        <time>2020-02-22T12:46:25Z</time>
      </trkpt>
      <trkpt lat="44.36462" lon="5.5582">
        <ele>812.483</ele>
        <time>2020-02-22T12:46:31Z</time>
      </trkpt>
      <trkpt lat="44.36453" lon="5.55828">
        <ele>812.695</ele>
        <time>2020-02-22T12:46:36Z</time>
      </trkpt>
      <trkpt lat="44.36442" lon="5.55836">
        <ele>813.239</ele>
        <time>2020-02-22T12:46:42Z</time>
      </trkpt>
      <trkpt lat="44.36433" lon="5.55844">
        <ele>813.79</ele>
        <time>2020-02-22T12:46:47Z</time>
      </trkpt>
      <trkpt lat="44.36423" lon="5.55852">
        <ele>814.611</ele>
        <time>2020-02-22T12:46:53Z</time>
      </trkpt>
      <trkpt lat="44.36414" lon="5.55859">
        <ele>815.493</ele>
        <time>2020-02-22T12:46:58Z</time>
      </trkpt>
      <trkpt lat="44.36402" lon="5.55865">
        <ele>815.183</ele>
        <time>2020-02-22T12:47:04Z</time>
      </trkpt>
      <trkpt lat="44.36391" lon="5.55869">
        <ele>815.441</ele>
        <time>2020-02-22T12:47:09Z</time>
      </trkpt>
      <trkpt lat="44.36386" lon="5.55884">
        <ele>815.687</ele>
        <time>2020-02-22T12:47:15Z</time>
      </trkpt>
      <trkpt lat="44.36395" lon="5.55893">
        <ele>816.381</ele>
        <time>2020-02-22T12:47:20Z</time>
      </trkpt>
      <trkpt lat="44.36411" lon="5.55896">
        <ele>818.108</ele>
        <time>2020-02-22T12:47:26Z</time>
      </trkpt>
      <trkpt lat="44.36422" lon="5.55896">
        <ele>818.094</ele>
        <time>2020-02-22T12:47:31Z</time>
      </trkpt>
      <trkpt lat="44.36436" lon="5.55896">
        <ele>818.667</ele>
        <time>2020-02-22T12:47:37Z</time>
      </trkpt>
      <trkpt lat="44.36446" lon="5.55898">
        <ele>820.339</ele>
        <time>2020-02-22T12:47:42Z</time>
      </trkpt>
      <trkpt lat="44.36458" lon="5.559">
        <ele>820.679</ele>
        <time>2020-02-22T12:47:48Z</time>
      </trkpt>
      <trkpt lat="44.36467" lon="5.55906">
        <ele>821.312</ele>
        <time>2020-02-22T12:47:53Z</time>
      </trkpt>
      <trkpt lat="44.36477" lon="5.55913">
        <ele>822.693</ele>
        <time>2020-02-22T12:47:59Z</time>
      </trkpt>
      <trkpt lat="44.36486" lon="5.55921">
        <ele>825.031</ele>
        <time>2020-02-22T12:48:04Z</time>
      </trkpt>
      <trkpt lat="44.36495" lon="5.5593">
        <ele>826.402</ele>
        <time>2020-02-22T12:48:10Z</time>
      </trkpt>
      <trkpt lat="44.36502" lon="5.55938">
        <ele>826.636</ele>
        <time>2020-02-22T12:48:15Z</time>
      </trkpt>
      <trkpt lat="44.36509" lon="5.5595">
        <ele>828.331</ele>
        <time>2020-02-22T12:48:21Z</time>
      </trkpt>
      <trkpt lat="44.36515" lon="5.5596">
        <ele>829.127</ele>
        <time>2020-02-22T12:48:26Z</time>
      </trkpt>
      <trkpt lat="44.36521" lon="5.55973">
        <ele>831.17</ele>
        <time>2020-02-22T12:48:32Z</time>
      </trkpt>
      <trkpt lat="44.36528" lon="5.5598">
        <ele>832.302</ele>
        <time>2020-02-22T12:48:37Z</time>
      </trkpt>
      <trkpt lat="44.3654" lon="5.55984">
        <ele>832.928</ele>
        <time>2020-02-22T12:48:43Z</time>
      </trkpt>
      <trkpt lat="44.36545" lon="5.55993">
        <ele>833.503</ele>
        <time>2020-02-22T12:48:48Z</time>
      </trkpt>
      <trkpt lat="44.36556" lon="5.56001">
        <ele>835.42</ele>
        <time>2020-02-22T12:48:54Z</time>
      </trkpt>
      <trkpt lat="44.36566" lon="5.56005">
        <ele>836.932</ele>
        <time>2020-02-22T12:48:59Z</time>
      </trkpt>
      <trkpt lat="44.36576" lon="5.56012">
        <ele>836.983</ele>
        <time>2020-02-22T12:49:05Z</time>
      </trkpt>
      <trkpt lat="44.36584" lon="5.56017">
        <ele>838.91</ele>
        <time>2020-02-22T12:49:10Z</time>
      </trkpt>
      <trkpt lat="44.36593" lon="5.56024">
        <ele>839.858</ele>
        <time>2020-02-22T12:49:16Z</time>
      </trkpt>
      <trkpt lat="44.36602" lon="5.56031">
        <ele>840.273</ele>
        <time>2020-02-22T12:49:21Z</time>
      </trkpt>
      <trkpt lat="44.36613" lon="5.56039">
        <ele>841.577</ele>
        <time>2020-02-22T12:49:27Z</time>
      </trkpt>
      <trkpt lat="44.36619" lon="5.56048">
        <ele>840.704</ele>
        <time>2020-02-22T12:49:32Z</time>
      </trkpt>
      <trkpt lat="44.36623" lon="5.56062">
        <ele>842.461</ele>
        <time>2020-02-22T12:49:38Z</time>
      </trkpt>
      <trkpt lat="44.36623" lon="5.56074">
        <ele>844.029</ele>
        <time>2020-02-22T12:49:43Z</time>
      </trkpt>
      <trkpt lat="44.36617" lon="5.56088">
        <ele>844.621</ele>
        <time>2020-02-22T12:49:49Z</time>
      </trkpt>
      <trkpt lat="44.36613" lon="5.56101">
        <ele>844.491</ele>
        <time>2020-02-22T12:49:54Z</time>
      </trkpt>
      <trkpt lat="44.36607" lon="5.56116">
        <ele>844.764</ele>
        <time>2020-02-22T12:50:00Z</time>
      </trkpt>
      <trkpt lat="44.36603" lon="5.56129">
        <ele>846.052</ele>
        <time>2020-02-22T12:50:05Z</time>
      </trkpt>
      <trkpt lat="44.36599" lon="5.56145">
        <ele>846.461</ele>
        <time>2020-02-22T12:50:11Z</time>
      </trkpt>
      <trkpt lat="44.36594" lon="5.56156">
        <ele>846.383</ele>
        <time>2020-02-22T12:50:16Z</time>
      </trkpt>
      <trkpt lat="44.3659" lon="5.56171">
        <ele>847.849</ele>
        <time>2020-02-22T12:50:22Z</time>
      </trkpt>
      <trkpt lat="44.36587" lon="5.56184">
        <ele>849.39</ele>
        <time>2020-02-22T12:50:27Z</time>
      </trkpt>
      <trkpt lat="44.36582" lon="5.56199">
        <ele>850.464</ele>
        <time>2020-02-22T12:50:33Z</time>
      </trkpt>
      <trkpt lat="44.36578" lon="5.56212">
        <ele>852.028</ele>
        <time>2020-02-22T12:50:38Z</time>
      </trkpt>
      <trkpt lat="44.36573" lon="5.56228">
        <ele>854.157</ele>
        <time>2020-02-22T12:50:44Z</time>
      </trkpt>
      <trkpt lat="44.36571" lon="5.56241">
        <ele>855.448</ele>
        <time>2020-02-22T12:50:49Z</time>
      </trkpt>
      <trkpt lat="44.36574" lon="5.56256">
        <ele>856.969</ele>
        <time>2020-02-22T12:50:55Z</time>
      </trkpt>
      <trkpt lat="44.36579" lon="5.56267">
        <ele>858.3</ele>
        <time>2020-02-22T12:51:00Z</time>
      </trkpt>
      <trkpt lat="44.36588" lon="5.56274">
        <ele>858.32</ele>
        <time>2020-02-22T12:51:05Z</time>
      </trkpt>
      <trkpt lat="44.366" lon="5.56272">
        <ele>859.383</ele>
        <time>2020-02-22T12:51:11Z</time>
      </trkpt>
      <trkpt lat="44.3661" lon="5.56264">
        <ele>860.817</ele>
        <time>2020-02-22T12:51:17Z</time>
      </trkpt>
      <trkpt lat="44.36618" lon="5.56256">
        <ele>862.056</ele>
        <time>2020-02-22T12:51:22Z</time>
      </trkpt>
      <trkpt lat="44.36627" lon="5.56247">
        <ele>863.186</ele>
        <time>2020-02-22T12:51:28Z</time>
      </trkpt>
      <trkpt lat="44.36636" lon="5.56241">
        <ele>863.337</ele>
        <time>2020-02-22T12:51:33Z</time>
      </trkpt>
      <trkpt lat="44.36647" lon="5.56236">
        <ele>864.773</ele>
        <time>2020-02-22T12:51:39Z</time>
      </trkpt>
      <trkpt lat="44.36655" lon="5.5623">
        <ele>866.112</ele>
        <time>2020-02-22T12:51:44Z</time>
      </trkpt>
      <trkpt lat="44.36666" lon="5.56225">
        <ele>866.162</ele>
        <time>2020-02-22T12:51:50Z</time>
      </trkpt>
      <trkpt lat="44.36674" lon="5.5622">
        <ele>866.918</ele>
        <time>2020-02-22T12:51:55Z</time>
      </trkpt>
      <trkpt lat="44.36685" lon="5.56215">
        <ele>867.784</ele>
        <time>2020-02-22T12:52:01Z</time>
      </trkpt>
      <trkpt lat="44.36695" lon="5.56217">
        <ele>868.904</ele>
        <time>2020-02-22T12:52:06Z</time>
      </trkpt>
      <trkpt lat="44.36706" lon="5.56224">
        <ele>870.152</ele>
        <time>2020-02-22T12:52:12Z</time>
      </trkpt>
      <trkpt lat="44.36715" lon="5.56232">
        <ele>871.149</ele>
        <time>2020-02-22T12:52:17Z</time>
      </trkpt>
      <trkpt lat="44.36725" lon="5.5624">
        <ele>872.497</ele>
        <time>2020-02-22T12:52:23Z</time>
      </trkpt>
      <trkpt lat="44.36735" lon="5.56237">
        <ele>874.055</ele>
        <time>2020-02-22T12:52:28Z</time>
      </trkpt>
      <trkpt lat="44.36745" lon="5.56227">
        <ele>875.008</ele>
        <time>2020-02-22T12:52:34Z</time>
      </trkpt>
      <trkpt lat="44.3675" lon="5.56213">
        <ele>875.948</ele>
        <time>2020-02-22T12:52:39Z</time>
      </trkpt>
      <trkpt lat="44.36758" lon="5.56198">
        <ele>877.635</ele>
        <time>2020-02-22T12:52:45Z</time>
      </trkpt>
      <trkpt lat="44.36762" lon="5.56184">
        <ele>879.702</ele>
        <time>2020-02-22T12:52:50Z</time>
      </trkpt>
      <trkpt lat="44.36768" lon="5.56169">
        <ele>880.816</ele>
        <time>2020-02-22T12:52:56Z</time>
      </trkpt>
      <trkpt lat="44.36773" lon="5.56157">
        <ele>881.823</ele>
        <time>2020-02-22T12:53:01Z</time>
      </trkpt>
      <trkpt lat="44.36778" lon="5.56143">
        <ele>883.115</ele>
        <time>2020-02-22T12:53:07Z</time>
      </trkpt>
      <trkpt lat="44.36782" lon="5.56131">
        <ele>884.323</ele>
        <time>2020-02-22T12:53:12Z</time>
      </trkpt>
      <trkpt lat="44.36787" lon="5.56116">
        <ele>885.33</ele>
        <time>2020-02-22T12:53:18Z</time>
      </trkpt>
      <trkpt lat="44.36791" lon="5.561">
        <ele>885.575</ele>
        <time>2020-02-22T12:53:24Z</time>
      </trkpt>
      <trkpt lat="44.36799" lon="5.56087">
        <ele>886.63</ele>
        <time>2020-02-22T12:53:30Z</time>
      </trkpt>
      <trkpt lat="44.36809" lon="5.56079">
        <ele>886.963</ele>
        <time>2020-02-22T12:53:35Z</time>
      </trkpt>
      <trkpt lat="44.3682" lon="5.56076">
        <ele>887.302</ele>
        <time>2020-02-22T12:53:40Z</time>
      </trkpt>
      <trkpt lat="44.36834" lon="5.56072">
        <ele>888.487</ele>
        <time>2020-02-22T12:53:46Z</time>
      </trkpt>
      <trkpt lat="44.36845" lon="5.56069">
        <ele>889.898</ele>
        <time>2020-02-22T12:53:51Z</time>
      </trkpt>
      <trkpt lat="44.36859" lon="5.56063">
        <ele>890.152</ele>
        <time>2020-02-22T12:53:57Z</time>
      </trkpt>
      <trkpt lat="44.3687" lon="5.5606">
        <ele>890.561</ele>
        <time>2020-02-22T12:54:02Z</time>
      </trkpt>
      <trkpt lat="44.36882" lon="5.56053">
        <ele>890.779</ele>
        <time>2020-02-22T12:54:08Z</time>
      </trkpt>
      <trkpt lat="44.36895" lon="5.56045">
        <ele>891.875</ele>
        <time>2020-02-22T12:54:13Z</time>
      </trkpt>
      <trkpt lat="44.36912" lon="5.56033">
        <ele>891.911</ele>
        <time>2020-02-22T12:54:19Z</time>
      </trkpt>
      <trkpt lat="44.36925" lon="5.5602">
        <ele>892.098</ele>
        <time>2020-02-22T12:54:24Z</time>
      </trkpt>
      <trkpt lat="44.36937" lon="5.56007">
        <ele>893.112</ele>
        <time>2020-02-22T12:54:29Z</time>
      </trkpt>
      <trkpt lat="44.36952" lon="5.55991">
        <ele>894.583</ele>
        <time>2020-02-22T12:54:35Z</time>
      </trkpt>
      <trkpt lat="44.36967" lon="5.55978">
        <ele>895.573</ele>
        <time>2020-02-22T12:54:40Z</time>
      </trkpt>
      <trkpt lat="44.36987" lon="5.55964">
        <ele>896.086</ele>
        <time>2020-02-22T12:54:46Z</time>
      </trkpt>
      <trkpt lat="44.37004" lon="5.55954">
        <ele>896.432</ele>
        <time>2020-02-22T12:54:51Z</time>
      </trkpt>
      <trkpt lat="44.37021" lon="5.55945">
        <ele>897.108</ele>
        <time>2020-02-22T12:54:56Z</time>
      </trkpt>
      <trkpt lat="44.37035" lon="5.55936">
        <ele>896.489</ele>
        <time>2020-02-22T12:55:01Z</time>
      </trkpt>
      <trkpt lat="44.37051" lon="5.55926">
        <ele>897.752</ele>
        <time>2020-02-22T12:55:07Z</time>
      </trkpt>
      <trkpt lat="44.37066" lon="5.55918">
        <ele>898.429</ele>
        <time>2020-02-22T12:55:13Z</time>
      </trkpt>
      <trkpt lat="44.37083" lon="5.55913">
        <ele>898.942</ele>
        <time>2020-02-22T12:55:19Z</time>
      </trkpt>
      <trkpt lat="44.37096" lon="5.55921">
        <ele>899.116</ele>
        <time>2020-02-22T12:55:24Z</time>
      </trkpt>
      <trkpt lat="44.37111" lon="5.55939">
        <ele>900.068</ele>
        <time>2020-02-22T12:55:30Z</time>
      </trkpt>
      <trkpt lat="44.37129" lon="5.55957">
        <ele>899.96</ele>
        <time>2020-02-22T12:55:36Z</time>
      </trkpt>
      <trkpt lat="44.37152" lon="5.5597">
        <ele>900.557</ele>
        <time>2020-02-22T12:55:42Z</time>
      </trkpt>
      <trkpt lat="44.37175" lon="5.5597">
        <ele>901.023</ele>
        <time>2020-02-22T12:55:47Z</time>
      </trkpt>
      <trkpt lat="44.37199" lon="5.55972">
        <ele>900.363</ele>
        <time>2020-02-22T12:55:53Z</time>
      </trkpt>
      <trkpt lat="44.37222" lon="5.55991">
        <ele>900.828</ele>
        <time>2020-02-22T12:55:59Z</time>
      </trkpt>
      <trkpt lat="44.37241" lon="5.56014">
        <ele>901.626</ele>
        <time>2020-02-22T12:56:04Z</time>
      </trkpt>
      <trkpt lat="44.37258" lon="5.56037">
        <ele>902.059</ele>
        <time>2020-02-22T12:56:09Z</time>
      </trkpt>
      <trkpt lat="44.37274" lon="5.5606">
        <ele>902.893</ele>
        <time>2020-02-22T12:56:14Z</time>
      </trkpt>
      <trkpt lat="44.37291" lon="5.56088">
        <ele>903.448</ele>
        <time>2020-02-22T12:56:20Z</time>
      </trkpt>
      <trkpt lat="44.37308" lon="5.56114">
        <ele>902.97</ele>
        <time>2020-02-22T12:56:25Z</time>
      </trkpt>
      <trkpt lat="44.37331" lon="5.56137">
        <ele>903.323</ele>
        <time>2020-02-22T12:56:31Z</time>
      </trkpt>
      <trkpt lat="44.37351" lon="5.56153">
        <ele>903.77</ele>
        <time>2020-02-22T12:56:36Z</time>
      </trkpt>
      <trkpt lat="44.37367" lon="5.56178">
        <ele>905.188</ele>
        <time>2020-02-22T12:56:42Z</time>
      </trkpt>
      <trkpt lat="44.37379" lon="5.56198">
        <ele>904.773</ele>
        <time>2020-02-22T12:56:47Z</time>
      </trkpt>
      <trkpt lat="44.37392" lon="5.56224">
        <ele>905.769</ele>
        <time>2020-02-22T12:56:53Z</time>
      </trkpt>
      <trkpt lat="44.37403" lon="5.5625">
        <ele>906.865</ele>
        <time>2020-02-22T12:56:58Z</time>
      </trkpt>
      <trkpt lat="44.37419" lon="5.56283">
        <ele>905.424</ele>
        <time>2020-02-22T12:57:04Z</time>
      </trkpt>
      <trkpt lat="44.37437" lon="5.56317">
        <ele>905.758</ele>
        <time>2020-02-22T12:57:10Z</time>
      </trkpt>
      <trkpt lat="44.37452" lon="5.56339">
        <ele>906.437</ele>
        <time>2020-02-22T12:57:15Z</time>
      </trkpt>
      <trkpt lat="44.3747" lon="5.56361">
        <ele>906.076</ele>
        <time>2020-02-22T12:57:21Z</time>
      </trkpt>
      <trkpt lat="44.37473" lon="5.56392">
        <ele>906.306</ele>
        <time>2020-02-22T12:57:27Z</time>
      </trkpt>
      <trkpt lat="44.37466" lon="5.56424">
        <ele>907.371</ele>
        <time>2020-02-22T12:57:33Z</time>
      </trkpt>
      <trkpt lat="44.37465" lon="5.56449">
        <ele>908.235</ele>
        <time>2020-02-22T12:57:38Z</time>
      </trkpt>
      <trkpt lat="44.37468" lon="5.56474">
        <ele>910.744</ele>
        <time>2020-02-22T12:57:44Z</time>
      </trkpt>
      <trkpt lat="44.3747" lon="5.56496">
        <ele>912.865</ele>
        <time>2020-02-22T12:57:50Z</time>
      </trkpt>
      <trkpt lat="44.37464" lon="5.56515">
        <ele>912.847</ele>
        <time>2020-02-22T12:57:55Z</time>
      </trkpt>
      <trkpt lat="44.37445" lon="5.56536">
        <ele>912.167</ele>
        <time>2020-02-22T12:58:01Z</time>
      </trkpt>
      <trkpt lat="44.37424" lon="5.56543">
        <ele>913.507</ele>
        <time>2020-02-22T12:58:06Z</time>
      </trkpt>
      <trkpt lat="44.37407" lon="5.56555">
        <ele>915.243</ele>
        <time>2020-02-22T12:58:12Z</time>
      </trkpt>
      <trkpt lat="44.374" lon="5.56568">
        <ele>915.805</ele>
        <time>2020-02-22T12:58:17Z</time>
      </trkpt>
      <trkpt lat="44.37396" lon="5.5659">
        <ele>916.662</ele>
        <time>2020-02-22T12:58:23Z</time>
      </trkpt>
      <trkpt lat="44.37396" lon="5.56607">
        <ele>918.417</ele>
        <time>2020-02-22T12:58:28Z</time>
      </trkpt>
      <trkpt lat="44.37395" lon="5.56625">
        <ele>920.462</ele>
        <time>2020-02-22T12:58:34Z</time>
      </trkpt>
      <trkpt lat="44.37394" lon="5.56642">
        <ele>922.711</ele>
        <time>2020-02-22T12:58:39Z</time>
      </trkpt>
      <trkpt lat="44.37392" lon="5.56662">
        <ele>922.457</ele>
        <time>2020-02-22T12:58:45Z</time>
      </trkpt>
      <trkpt lat="44.3739" lon="5.56677">
        <ele>924.498</ele>
        <time>2020-02-22T12:58:50Z</time>
      </trkpt>
      <trkpt lat="44.37387" lon="5.56697">
        <ele>925.146</ele>
        <time>2020-02-22T12:58:56Z</time>
      </trkpt>
      <trkpt lat="44.37386" lon="5.56714">
        <ele>924.209</ele>
        <time>2020-02-22T12:59:01Z</time>
      </trkpt>
      <trkpt lat="44.37386" lon="5.56735">
        <ele>924.887</ele>
        <time>2020-02-22T12:59:07Z</time>
      </trkpt>
      <trkpt lat="44.37385" lon="5.56751">
        <ele>925.001</ele>
        <time>2020-02-22T12:59:12Z</time>
      </trkpt>
      <trkpt lat="44.37382" lon="5.56772">
        <ele>925.807</ele>
        <time>2020-02-22T12:59:18Z</time>
      </trkpt>
      <trkpt lat="44.3738" lon="5.56789">
        <ele>926.834</ele>
        <time>2020-02-22T12:59:23Z</time>
      </trkpt>
      <trkpt lat="44.37374" lon="5.56813">
        <ele>927.736</ele>
        <time>2020-02-22T12:59:29Z</time>
      </trkpt>
      <trkpt lat="44.37366" lon="5.56831">
        <ele>928.582</ele>
        <time>2020-02-22T12:59:34Z</time>
      </trkpt>
      <trkpt lat="44.37352" lon="5.56849">
        <ele>928.317</ele>
        <time>2020-02-22T12:59:40Z</time>
      </trkpt>
      <trkpt lat="44.37337" lon="5.56863">
        <ele>929.146</ele>
        <time>2020-02-22T12:59:45Z</time>
      </trkpt>
      <trkpt lat="44.37324" lon="5.56878">
        <ele>930.695</ele>
        <time>2020-02-22T12:59:50Z</time>
      </trkpt>
      <trkpt lat="44.3731" lon="5.56896">
        <ele>930.935</ele>
        <time>2020-02-22T12:59:55Z</time>
      </trkpt>
      <trkpt lat="44.37294" lon="5.56919">
        <ele>931.194</ele>
        <time>2020-02-22T13:00:01Z</time>
      </trkpt>
      <trkpt lat="44.37281" lon="5.56942">
        <ele>931.797</ele>
        <time>2020-02-22T13:00:07Z</time>
      </trkpt>
      <trkpt lat="44.37271" lon="5.56959">
        <ele>932.498</ele>
        <time>2020-02-22T13:00:12Z</time>
      </trkpt>
      <trkpt lat="44.37258" lon="5.56976">
        <ele>934.105</ele>
        <time>2020-02-22T13:00:18Z</time>
      </trkpt>
      <trkpt lat="44.37245" lon="5.56986">
        <ele>934.951</ele>
        <time>2020-02-22T13:00:23Z</time>
      </trkpt>
      <trkpt lat="44.37228" lon="5.56992">
        <ele>937.14</ele>
        <time>2020-02-22T13:00:29Z</time>
      </trkpt>
      <trkpt lat="44.37215" lon="5.56996">
        <ele>938.15</ele>
        <time>2020-02-22T13:00:34Z</time>
      </trkpt>
      <trkpt lat="44.37201" lon="5.57008">
        <ele>939.498</ele>
        <time>2020-02-22T13:00:40Z</time>
      </trkpt>
      <trkpt lat="44.37189" lon="5.57021">
        <ele>939.552</ele>
        <time>2020-02-22T13:00:45Z</time>
      </trkpt>
      <trkpt lat="44.37176" lon="5.5704">
        <ele>939.335</ele>
        <time>2020-02-22T13:00:51Z</time>
      </trkpt>
      <trkpt lat="44.37174" lon="5.57041">
        <ele>939.441</ele>
        <time>2020-02-22T13:00:56Z</time>
      </trkpt>
      <trkpt lat="44.37175" lon="5.5704">
        <ele>940.211</ele>
        <time>2020-02-22T13:01:02Z</time>
      </trkpt>
      <trkpt lat="44.37175" lon="5.5704">
        <ele>941.171</ele>
        <time>2020-02-22T13:01:08Z</time>
      </trkpt>
      <trkpt lat="44.37175" lon="5.57039">
        <ele>941.38</ele>
        <time>2020-02-22T13:01:13Z</time>
      </trkpt>
      <trkpt lat="44.37175" lon="5.57039">
        <ele>941.348</ele>
        <time>2020-02-22T13:01:18Z</time>
      </trkpt>
      <trkpt lat="44.37175" lon="5.57039">
        <ele>941.335</ele>
        <time>2020-02-22T13:01:24Z</time>
      </trkpt>
      <trkpt lat="44.37175" lon="5.57039">
        <ele>941.339</ele>
        <time>2020-02-22T13:01:30Z</time>
      </trkpt>
      <trkpt lat="44.37175" lon="5.57039">
        <ele>941.337</ele>
        <time>2020-02-22T13:01:35Z</time>
      </trkpt>
      <trkpt lat="44.37175" lon="5.57039">
        <ele>941.337</ele>
        <time>2020-02-22T13:01:41Z</time>
      </trkpt>
      <trkpt lat="44.37173" lon="5.57043">
        <ele>941.272</ele>
        <time>2020-02-22T13:01:47Z</time>
      </trkpt>
      <trkpt lat="44.37165" lon="5.57052">
        <ele>941.221</ele>
        <time>2020-02-22T13:01:53Z</time>
      </trkpt>
      <trkpt lat="44.37166" lon="5.57051">
        <ele>941.841</ele>
        <time>2020-02-22T13:01:58Z</time>
      </trkpt>
      <trkpt lat="44.37167" lon="5.57053">
        <ele>942.899</ele>
        <time>2020-02-22T13:02:04Z</time>
      </trkpt>
      <trkpt lat="44.37167" lon="5.57053">
        <ele>942.779</ele>
        <time>2020-02-22T13:02:10Z</time>
      </trkpt>
      <trkpt lat="44.37167" lon="5.57053">
        <ele>942.787</ele>
        <time>2020-02-22T13:02:16Z</time>
      </trkpt>
      <trkpt lat="44.37167" lon="5.57053">
        <ele>942.797</ele>
        <time>2020-02-22T13:02:21Z</time>
      </trkpt>
      <trkpt lat="44.37167" lon="5.57053">
        <ele>942.781</ele>
        <time>2020-02-22T13:02:27Z</time>
      </trkpt>
      <trkpt lat="44.37167" lon="5.57053">
        <ele>942.772</ele>
        <time>2020-02-22T13:02:32Z</time>
      </trkpt>
      <trkpt lat="44.37167" lon="5.57053">
        <ele>942.764</ele>
        <time>2020-02-22T13:02:38Z</time>
      </trkpt>
      <trkpt lat="44.37167" lon="5.57053">
        <ele>942.741</ele>
        <time>2020-02-22T13:02:44Z</time>
      </trkpt>
      <trkpt lat="44.37167" lon="5.57053">
        <ele>942.733</ele>
        <time>2020-02-22T13:02:50Z</time>
      </trkpt>
      <trkpt lat="44.37162" lon="5.57058">
        <ele>942.525</ele>
        <time>2020-02-22T13:02:55Z</time>
      </trkpt>
      <trkpt lat="44.37154" lon="5.57071">
        <ele>942.252</ele>
        <time>2020-02-22T13:03:00Z</time>
      </trkpt>
      <trkpt lat="44.37141" lon="5.5709">
        <ele>941.067</ele>
        <time>2020-02-22T13:03:05Z</time>
      </trkpt>
      <trkpt lat="44.37116" lon="5.57125">
        <ele>939.209</ele>
        <time>2020-02-22T13:03:11Z</time>
      </trkpt>
      <trkpt lat="44.37089" lon="5.57164">
        <ele>936.972</ele>
        <time>2020-02-22T13:03:17Z</time>
      </trkpt>
      <trkpt lat="44.37065" lon="5.57196">
        <ele>935.768</ele>
        <time>2020-02-22T13:03:22Z</time>
      </trkpt>
      <trkpt lat="44.37042" lon="5.57229">
        <ele>936.184</ele>
        <time>2020-02-22T13:03:27Z</time>
      </trkpt>
      <trkpt lat="44.37013" lon="5.57271">
        <ele>934.669</ele>
        <time>2020-02-22T13:03:33Z</time>
      </trkpt>
      <trkpt lat="44.36987" lon="5.57328">
        <ele>933.355</ele>
        <time>2020-02-22T13:03:39Z</time>
      </trkpt>
      <trkpt lat="44.36971" lon="5.57397">
        <ele>930.269</ele>
        <time>2020-02-22T13:03:45Z</time>
      </trkpt>
      <trkpt lat="44.36958" lon="5.57455">
        <ele>928.387</ele>
        <time>2020-02-22T13:03:50Z</time>
      </trkpt>
      <trkpt lat="44.36943" lon="5.57529">
        <ele>926.699</ele>
        <time>2020-02-22T13:03:56Z</time>
      </trkpt>
      <trkpt lat="44.36929" lon="5.57588">
        <ele>925.652</ele>
        <time>2020-02-22T13:04:01Z</time>
      </trkpt>
      <trkpt lat="44.36915" lon="5.57648">
        <ele>922.488</ele>
        <time>2020-02-22T13:04:06Z</time>
      </trkpt>
      <trkpt lat="44.36902" lon="5.57712">
        <ele>920.846</ele>
        <time>2020-02-22T13:04:11Z</time>
      </trkpt>
      <trkpt lat="44.36873" lon="5.57775">
        <ele>919.301</ele>
        <time>2020-02-22T13:04:17Z</time>
      </trkpt>
      <trkpt lat="44.36827" lon="5.57796">
        <ele>915.203</ele>
        <time>2020-02-22T13:04:22Z</time>
      </trkpt>
      <trkpt lat="44.36767" lon="5.57821">
        <ele>912.975</ele>
        <time>2020-02-22T13:04:28Z</time>
      </trkpt>
      <trkpt lat="44.36709" lon="5.57842">
        <ele>912.229</ele>
        <time>2020-02-22T13:04:34Z</time>
      </trkpt>
      <trkpt lat="44.36667" lon="5.57855">
        <ele>910.673</ele>
        <time>2020-02-22T13:04:39Z</time>
      </trkpt>
      <trkpt lat="44.36622" lon="5.57896">
        <ele>905.938</ele>
        <time>2020-02-22T13:04:45Z</time>
      </trkpt>
      <trkpt lat="44.36593" lon="5.5794">
        <ele>904.911</ele>
        <time>2020-02-22T13:04:50Z</time>
      </trkpt>
      <trkpt lat="44.36579" lon="5.58009">
        <ele>902.003</ele>
        <time>2020-02-22T13:04:56Z</time>
      </trkpt>
      <trkpt lat="44.36568" lon="5.5807">
        <ele>898.474</ele>
        <time>2020-02-22T13:05:01Z</time>
      </trkpt>
      <trkpt lat="44.3658" lon="5.5814">
        <ele>895.016</ele>
        <time>2020-02-22T13:05:07Z</time>
      </trkpt>
      <trkpt lat="44.36622" lon="5.58165">
        <ele>890.736</ele>
        <time>2020-02-22T13:05:12Z</time>
      </trkpt>
      <trkpt lat="44.36683" lon="5.58203">
        <ele>886.211</ele>
        <time>2020-02-22T13:05:18Z</time>
      </trkpt>
      <trkpt lat="44.36716" lon="5.58221">
        <ele>885.142</ele>
        <time>2020-02-22T13:05:23Z</time>
      </trkpt>
      <trkpt lat="44.36686" lon="5.58239">
        <ele>883.573</ele>
        <time>2020-02-22T13:05:29Z</time>
      </trkpt>
      <trkpt lat="44.36645" lon="5.58239">
        <ele>885.468</ele>
        <time>2020-02-22T13:05:35Z</time>
      </trkpt>
      <trkpt lat="44.36598" lon="5.58236">
        <ele>884.492</ele>
        <time>2020-02-22T13:05:41Z</time>
      </trkpt>
      <trkpt lat="44.36559" lon="5.5824">
        <ele>881.058</ele>
        <time>2020-02-22T13:05:46Z</time>
      </trkpt>
      <trkpt lat="44.36516" lon="5.58247">
        <ele>879.329</ele>
        <time>2020-02-22T13:05:51Z</time>
      </trkpt>
      <trkpt lat="44.36463" lon="5.5827">
        <ele>875.749</ele>
        <time>2020-02-22T13:05:57Z</time>
      </trkpt>
      <trkpt lat="44.36428" lon="5.58308">
        <ele>874.67</ele>
        <time>2020-02-22T13:06:02Z</time>
      </trkpt>
      <trkpt lat="44.36388" lon="5.58361">
        <ele>871.804</ele>
        <time>2020-02-22T13:06:08Z</time>
      </trkpt>
      <trkpt lat="44.3637" lon="5.58412">
        <ele>868.39</ele>
        <time>2020-02-22T13:06:13Z</time>
      </trkpt>
      <trkpt lat="44.36358" lon="5.58457">
        <ele>865.643</ele>
        <time>2020-02-22T13:06:18Z</time>
      </trkpt>
      <trkpt lat="44.36352" lon="5.58517">
        <ele>866.084</ele>
        <time>2020-02-22T13:06:24Z</time>
      </trkpt>
      <trkpt lat="44.36347" lon="5.58582">
        <ele>865.489</ele>
        <time>2020-02-22T13:06:30Z</time>
      </trkpt>
      <trkpt lat="44.36342" lon="5.58634">
        <ele>864.063</ele>
        <time>2020-02-22T13:06:35Z</time>
      </trkpt>
      <trkpt lat="44.36349" lon="5.58688">
        <ele>864.878</ele>
        <time>2020-02-22T13:06:40Z</time>
      </trkpt>
      <trkpt lat="44.3636" lon="5.58755">
        <ele>865.116</ele>
        <time>2020-02-22T13:06:46Z</time>
      </trkpt>
      <trkpt lat="44.36357" lon="5.58811">
        <ele>865.151</ele>
        <time>2020-02-22T13:06:51Z</time>
      </trkpt>
      <trkpt lat="44.36339" lon="5.58867">
        <ele>862.291</ele>
        <time>2020-02-22T13:06:57Z</time>
      </trkpt>
      <trkpt lat="44.36319" lon="5.58909">
        <ele>864.836</ele>
        <time>2020-02-22T13:07:02Z</time>
      </trkpt>
      <trkpt lat="44.36287" lon="5.58957">
        <ele>862.845</ele>
        <time>2020-02-22T13:07:08Z</time>
      </trkpt>
      <trkpt lat="44.36264" lon="5.59016">
        <ele>861.681</ele>
        <time>2020-02-22T13:07:14Z</time>
      </trkpt>
      <trkpt lat="44.36264" lon="5.59074">
        <ele>862.936</ele>
        <time>2020-02-22T13:07:19Z</time>
      </trkpt>
      <trkpt lat="44.36264" lon="5.59139">
        <ele>860.108</ele>
        <time>2020-02-22T13:07:25Z</time>
      </trkpt>
      <trkpt lat="44.36265" lon="5.59202">
        <ele>860.755</ele>
        <time>2020-02-22T13:07:31Z</time>
      </trkpt>
      <trkpt lat="44.36265" lon="5.5925">
        <ele>861.058</ele>
        <time>2020-02-22T13:07:36Z</time>
      </trkpt>
      <trkpt lat="44.36266" lon="5.59303">
        <ele>860.799</ele>
        <time>2020-02-22T13:07:42Z</time>
      </trkpt>
      <trkpt lat="44.36266" lon="5.59342">
        <ele>860.393</ele>
        <time>2020-02-22T13:07:47Z</time>
      </trkpt>
      <trkpt lat="44.36264" lon="5.59395">
        <ele>861.074</ele>
        <time>2020-02-22T13:07:53Z</time>
      </trkpt>
      <trkpt lat="44.36279" lon="5.59452">
        <ele>859.239</ele>
        <time>2020-02-22T13:07:59Z</time>
      </trkpt>
      <trkpt lat="44.36301" lon="5.59512">
        <ele>856.971</ele>
        <time>2020-02-22T13:08:05Z</time>
      </trkpt>
      <trkpt lat="44.36317" lon="5.59576">
        <ele>857.183</ele>
        <time>2020-02-22T13:08:11Z</time>
      </trkpt>
      <trkpt lat="44.36325" lon="5.59629">
        <ele>856.242</ele>
        <time>2020-02-22T13:08:16Z</time>
      </trkpt>
      <trkpt lat="44.36319" lon="5.59687">
        <ele>855.255</ele>
        <time>2020-02-22T13:08:22Z</time>
      </trkpt>
      <trkpt lat="44.36304" lon="5.59732">
        <ele>855.147</ele>
        <time>2020-02-22T13:08:27Z</time>
      </trkpt>
      <trkpt lat="44.36275" lon="5.59781">
        <ele>852.306</ele>
        <time>2020-02-22T13:08:33Z</time>
      </trkpt>
      <trkpt lat="44.36253" lon="5.59823">
        <ele>850.308</ele>
        <time>2020-02-22T13:08:38Z</time>
      </trkpt>
      <trkpt lat="44.36224" lon="5.59873">
        <ele>850.924</ele>
        <time>2020-02-22T13:08:44Z</time>
      </trkpt>
      <trkpt lat="44.36203" lon="5.5991">
        <ele>851.282</ele>
        <time>2020-02-22T13:08:49Z</time>
      </trkpt>
      <trkpt lat="44.36178" lon="5.59947">
        <ele>853.043</ele>
        <time>2020-02-22T13:08:55Z</time>
      </trkpt>
      <trkpt lat="44.3616" lon="5.5999">
        <ele>851.877</ele>
        <time>2020-02-22T13:09:01Z</time>
      </trkpt>
      <trkpt lat="44.36129" lon="5.6003">
        <ele>851.747</ele>
        <time>2020-02-22T13:09:07Z</time>
      </trkpt>
      <trkpt lat="44.36088" lon="5.60067">
        <ele>849.28</ele>
        <time>2020-02-22T13:09:13Z</time>
      </trkpt>
      <trkpt lat="44.36043" lon="5.60097">
        <ele>848.663</ele>
        <time>2020-02-22T13:09:19Z</time>
      </trkpt>
      <trkpt lat="44.36019" lon="5.60136">
        <ele>845.79</ele>
        <time>2020-02-22T13:09:24Z</time>
      </trkpt>
      <trkpt lat="44.35994" lon="5.6019">
        <ele>844.007</ele>
        <time>2020-02-22T13:09:30Z</time>
      </trkpt>
      <trkpt lat="44.35978" lon="5.60238">
        <ele>841.002</ele>
        <time>2020-02-22T13:09:35Z</time>
      </trkpt>
      <trkpt lat="44.35973" lon="5.60297">
        <ele>840.194</ele>
        <time>2020-02-22T13:09:41Z</time>
      </trkpt>
      <trkpt lat="44.35977" lon="5.60349">
        <ele>838.977</ele>
        <time>2020-02-22T13:09:46Z</time>
      </trkpt>
      <trkpt lat="44.35983" lon="5.60404">
        <ele>839.569</ele>
        <time>2020-02-22T13:09:52Z</time>
      </trkpt>
      <trkpt lat="44.35993" lon="5.60449">
        <ele>838.368</ele>
        <time>2020-02-22T13:09:57Z</time>
      </trkpt>
      <trkpt lat="44.35997" lon="5.6051">
        <ele>839.179</ele>
        <time>2020-02-22T13:10:03Z</time>
      </trkpt>
      <trkpt lat="44.3599" lon="5.60546">
        <ele>838.442</ele>
        <time>2020-02-22T13:10:09Z</time>
      </trkpt>
      <trkpt lat="44.35989" lon="5.6055">
        <ele>838.602</ele>
        <time>2020-02-22T13:10:14Z</time>
      </trkpt>
      <trkpt lat="44.35989" lon="5.6055">
        <ele>838.592</ele>
        <time>2020-02-22T13:10:19Z</time>
      </trkpt>
      <trkpt lat="44.35988" lon="5.6055">
        <ele>839.163</ele>
        <time>2020-02-22T13:10:24Z</time>
      </trkpt>
      <trkpt lat="44.35988" lon="5.6055">
        <ele>839.22</ele>
        <time>2020-02-22T13:10:30Z</time>
      </trkpt>
      <trkpt lat="44.35988" lon="5.6055">
        <ele>839.208</ele>
        <time>2020-02-22T13:10:35Z</time>
      </trkpt>
      <trkpt lat="44.35988" lon="5.6055">
        <ele>839.202</ele>
        <time>2020-02-22T13:10:40Z</time>
      </trkpt>
      <trkpt lat="44.35988" lon="5.6055">
        <ele>839.164</ele>
        <time>2020-02-22T13:10:46Z</time>
      </trkpt>
      <trkpt lat="44.35988" lon="5.6055">
        <ele>839.165</ele>
        <time>2020-02-22T13:10:52Z</time>
      </trkpt>
      <trkpt lat="44.35988" lon="5.6055">
        <ele>839.189</ele>
        <time>2020-02-22T13:10:57Z</time>
      </trkpt>
      <trkpt lat="44.35988" lon="5.6055">
        <ele>839.159</ele>
        <time>2020-02-22T13:11:03Z</time>
      </trkpt>
      <trkpt lat="44.35988" lon="5.6055">
        <ele>839.17</ele>
        <time>2020-02-22T13:11:09Z</time>
      </trkpt>
      <trkpt lat="44.35988" lon="5.60551">
        <ele>839.251</ele>
        <time>2020-02-22T13:11:14Z</time>
      </trkpt>
      <trkpt lat="44.35989" lon="5.60554">
        <ele>841.783</ele>
        <time>2020-02-22T13:11:19Z</time>
      </trkpt>
      <trkpt lat="44.35981" lon="5.60563">
        <ele>839.157</ele>
        <time>2020-02-22T13:11:25Z</time>
      </trkpt>
      <trkpt lat="44.35979" lon="5.6058">
        <ele>842.702</ele>
        <time>2020-02-22T13:11:30Z</time>
      </trkpt>
      <trkpt lat="44.35976" lon="5.60602">
        <ele>840.164</ele>
        <time>2020-02-22T13:11:36Z</time>
      </trkpt>
      <trkpt lat="44.35971" lon="5.6062">
        <ele>838.983</ele>
        <time>2020-02-22T13:11:41Z</time>
      </trkpt>
      <trkpt lat="44.3596" lon="5.60649">
        <ele>841</ele>
        <time>2020-02-22T13:11:47Z</time>
      </trkpt>
      <trkpt lat="44.3594" lon="5.60681">
        <ele>840.865</ele>
        <time>2020-02-22T13:11:53Z</time>
      </trkpt>
      <trkpt lat="44.35919" lon="5.60715">
        <ele>841.91</ele>
        <time>2020-02-22T13:11:59Z</time>
      </trkpt>
      <trkpt lat="44.359" lon="5.60755">
        <ele>839.468</ele>
        <time>2020-02-22T13:12:05Z</time>
      </trkpt>
      <trkpt lat="44.35889" lon="5.60797">
        <ele>838.616</ele>
        <time>2020-02-22T13:12:11Z</time>
      </trkpt>
      <trkpt lat="44.35888" lon="5.60843">
        <ele>837.62</ele>
        <time>2020-02-22T13:12:17Z</time>
      </trkpt>
      <trkpt lat="44.35886" lon="5.60888">
        <ele>839.003</ele>
        <time>2020-02-22T13:12:23Z</time>
      </trkpt>
      <trkpt lat="44.35883" lon="5.60931">
        <ele>836.539</ele>
        <time>2020-02-22T13:12:29Z</time>
      </trkpt>
      <trkpt lat="44.3588" lon="5.60966">
        <ele>834.953</ele>
        <time>2020-02-22T13:12:34Z</time>
      </trkpt>
      <trkpt lat="44.35882" lon="5.61006">
        <ele>835.966</ele>
        <time>2020-02-22T13:12:40Z</time>
      </trkpt>
      <trkpt lat="44.35886" lon="5.61042">
        <ele>838.592</ele>
        <time>2020-02-22T13:12:45Z</time>
      </trkpt>
      <trkpt lat="44.3589" lon="5.61075">
        <ele>840.859</ele>
        <time>2020-02-22T13:12:50Z</time>
      </trkpt>
      <trkpt lat="44.35896" lon="5.6111">
        <ele>840.503</ele>
        <time>2020-02-22T13:12:55Z</time>
      </trkpt>
      <trkpt lat="44.35907" lon="5.61156">
        <ele>838.819</ele>
        <time>2020-02-22T13:13:01Z</time>
      </trkpt>
      <trkpt lat="44.35917" lon="5.6121">
        <ele>837.372</ele>
        <time>2020-02-22T13:13:07Z</time>
      </trkpt>
      <trkpt lat="44.35918" lon="5.6125">
        <ele>834.359</ele>
        <time>2020-02-22T13:13:12Z</time>
      </trkpt>
      <trkpt lat="44.35916" lon="5.61306">
        <ele>833.897</ele>
        <time>2020-02-22T13:13:18Z</time>
      </trkpt>
      <trkpt lat="44.35944" lon="5.6135">
        <ele>833.561</ele>
        <time>2020-02-22T13:13:24Z</time>
      </trkpt>
      <trkpt lat="44.35971" lon="5.61385">
        <ele>831.857</ele>
        <time>2020-02-22T13:13:29Z</time>
      </trkpt>
      <trkpt lat="44.35994" lon="5.61442">
        <ele>831.477</ele>
        <time>2020-02-22T13:13:35Z</time>
      </trkpt>
      <trkpt lat="44.36002" lon="5.61491">
        <ele>830.821</ele>
        <time>2020-02-22T13:13:40Z</time>
      </trkpt>
      <trkpt lat="44.35998" lon="5.61549">
        <ele>830.146</ele>
        <time>2020-02-22T13:13:46Z</time>
      </trkpt>
      <trkpt lat="44.35995" lon="5.61595">
        <ele>826.68</ele>
        <time>2020-02-22T13:13:51Z</time>
      </trkpt>
      <trkpt lat="44.35989" lon="5.61647">
        <ele>827.451</ele>
        <time>2020-02-22T13:13:56Z</time>
      </trkpt>
      <trkpt lat="44.35979" lon="5.61704">
        <ele>828.106</ele>
        <time>2020-02-22T13:14:02Z</time>
      </trkpt>
      <trkpt lat="44.35972" lon="5.61751">
        <ele>829.542</ele>
        <time>2020-02-22T13:14:07Z</time>
      </trkpt>
      <trkpt lat="44.35973" lon="5.618">
        <ele>826.537</ele>
        <time>2020-02-22T13:14:12Z</time>
      </trkpt>
      <trkpt lat="44.35982" lon="5.61854">
        <ele>824.306</ele>
        <time>2020-02-22T13:14:18Z</time>
      </trkpt>
      <trkpt lat="44.35993" lon="5.61909">
        <ele>822.07</ele>
        <time>2020-02-22T13:14:24Z</time>
      </trkpt>
      <trkpt lat="44.36002" lon="5.61954">
        <ele>823.224</ele>
        <time>2020-02-22T13:14:29Z</time>
      </trkpt>
      <trkpt lat="44.36016" lon="5.61998">
        <ele>822.687</ele>
        <time>2020-02-22T13:14:34Z</time>
      </trkpt>
      <trkpt lat="44.36039" lon="5.62046">
        <ele>820.823</ele>
        <time>2020-02-22T13:14:40Z</time>
      </trkpt>
      <trkpt lat="44.36058" lon="5.62086">
        <ele>819.438</ele>
        <time>2020-02-22T13:14:45Z</time>
      </trkpt>
      <trkpt lat="44.36076" lon="5.62129">
        <ele>818.511</ele>
        <time>2020-02-22T13:14:50Z</time>
      </trkpt>
      <trkpt lat="44.36091" lon="5.62179">
        <ele>816.812</ele>
        <time>2020-02-22T13:14:56Z</time>
      </trkpt>
      <trkpt lat="44.361" lon="5.62233">
        <ele>817.112</ele>
        <time>2020-02-22T13:15:02Z</time>
      </trkpt>
      <trkpt lat="44.36103" lon="5.62287">
        <ele>815.63</ele>
        <time>2020-02-22T13:15:08Z</time>
      </trkpt>
      <trkpt lat="44.36103" lon="5.62331">
        <ele>814.87</ele>
        <time>2020-02-22T13:15:13Z</time>
      </trkpt>
      <trkpt lat="44.36093" lon="5.62382">
        <ele>812.315</ele>
        <time>2020-02-22T13:15:19Z</time>
      </trkpt>
      <trkpt lat="44.36078" lon="5.62428">
        <ele>809.714</ele>
        <time>2020-02-22T13:15:24Z</time>
      </trkpt>
      <trkpt lat="44.36071" lon="5.62477">
        <ele>810.835</ele>
        <time>2020-02-22T13:15:29Z</time>
      </trkpt>
      <trkpt lat="44.36074" lon="5.62538">
        <ele>810.367</ele>
        <time>2020-02-22T13:15:35Z</time>
      </trkpt>
      <trkpt lat="44.36076" lon="5.62601">
        <ele>811.389</ele>
        <time>2020-02-22T13:15:41Z</time>
      </trkpt>
      <trkpt lat="44.36081" lon="5.62652">
        <ele>808.937</ele>
        <time>2020-02-22T13:15:46Z</time>
      </trkpt>
      <trkpt lat="44.36086" lon="5.62705">
        <ele>806.105</ele>
        <time>2020-02-22T13:15:52Z</time>
      </trkpt>
      <trkpt lat="44.36101" lon="5.62753">
        <ele>808.413</ele>
        <time>2020-02-22T13:15:58Z</time>
      </trkpt>
      <trkpt lat="44.36121" lon="5.62794">
        <ele>803.83</ele>
        <time>2020-02-22T13:16:04Z</time>
      </trkpt>
      <trkpt lat="44.36141" lon="5.62835">
        <ele>803.757</ele>
        <time>2020-02-22T13:16:10Z</time>
      </trkpt>
      <trkpt lat="44.36156" lon="5.62879">
        <ele>805.801</ele>
        <time>2020-02-22T13:16:16Z</time>
      </trkpt>
      <trkpt lat="44.36168" lon="5.62918">
        <ele>805.555</ele>
        <time>2020-02-22T13:16:21Z</time>
      </trkpt>
      <trkpt lat="44.36179" lon="5.62964">
        <ele>805.499</ele>
        <time>2020-02-22T13:16:27Z</time>
      </trkpt>
      <trkpt lat="44.36183" lon="5.62999">
        <ele>804.507</ele>
        <time>2020-02-22T13:16:32Z</time>
      </trkpt>
      <trkpt lat="44.36192" lon="5.63041">
        <ele>802.95</ele>
        <time>2020-02-22T13:16:38Z</time>
      </trkpt>
      <trkpt lat="44.36199" lon="5.63079">
        <ele>803.712</ele>
        <time>2020-02-22T13:16:43Z</time>
      </trkpt>
      <trkpt lat="44.36205" lon="5.63116">
        <ele>803.842</ele>
        <time>2020-02-22T13:16:48Z</time>
      </trkpt>
      <trkpt lat="44.36212" lon="5.63155">
        <ele>799.046</ele>
        <time>2020-02-22T13:16:54Z</time>
      </trkpt>
      <trkpt lat="44.36218" lon="5.63188">
        <ele>800.245</ele>
        <time>2020-02-22T13:16:59Z</time>
      </trkpt>
      <trkpt lat="44.36226" lon="5.63223">
        <ele>800.419</ele>
        <time>2020-02-22T13:17:04Z</time>
      </trkpt>
      <trkpt lat="44.36245" lon="5.63261">
        <ele>799.59</ele>
        <time>2020-02-22T13:17:10Z</time>
      </trkpt>
      <trkpt lat="44.36267" lon="5.63296">
        <ele>801.29</ele>
        <time>2020-02-22T13:17:16Z</time>
      </trkpt>
      <trkpt lat="44.3629" lon="5.63332">
        <ele>799.403</ele>
        <time>2020-02-22T13:17:22Z</time>
      </trkpt>
      <trkpt lat="44.36305" lon="5.63373">
        <ele>799.929</ele>
        <time>2020-02-22T13:17:28Z</time>
      </trkpt>
      <trkpt lat="44.36316" lon="5.63407">
        <ele>798.605</ele>
        <time>2020-02-22T13:17:33Z</time>
      </trkpt>
      <trkpt lat="44.36329" lon="5.63447">
        <ele>799.615</ele>
        <time>2020-02-22T13:17:39Z</time>
      </trkpt>
      <trkpt lat="44.36334" lon="5.63483">
        <ele>800.482</ele>
        <time>2020-02-22T13:17:44Z</time>
      </trkpt>
      <trkpt lat="44.36335" lon="5.63525">
        <ele>799.376</ele>
        <time>2020-02-22T13:17:50Z</time>
      </trkpt>
      <trkpt lat="44.36336" lon="5.63559">
        <ele>797.921</ele>
        <time>2020-02-22T13:17:55Z</time>
      </trkpt>
      <trkpt lat="44.36337" lon="5.63594">
        <ele>795.763</ele>
        <time>2020-02-22T13:18:01Z</time>
      </trkpt>
      <trkpt lat="44.36342" lon="5.63627">
        <ele>794.2</ele>
        <time>2020-02-22T13:18:06Z</time>
      </trkpt>
      <trkpt lat="44.36345" lon="5.63669">
        <ele>792.786</ele>
        <time>2020-02-22T13:18:11Z</time>
      </trkpt>
      <trkpt lat="44.36338" lon="5.63724">
        <ele>793.535</ele>
        <time>2020-02-22T13:18:17Z</time>
      </trkpt>
      <trkpt lat="44.36328" lon="5.63769">
        <ele>796.407</ele>
        <time>2020-02-22T13:18:22Z</time>
      </trkpt>
      <trkpt lat="44.3632" lon="5.6381">
        <ele>794.746</ele>
        <time>2020-02-22T13:18:27Z</time>
      </trkpt>
      <trkpt lat="44.36316" lon="5.63867">
        <ele>792.886</ele>
        <time>2020-02-22T13:18:33Z</time>
      </trkpt>
      <trkpt lat="44.36319" lon="5.63929">
        <ele>792.757</ele>
        <time>2020-02-22T13:18:39Z</time>
      </trkpt>
      <trkpt lat="44.36319" lon="5.6398">
        <ele>792.341</ele>
        <time>2020-02-22T13:18:44Z</time>
      </trkpt>
      <trkpt lat="44.36319" lon="5.64038">
        <ele>794.21</ele>
        <time>2020-02-22T13:18:50Z</time>
      </trkpt>
      <trkpt lat="44.3632" lon="5.64093">
        <ele>794.01</ele>
        <time>2020-02-22T13:18:56Z</time>
      </trkpt>
      <trkpt lat="44.3632" lon="5.64139">
        <ele>793.734</ele>
        <time>2020-02-22T13:19:01Z</time>
      </trkpt>
      <trkpt lat="44.36318" lon="5.64196">
        <ele>795.421</ele>
        <time>2020-02-22T13:19:07Z</time>
      </trkpt>
      <trkpt lat="44.36311" lon="5.64249">
        <ele>797.828</ele>
        <time>2020-02-22T13:19:13Z</time>
      </trkpt>
      <trkpt lat="44.36305" lon="5.64301">
        <ele>796.787</ele>
        <time>2020-02-22T13:19:19Z</time>
      </trkpt>
      <trkpt lat="44.36294" lon="5.64342">
        <ele>795.685</ele>
        <time>2020-02-22T13:19:24Z</time>
      </trkpt>
      <trkpt lat="44.36282" lon="5.64388">
        <ele>794.58</ele>
        <time>2020-02-22T13:19:30Z</time>
      </trkpt>
      <trkpt lat="44.36268" lon="5.6443">
        <ele>794.095</ele>
        <time>2020-02-22T13:19:36Z</time>
      </trkpt>
      <trkpt lat="44.36263" lon="5.64467">
        <ele>792.808</ele>
        <time>2020-02-22T13:19:41Z</time>
      </trkpt>
      <trkpt lat="44.36254" lon="5.64516">
        <ele>792.495</ele>
        <time>2020-02-22T13:19:47Z</time>
      </trkpt>
      <trkpt lat="44.36247" lon="5.64566">
        <ele>792.373</ele>
        <time>2020-02-22T13:19:53Z</time>
      </trkpt>
      <trkpt lat="44.3624" lon="5.6461">
        <ele>792.532</ele>
        <time>2020-02-22T13:19:58Z</time>
      </trkpt>
      <trkpt lat="44.36234" lon="5.64663">
        <ele>791.519</ele>
        <time>2020-02-22T13:20:04Z</time>
      </trkpt>
      <trkpt lat="44.36226" lon="5.64708">
        <ele>790.74</ele>
        <time>2020-02-22T13:20:10Z</time>
      </trkpt>
      <trkpt lat="44.3622" lon="5.64747">
        <ele>790.728</ele>
        <time>2020-02-22T13:20:15Z</time>
      </trkpt>
      <trkpt lat="44.36214" lon="5.64792">
        <ele>791.604</ele>
        <time>2020-02-22T13:20:21Z</time>
      </trkpt>
      <trkpt lat="44.36208" lon="5.64833">
        <ele>793.038</ele>
        <time>2020-02-22T13:20:27Z</time>
      </trkpt>
      <trkpt lat="44.36203" lon="5.64864">
        <ele>792.776</ele>
        <time>2020-02-22T13:20:32Z</time>
      </trkpt>
      <trkpt lat="44.36198" lon="5.64894">
        <ele>794.225</ele>
        <time>2020-02-22T13:20:37Z</time>
      </trkpt>
      <trkpt lat="44.36192" lon="5.64931">
        <ele>792.816</ele>
        <time>2020-02-22T13:20:43Z</time>
      </trkpt>
      <trkpt lat="44.36188" lon="5.64962">
        <ele>791.88</ele>
        <time>2020-02-22T13:20:48Z</time>
      </trkpt>
      <trkpt lat="44.3618" lon="5.64996">
        <ele>793.431</ele>
        <time>2020-02-22T13:20:54Z</time>
      </trkpt>
      <trkpt lat="44.36172" lon="5.65021">
        <ele>794.741</ele>
        <time>2020-02-22T13:20:59Z</time>
      </trkpt>
      <trkpt lat="44.36159" lon="5.65044">
        <ele>795.631</ele>
        <time>2020-02-22T13:21:05Z</time>
      </trkpt>
      <trkpt lat="44.36143" lon="5.65066">
        <ele>795.016</ele>
        <time>2020-02-22T13:21:11Z</time>
      </trkpt>
      <trkpt lat="44.36119" lon="5.65087">
        <ele>793.792</ele>
        <time>2020-02-22T13:21:17Z</time>
      </trkpt>
      <trkpt lat="44.36089" lon="5.65098">
        <ele>792.23</ele>
        <time>2020-02-22T13:21:23Z</time>
      </trkpt>
      <trkpt lat="44.36064" lon="5.65112">
        <ele>792.794</ele>
        <time>2020-02-22T13:21:28Z</time>
      </trkpt>
      <trkpt lat="44.36041" lon="5.65135">
        <ele>792.069</ele>
        <time>2020-02-22T13:21:33Z</time>
      </trkpt>
      <trkpt lat="44.36019" lon="5.65175">
        <ele>790.173</ele>
        <time>2020-02-22T13:21:39Z</time>
      </trkpt>
      <trkpt lat="44.35998" lon="5.65207">
        <ele>789.291</ele>
        <time>2020-02-22T13:21:44Z</time>
      </trkpt>
      <trkpt lat="44.35966" lon="5.65242">
        <ele>788.218</ele>
        <time>2020-02-22T13:21:50Z</time>
      </trkpt>
      <trkpt lat="44.35946" lon="5.65284">
        <ele>787.04</ele>
        <time>2020-02-22T13:21:55Z</time>
      </trkpt>
      <trkpt lat="44.35926" lon="5.65339">
        <ele>784.622</ele>
        <time>2020-02-22T13:22:01Z</time>
      </trkpt>
      <trkpt lat="44.35901" lon="5.6539">
        <ele>785.052</ele>
        <time>2020-02-22T13:22:07Z</time>
      </trkpt>
      <trkpt lat="44.3588" lon="5.65433">
        <ele>783.296</ele>
        <time>2020-02-22T13:22:12Z</time>
      </trkpt>
      <trkpt lat="44.35861" lon="5.65495">
        <ele>781.608</ele>
        <time>2020-02-22T13:22:18Z</time>
      </trkpt>
      <trkpt lat="44.35847" lon="5.65548">
        <ele>779.878</ele>
        <time>2020-02-22T13:22:23Z</time>
      </trkpt>
      <trkpt lat="44.35838" lon="5.65614">
        <ele>780.138</ele>
        <time>2020-02-22T13:22:29Z</time>
      </trkpt>
      <trkpt lat="44.35832" lon="5.65676">
        <ele>777.26</ele>
        <time>2020-02-22T13:22:35Z</time>
      </trkpt>
      <trkpt lat="44.35825" lon="5.65722">
        <ele>777.4</ele>
        <time>2020-02-22T13:22:40Z</time>
      </trkpt>
      <trkpt lat="44.35816" lon="5.65771">
        <ele>776.326</ele>
        <time>2020-02-22T13:22:46Z</time>
      </trkpt>
      <trkpt lat="44.35811" lon="5.65812">
        <ele>775.531</ele>
        <time>2020-02-22T13:22:51Z</time>
      </trkpt>
      <trkpt lat="44.35803" lon="5.65862">
        <ele>775.432</ele>
        <time>2020-02-22T13:22:57Z</time>
      </trkpt>
      <trkpt lat="44.35793" lon="5.65905">
        <ele>774.276</ele>
        <time>2020-02-22T13:23:02Z</time>
      </trkpt>
      <trkpt lat="44.35776" lon="5.65949">
        <ele>774.283</ele>
        <time>2020-02-22T13:23:08Z</time>
      </trkpt>
      <trkpt lat="44.35755" lon="5.65991">
        <ele>775.037</ele>
        <time>2020-02-22T13:23:14Z</time>
      </trkpt>
      <trkpt lat="44.35738" lon="5.66029">
        <ele>775.467</ele>
        <time>2020-02-22T13:23:19Z</time>
      </trkpt>
      <trkpt lat="44.35722" lon="5.66078">
        <ele>775.183</ele>
        <time>2020-02-22T13:23:25Z</time>
      </trkpt>
      <trkpt lat="44.3571" lon="5.66119">
        <ele>775.519</ele>
        <time>2020-02-22T13:23:30Z</time>
      </trkpt>
      <trkpt lat="44.35695" lon="5.66169">
        <ele>773.872</ele>
        <time>2020-02-22T13:23:36Z</time>
      </trkpt>
      <trkpt lat="44.35674" lon="5.66218">
        <ele>773.221</ele>
        <time>2020-02-22T13:23:42Z</time>
      </trkpt>
      <trkpt lat="44.35652" lon="5.66269">
        <ele>771.617</ele>
        <time>2020-02-22T13:23:48Z</time>
      </trkpt>
      <trkpt lat="44.35632" lon="5.66314">
        <ele>770.766</ele>
        <time>2020-02-22T13:23:53Z</time>
      </trkpt>
      <trkpt lat="44.35609" lon="5.66372">
        <ele>769.389</ele>
        <time>2020-02-22T13:23:59Z</time>
      </trkpt>
      <trkpt lat="44.35591" lon="5.6643">
        <ele>767.568</ele>
        <time>2020-02-22T13:24:05Z</time>
      </trkpt>
      <trkpt lat="44.35577" lon="5.66478">
        <ele>766.519</ele>
        <time>2020-02-22T13:24:10Z</time>
      </trkpt>
      <trkpt lat="44.35564" lon="5.66522">
        <ele>765.149</ele>
        <time>2020-02-22T13:24:15Z</time>
      </trkpt>
      <trkpt lat="44.35541" lon="5.66562">
        <ele>764.192</ele>
        <time>2020-02-22T13:24:21Z</time>
      </trkpt>
      <trkpt lat="44.35517" lon="5.66601">
        <ele>762.631</ele>
        <time>2020-02-22T13:24:27Z</time>
      </trkpt>
      <trkpt lat="44.35493" lon="5.66646">
        <ele>761.046</ele>
        <time>2020-02-22T13:24:33Z</time>
      </trkpt>
      <trkpt lat="44.35472" lon="5.66698">
        <ele>758.984</ele>
        <time>2020-02-22T13:24:39Z</time>
      </trkpt>
      <trkpt lat="44.3546" lon="5.66744">
        <ele>758.687</ele>
        <time>2020-02-22T13:24:44Z</time>
      </trkpt>
      <trkpt lat="44.35456" lon="5.66791">
        <ele>758.195</ele>
        <time>2020-02-22T13:24:49Z</time>
      </trkpt>
      <trkpt lat="44.35466" lon="5.66845">
        <ele>758.66</ele>
        <time>2020-02-22T13:24:55Z</time>
      </trkpt>
      <trkpt lat="44.35475" lon="5.66888">
        <ele>757.657</ele>
        <time>2020-02-22T13:25:00Z</time>
      </trkpt>
      <trkpt lat="44.3549" lon="5.66928">
        <ele>757.863</ele>
        <time>2020-02-22T13:25:05Z</time>
      </trkpt>
      <trkpt lat="44.35513" lon="5.66975">
        <ele>757.518</ele>
        <time>2020-02-22T13:25:11Z</time>
      </trkpt>
      <trkpt lat="44.35527" lon="5.67027">
        <ele>757.432</ele>
        <time>2020-02-22T13:25:17Z</time>
      </trkpt>
      <trkpt lat="44.3553" lon="5.67072">
        <ele>759.854</ele>
        <time>2020-02-22T13:25:22Z</time>
      </trkpt>
      <trkpt lat="44.35525" lon="5.67126">
        <ele>759.776</ele>
        <time>2020-02-22T13:25:28Z</time>
      </trkpt>
      <trkpt lat="44.35508" lon="5.67173">
        <ele>757.844</ele>
        <time>2020-02-22T13:25:34Z</time>
      </trkpt>
      <trkpt lat="44.35487" lon="5.67206">
        <ele>756.933</ele>
        <time>2020-02-22T13:25:39Z</time>
      </trkpt>
      <trkpt lat="44.35459" lon="5.67246">
        <ele>755.499</ele>
        <time>2020-02-22T13:25:45Z</time>
      </trkpt>
      <trkpt lat="44.3544" lon="5.6729">
        <ele>750.456</ele>
        <time>2020-02-22T13:25:50Z</time>
      </trkpt>
      <trkpt lat="44.3543" lon="5.67347">
        <ele>748.971</ele>
        <time>2020-02-22T13:25:56Z</time>
      </trkpt>
      <trkpt lat="44.35426" lon="5.67399">
        <ele>749.721</ele>
        <time>2020-02-22T13:26:01Z</time>
      </trkpt>
      <trkpt lat="44.35408" lon="5.67456">
        <ele>747.325</ele>
        <time>2020-02-22T13:26:07Z</time>
      </trkpt>
      <trkpt lat="44.35387" lon="5.67516">
        <ele>745.445</ele>
        <time>2020-02-22T13:26:13Z</time>
      </trkpt>
      <trkpt lat="44.35366" lon="5.67562">
        <ele>746.056</ele>
        <time>2020-02-22T13:26:18Z</time>
      </trkpt>
      <trkpt lat="44.35343" lon="5.67606">
        <ele>743.94</ele>
        <time>2020-02-22T13:26:23Z</time>
      </trkpt>
      <trkpt lat="44.35319" lon="5.67658">
        <ele>742.826</ele>
        <time>2020-02-22T13:26:29Z</time>
      </trkpt>
      <trkpt lat="44.35313" lon="5.6772">
        <ele>745.261</ele>
        <time>2020-02-22T13:26:35Z</time>
      </trkpt>
      <trkpt lat="44.35317" lon="5.67772">
        <ele>744.654</ele>
        <time>2020-02-22T13:26:40Z</time>
      </trkpt>
      <trkpt lat="44.35322" lon="5.67824">
        <ele>742.906</ele>
        <time>2020-02-22T13:26:45Z</time>
      </trkpt>
      <trkpt lat="44.35319" lon="5.67885">
        <ele>746.09</ele>
        <time>2020-02-22T13:26:51Z</time>
      </trkpt>
      <trkpt lat="44.35301" lon="5.67928">
        <ele>744.241</ele>
        <time>2020-02-22T13:26:56Z</time>
      </trkpt>
      <trkpt lat="44.35275" lon="5.67976">
        <ele>741.234</ele>
        <time>2020-02-22T13:27:02Z</time>
      </trkpt>
      <trkpt lat="44.35254" lon="5.68013">
        <ele>742.75</ele>
        <time>2020-02-22T13:27:07Z</time>
      </trkpt>
      <trkpt lat="44.35236" lon="5.68044">
        <ele>743.563</ele>
        <time>2020-02-22T13:27:12Z</time>
      </trkpt>
      <trkpt lat="44.35215" lon="5.68085">
        <ele>743.563</ele>
        <time>2020-02-22T13:27:18Z</time>
      </trkpt>
      <trkpt lat="44.35197" lon="5.68117">
        <ele>741.918</ele>
        <time>2020-02-22T13:27:23Z</time>
      </trkpt>
      <trkpt lat="44.35184" lon="5.68164">
        <ele>742.64</ele>
        <time>2020-02-22T13:27:29Z</time>
      </trkpt>
      <trkpt lat="44.35173" lon="5.68216">
        <ele>740.562</ele>
        <time>2020-02-22T13:27:35Z</time>
      </trkpt>
      <trkpt lat="44.35157" lon="5.68259">
        <ele>741.791</ele>
        <time>2020-02-22T13:27:40Z</time>
      </trkpt>
      <trkpt lat="44.35135" lon="5.68312">
        <ele>740.391</ele>
        <time>2020-02-22T13:27:46Z</time>
      </trkpt>
      <trkpt lat="44.35123" lon="5.68355">
        <ele>740.228</ele>
        <time>2020-02-22T13:27:51Z</time>
      </trkpt>
      <trkpt lat="44.35119" lon="5.68413">
        <ele>740.943</ele>
        <time>2020-02-22T13:27:57Z</time>
      </trkpt>
      <trkpt lat="44.35106" lon="5.68464">
        <ele>742.046</ele>
        <time>2020-02-22T13:28:03Z</time>
      </trkpt>
      <trkpt lat="44.35088" lon="5.68502">
        <ele>740.053</ele>
        <time>2020-02-22T13:28:08Z</time>
      </trkpt>
      <trkpt lat="44.35061" lon="5.68539">
        <ele>740.022</ele>
        <time>2020-02-22T13:28:14Z</time>
      </trkpt>
      <trkpt lat="44.35025" lon="5.68573">
        <ele>736.293</ele>
        <time>2020-02-22T13:28:20Z</time>
      </trkpt>
      <trkpt lat="44.35006" lon="5.68597">
        <ele>737.787</ele>
        <time>2020-02-22T13:28:25Z</time>
      </trkpt>
      <trkpt lat="44.34994" lon="5.68639">
        <ele>738.188</ele>
        <time>2020-02-22T13:28:31Z</time>
      </trkpt>
      <trkpt lat="44.34993" lon="5.68702">
        <ele>737.438</ele>
        <time>2020-02-22T13:28:37Z</time>
      </trkpt>
      <trkpt lat="44.34992" lon="5.6876">
        <ele>736.241</ele>
        <time>2020-02-22T13:28:42Z</time>
      </trkpt>
      <trkpt lat="44.34983" lon="5.68814">
        <ele>733.752</ele>
        <time>2020-02-22T13:28:47Z</time>
      </trkpt>
      <trkpt lat="44.34971" lon="5.68877">
        <ele>731.305</ele>
        <time>2020-02-22T13:28:53Z</time>
      </trkpt>
      <trkpt lat="44.3497" lon="5.68945">
        <ele>729.886</ele>
        <time>2020-02-22T13:28:59Z</time>
      </trkpt>
      <trkpt lat="44.3496" lon="5.69001">
        <ele>729.353</ele>
        <time>2020-02-22T13:29:04Z</time>
      </trkpt>
      <trkpt lat="44.34945" lon="5.69065">
        <ele>728.677</ele>
        <time>2020-02-22T13:29:10Z</time>
      </trkpt>
      <trkpt lat="44.34926" lon="5.69128">
        <ele>725.682</ele>
        <time>2020-02-22T13:29:16Z</time>
      </trkpt>
      <trkpt lat="44.34911" lon="5.69179">
        <ele>724.505</ele>
        <time>2020-02-22T13:29:21Z</time>
      </trkpt>
      <trkpt lat="44.34888" lon="5.69237">
        <ele>723.857</ele>
        <time>2020-02-22T13:29:27Z</time>
      </trkpt>
      <trkpt lat="44.3486" lon="5.6929">
        <ele>722.448</ele>
        <time>2020-02-22T13:29:33Z</time>
      </trkpt>
      <trkpt lat="44.34851" lon="5.69339">
        <ele>721.164</ele>
        <time>2020-02-22T13:29:38Z</time>
      </trkpt>
      <trkpt lat="44.34849" lon="5.69403">
        <ele>719.108</ele>
        <time>2020-02-22T13:29:44Z</time>
      </trkpt>
      <trkpt lat="44.34847" lon="5.69467">
        <ele>718.834</ele>
        <time>2020-02-22T13:29:50Z</time>
      </trkpt>
      <trkpt lat="44.34842" lon="5.69531">
        <ele>718.66</ele>
        <time>2020-02-22T13:29:56Z</time>
      </trkpt>
      <trkpt lat="44.34831" lon="5.69592">
        <ele>720.388</ele>
        <time>2020-02-22T13:30:02Z</time>
      </trkpt>
      <trkpt lat="44.34827" lon="5.69656">
        <ele>718.979</ele>
        <time>2020-02-22T13:30:08Z</time>
      </trkpt>
      <trkpt lat="44.34821" lon="5.69707">
        <ele>715.322</ele>
        <time>2020-02-22T13:30:13Z</time>
      </trkpt>
      <trkpt lat="44.34824" lon="5.69767">
        <ele>713.748</ele>
        <time>2020-02-22T13:30:19Z</time>
      </trkpt>
      <trkpt lat="44.34835" lon="5.69817">
        <ele>719.132</ele>
        <time>2020-02-22T13:30:24Z</time>
      </trkpt>
      <trkpt lat="44.34856" lon="5.69869">
        <ele>718.517</ele>
        <time>2020-02-22T13:30:30Z</time>
      </trkpt>
      <trkpt lat="44.34888" lon="5.69894">
        <ele>718.914</ele>
        <time>2020-02-22T13:30:35Z</time>
      </trkpt>
      <trkpt lat="44.34928" lon="5.69917">
        <ele>718.719</ele>
        <time>2020-02-22T13:30:41Z</time>
      </trkpt>
      <trkpt lat="44.34954" lon="5.69944">
        <ele>717.918</ele>
        <time>2020-02-22T13:30:46Z</time>
      </trkpt>
      <trkpt lat="44.34989" lon="5.69963">
        <ele>717.688</ele>
        <time>2020-02-22T13:30:52Z</time>
      </trkpt>
      <trkpt lat="44.35022" lon="5.69984">
        <ele>719.607</ele>
        <time>2020-02-22T13:30:58Z</time>
      </trkpt>
      <trkpt lat="44.35045" lon="5.70019">
        <ele>719.526</ele>
        <time>2020-02-22T13:31:04Z</time>
      </trkpt>
      <trkpt lat="44.35055" lon="5.70055">
        <ele>718.159</ele>
        <time>2020-02-22T13:31:09Z</time>
      </trkpt>
      <trkpt lat="44.35062" lon="5.7009">
        <ele>716.717</ele>
        <time>2020-02-22T13:31:14Z</time>
      </trkpt>
      <trkpt lat="44.35068" lon="5.70129">
        <ele>717.42</ele>
        <time>2020-02-22T13:31:20Z</time>
      </trkpt>
      <trkpt lat="44.35073" lon="5.70158">
        <ele>716.914</ele>
        <time>2020-02-22T13:31:25Z</time>
      </trkpt>
      <trkpt lat="44.35078" lon="5.70194">
        <ele>718.555</ele>
        <time>2020-02-22T13:31:31Z</time>
      </trkpt>
      <trkpt lat="44.35081" lon="5.70232">
        <ele>719.019</ele>
        <time>2020-02-22T13:31:37Z</time>
      </trkpt>
      <trkpt lat="44.35085" lon="5.7027">
        <ele>718.194</ele>
        <time>2020-02-22T13:31:43Z</time>
      </trkpt>
      <trkpt lat="44.35087" lon="5.703">
        <ele>718.568</ele>
        <time>2020-02-22T13:31:48Z</time>
      </trkpt>
      <trkpt lat="44.35091" lon="5.70341">
        <ele>720.601</ele>
        <time>2020-02-22T13:31:54Z</time>
      </trkpt>
      <trkpt lat="44.35095" lon="5.70381">
        <ele>722.204</ele>
        <time>2020-02-22T13:32:00Z</time>
      </trkpt>
      <trkpt lat="44.35102" lon="5.70423">
        <ele>724.137</ele>
        <time>2020-02-22T13:32:06Z</time>
      </trkpt>
      <trkpt lat="44.35108" lon="5.70457">
        <ele>723.949</ele>
        <time>2020-02-22T13:32:11Z</time>
      </trkpt>
      <trkpt lat="44.35119" lon="5.70493">
        <ele>722.789</ele>
        <time>2020-02-22T13:32:17Z</time>
      </trkpt>
      <trkpt lat="44.35131" lon="5.70523">
        <ele>723.364</ele>
        <time>2020-02-22T13:32:22Z</time>
      </trkpt>
      <trkpt lat="44.35144" lon="5.70558">
        <ele>725.334</ele>
        <time>2020-02-22T13:32:28Z</time>
      </trkpt>
      <trkpt lat="44.35158" lon="5.70588">
        <ele>724.472</ele>
        <time>2020-02-22T13:32:34Z</time>
      </trkpt>
      <trkpt lat="44.35172" lon="5.70621">
        <ele>724.163</ele>
        <time>2020-02-22T13:32:40Z</time>
      </trkpt>
      <trkpt lat="44.35185" lon="5.70653">
        <ele>723.545</ele>
        <time>2020-02-22T13:32:45Z</time>
      </trkpt>
      <trkpt lat="44.352" lon="5.70691">
        <ele>723.124</ele>
        <time>2020-02-22T13:32:51Z</time>
      </trkpt>
      <trkpt lat="44.35212" lon="5.70728">
        <ele>722.435</ele>
        <time>2020-02-22T13:32:57Z</time>
      </trkpt>
      <trkpt lat="44.35223" lon="5.70754">
        <ele>723.686</ele>
        <time>2020-02-22T13:33:02Z</time>
      </trkpt>
      <trkpt lat="44.35234" lon="5.70775">
        <ele>724.669</ele>
        <time>2020-02-22T13:33:07Z</time>
      </trkpt>
      <trkpt lat="44.35249" lon="5.70788">
        <ele>728.849</ele>
        <time>2020-02-22T13:33:12Z</time>
      </trkpt>
      <trkpt lat="44.3527" lon="5.70802">
        <ele>728.366</ele>
        <time>2020-02-22T13:33:18Z</time>
      </trkpt>
      <trkpt lat="44.35292" lon="5.70812">
        <ele>726.645</ele>
        <time>2020-02-22T13:33:24Z</time>
      </trkpt>
      <trkpt lat="44.3531" lon="5.70819">
        <ele>726.681</ele>
        <time>2020-02-22T13:33:29Z</time>
      </trkpt>
      <trkpt lat="44.35333" lon="5.70828">
        <ele>727.936</ele>
        <time>2020-02-22T13:33:35Z</time>
      </trkpt>
      <trkpt lat="44.35362" lon="5.70838">
        <ele>728.431</ele>
        <time>2020-02-22T13:33:41Z</time>
      </trkpt>
      <trkpt lat="44.35385" lon="5.70848">
        <ele>728.906</ele>
        <time>2020-02-22T13:33:46Z</time>
      </trkpt>
      <trkpt lat="44.35409" lon="5.70869">
        <ele>726.2</ele>
        <time>2020-02-22T13:33:51Z</time>
      </trkpt>
      <trkpt lat="44.35448" lon="5.70892">
        <ele>724.508</ele>
        <time>2020-02-22T13:33:57Z</time>
      </trkpt>
      <trkpt lat="44.3548" lon="5.70926">
        <ele>724.15</ele>
        <time>2020-02-22T13:34:03Z</time>
      </trkpt>
      <trkpt lat="44.35484" lon="5.70988">
        <ele>724.263</ele>
        <time>2020-02-22T13:34:09Z</time>
      </trkpt>
      <trkpt lat="44.35481" lon="5.71049">
        <ele>722.63</ele>
        <time>2020-02-22T13:34:15Z</time>
      </trkpt>
      <trkpt lat="44.3548" lon="5.71098">
        <ele>721.744</ele>
        <time>2020-02-22T13:34:20Z</time>
      </trkpt>
      <trkpt lat="44.35496" lon="5.71154">
        <ele>721.34</ele>
        <time>2020-02-22T13:34:26Z</time>
      </trkpt>
      <trkpt lat="44.35516" lon="5.71201">
        <ele>719.865</ele>
        <time>2020-02-22T13:34:32Z</time>
      </trkpt>
      <trkpt lat="44.35538" lon="5.71251">
        <ele>719.806</ele>
        <time>2020-02-22T13:34:38Z</time>
      </trkpt>
      <trkpt lat="44.3556" lon="5.71304">
        <ele>718.757</ele>
        <time>2020-02-22T13:34:44Z</time>
      </trkpt>
      <trkpt lat="44.35566" lon="5.71367">
        <ele>717.273</ele>
        <time>2020-02-22T13:34:50Z</time>
      </trkpt>
      <trkpt lat="44.35568" lon="5.71437">
        <ele>713.913</ele>
        <time>2020-02-22T13:34:56Z</time>
      </trkpt>
      <trkpt lat="44.35571" lon="5.715">
        <ele>711.128</ele>
        <time>2020-02-22T13:35:01Z</time>
      </trkpt>
      <trkpt lat="44.35573" lon="5.7156">
        <ele>709.479</ele>
        <time>2020-02-22T13:35:06Z</time>
      </trkpt>
      <trkpt lat="44.35577" lon="5.71632">
        <ele>707.36</ele>
        <time>2020-02-22T13:35:12Z</time>
      </trkpt>
      <trkpt lat="44.35579" lon="5.717">
        <ele>706.042</ele>
        <time>2020-02-22T13:35:18Z</time>
      </trkpt>
      <trkpt lat="44.35581" lon="5.71755">
        <ele>705.062</ele>
        <time>2020-02-22T13:35:23Z</time>
      </trkpt>
      <trkpt lat="44.35581" lon="5.71809">
        <ele>705.406</ele>
        <time>2020-02-22T13:35:28Z</time>
      </trkpt>
      <trkpt lat="44.35582" lon="5.71868">
        <ele>703.335</ele>
        <time>2020-02-22T13:35:34Z</time>
      </trkpt>
      <trkpt lat="44.35585" lon="5.71926">
        <ele>703.504</ele>
        <time>2020-02-22T13:35:40Z</time>
      </trkpt>
      <trkpt lat="44.35587" lon="5.71982">
        <ele>703.414</ele>
        <time>2020-02-22T13:35:46Z</time>
      </trkpt>
      <trkpt lat="44.35589" lon="5.72029">
        <ele>700.868</ele>
        <time>2020-02-22T13:35:51Z</time>
      </trkpt>
      <trkpt lat="44.35591" lon="5.72086">
        <ele>699.812</ele>
        <time>2020-02-22T13:35:57Z</time>
      </trkpt>
      <trkpt lat="44.35601" lon="5.72135">
        <ele>698.906</ele>
        <time>2020-02-22T13:36:03Z</time>
      </trkpt>
      <trkpt lat="44.35629" lon="5.72156">
        <ele>700.771</ele>
        <time>2020-02-22T13:36:09Z</time>
      </trkpt>
      <trkpt lat="44.3565" lon="5.72173">
        <ele>701.565</ele>
        <time>2020-02-22T13:36:15Z</time>
      </trkpt>
      <trkpt lat="44.35668" lon="5.72186">
        <ele>702.677</ele>
        <time>2020-02-22T13:36:20Z</time>
      </trkpt>
      <trkpt lat="44.35686" lon="5.72197">
        <ele>702.594</ele>
        <time>2020-02-22T13:36:25Z</time>
      </trkpt>
      <trkpt lat="44.35708" lon="5.72211">
        <ele>702.806</ele>
        <time>2020-02-22T13:36:31Z</time>
      </trkpt>
      <trkpt lat="44.35725" lon="5.72223">
        <ele>703.467</ele>
        <time>2020-02-22T13:36:36Z</time>
      </trkpt>
      <trkpt lat="44.35745" lon="5.72237">
        <ele>705.822</ele>
        <time>2020-02-22T13:36:42Z</time>
      </trkpt>
      <trkpt lat="44.35762" lon="5.7225">
        <ele>706.425</ele>
        <time>2020-02-22T13:36:47Z</time>
      </trkpt>
      <trkpt lat="44.35784" lon="5.72262">
        <ele>705.783</ele>
        <time>2020-02-22T13:36:53Z</time>
      </trkpt>
      <trkpt lat="44.35806" lon="5.72271">
        <ele>707.542</ele>
        <time>2020-02-22T13:36:59Z</time>
      </trkpt>
      <trkpt lat="44.35824" lon="5.72277">
        <ele>707.989</ele>
        <time>2020-02-22T13:37:04Z</time>
      </trkpt>
      <trkpt lat="44.35846" lon="5.72283">
        <ele>708.324</ele>
        <time>2020-02-22T13:37:10Z</time>
      </trkpt>
      <trkpt lat="44.35867" lon="5.72288">
        <ele>709.105</ele>
        <time>2020-02-22T13:37:16Z</time>
      </trkpt>
      <trkpt lat="44.3589" lon="5.72295">
        <ele>707.673</ele>
        <time>2020-02-22T13:37:22Z</time>
      </trkpt>
      <trkpt lat="44.35908" lon="5.72301">
        <ele>708.223</ele>
        <time>2020-02-22T13:37:27Z</time>
      </trkpt>
      <trkpt lat="44.35933" lon="5.72307">
        <ele>708.518</ele>
        <time>2020-02-22T13:37:33Z</time>
      </trkpt>
      <trkpt lat="44.35955" lon="5.72314">
        <ele>708.66</ele>
        <time>2020-02-22T13:37:38Z</time>
      </trkpt>
      <trkpt lat="44.35982" lon="5.72326">
        <ele>708.937</ele>
        <time>2020-02-22T13:37:44Z</time>
      </trkpt>
      <trkpt lat="44.36007" lon="5.72349">
        <ele>709.032</ele>
        <time>2020-02-22T13:37:50Z</time>
      </trkpt>
      <trkpt lat="44.36031" lon="5.72376">
        <ele>709.979</ele>
        <time>2020-02-22T13:37:56Z</time>
      </trkpt>
      <trkpt lat="44.36052" lon="5.72405">
        <ele>710.966</ele>
        <time>2020-02-22T13:38:01Z</time>
      </trkpt>
      <trkpt lat="44.36071" lon="5.72437">
        <ele>711.33</ele>
        <time>2020-02-22T13:38:06Z</time>
      </trkpt>
      <trkpt lat="44.36096" lon="5.72464">
        <ele>709.515</ele>
        <time>2020-02-22T13:38:11Z</time>
      </trkpt>
      <trkpt lat="44.36126" lon="5.72496">
        <ele>709.121</ele>
        <time>2020-02-22T13:38:17Z</time>
      </trkpt>
      <trkpt lat="44.36151" lon="5.72525">
        <ele>707.945</ele>
        <time>2020-02-22T13:38:22Z</time>
      </trkpt>
      <trkpt lat="44.36179" lon="5.72561">
        <ele>708.953</ele>
        <time>2020-02-22T13:38:28Z</time>
      </trkpt>
      <trkpt lat="44.36203" lon="5.72592">
        <ele>708.892</ele>
        <time>2020-02-22T13:38:34Z</time>
      </trkpt>
      <trkpt lat="44.36225" lon="5.72621">
        <ele>710.978</ele>
        <time>2020-02-22T13:38:40Z</time>
      </trkpt>
      <trkpt lat="44.36248" lon="5.72643">
        <ele>711.165</ele>
        <time>2020-02-22T13:38:46Z</time>
      </trkpt>
      <trkpt lat="44.3627" lon="5.72659">
        <ele>711.323</ele>
        <time>2020-02-22T13:38:52Z</time>
      </trkpt>
      <trkpt lat="44.36295" lon="5.72669">
        <ele>710.699</ele>
        <time>2020-02-22T13:38:58Z</time>
      </trkpt>
      <trkpt lat="44.3632" lon="5.72679">
        <ele>711.865</ele>
        <time>2020-02-22T13:39:04Z</time>
      </trkpt>
      <trkpt lat="44.36341" lon="5.72688">
        <ele>711.435</ele>
        <time>2020-02-22T13:39:09Z</time>
      </trkpt>
      <trkpt lat="44.36361" lon="5.72699">
        <ele>713.528</ele>
        <time>2020-02-22T13:39:14Z</time>
      </trkpt>
      <trkpt lat="44.36388" lon="5.72712">
        <ele>714.791</ele>
        <time>2020-02-22T13:39:20Z</time>
      </trkpt>
      <trkpt lat="44.36408" lon="5.72728">
        <ele>715.104</ele>
        <time>2020-02-22T13:39:25Z</time>
      </trkpt>
      <trkpt lat="44.36429" lon="5.72753">
        <ele>715.557</ele>
        <time>2020-02-22T13:39:31Z</time>
      </trkpt>
      <trkpt lat="44.36446" lon="5.72775">
        <ele>715.951</ele>
        <time>2020-02-22T13:39:36Z</time>
      </trkpt>
      <trkpt lat="44.36466" lon="5.72799">
        <ele>718.542</ele>
        <time>2020-02-22T13:39:42Z</time>
      </trkpt>
      <trkpt lat="44.36485" lon="5.72824">
        <ele>720.794</ele>
        <time>2020-02-22T13:39:48Z</time>
      </trkpt>
      <trkpt lat="44.365" lon="5.72841">
        <ele>721.288</ele>
        <time>2020-02-22T13:39:53Z</time>
      </trkpt>
      <trkpt lat="44.36518" lon="5.72862">
        <ele>720.948</ele>
        <time>2020-02-22T13:39:59Z</time>
      </trkpt>
      <trkpt lat="44.36532" lon="5.72879">
        <ele>721.738</ele>
        <time>2020-02-22T13:40:04Z</time>
      </trkpt>
      <trkpt lat="44.36545" lon="5.72902">
        <ele>721.718</ele>
        <time>2020-02-22T13:40:10Z</time>
      </trkpt>
      <trkpt lat="44.36556" lon="5.72924">
        <ele>723.194</ele>
        <time>2020-02-22T13:40:16Z</time>
      </trkpt>
      <trkpt lat="44.36564" lon="5.7294">
        <ele>725.052</ele>
        <time>2020-02-22T13:40:21Z</time>
      </trkpt>
      <trkpt lat="44.36575" lon="5.7296">
        <ele>725.647</ele>
        <time>2020-02-22T13:40:27Z</time>
      </trkpt>
      <trkpt lat="44.36582" lon="5.72977">
        <ele>725.531</ele>
        <time>2020-02-22T13:40:32Z</time>
      </trkpt>
      <trkpt lat="44.3659" lon="5.72996">
        <ele>726.534</ele>
        <time>2020-02-22T13:40:37Z</time>
      </trkpt>
      <trkpt lat="44.36596" lon="5.73019">
        <ele>727.885</ele>
        <time>2020-02-22T13:40:43Z</time>
      </trkpt>
      <trkpt lat="44.36602" lon="5.73042">
        <ele>729.421</ele>
        <time>2020-02-22T13:40:49Z</time>
      </trkpt>
      <trkpt lat="44.36607" lon="5.73064">
        <ele>731.3</ele>
        <time>2020-02-22T13:40:55Z</time>
      </trkpt>
      <trkpt lat="44.36616" lon="5.73083">
        <ele>732.981</ele>
        <time>2020-02-22T13:41:01Z</time>
      </trkpt>
      <trkpt lat="44.36626" lon="5.73096">
        <ele>733.211</ele>
        <time>2020-02-22T13:41:06Z</time>
      </trkpt>
      <trkpt lat="44.36639" lon="5.73108">
        <ele>733.669</ele>
        <time>2020-02-22T13:41:12Z</time>
      </trkpt>
      <trkpt lat="44.36651" lon="5.7312">
        <ele>734.314</ele>
        <time>2020-02-22T13:41:18Z</time>
      </trkpt>
      <trkpt lat="44.36665" lon="5.7313">
        <ele>734.305</ele>
        <time>2020-02-22T13:41:24Z</time>
      </trkpt>
      <trkpt lat="44.36675" lon="5.73141">
        <ele>734.983</ele>
        <time>2020-02-22T13:41:29Z</time>
      </trkpt>
      <trkpt lat="44.36688" lon="5.73154">
        <ele>736.495</ele>
        <time>2020-02-22T13:41:35Z</time>
      </trkpt>
      <trkpt lat="44.36701" lon="5.73168">
        <ele>737.933</ele>
        <time>2020-02-22T13:41:41Z</time>
      </trkpt>
      <trkpt lat="44.36711" lon="5.73183">
        <ele>737.387</ele>
        <time>2020-02-22T13:41:46Z</time>
      </trkpt>
      <trkpt lat="44.36705" lon="5.7319">
        <ele>737.605</ele>
        <time>2020-02-22T13:41:51Z</time>
      </trkpt>
      <trkpt lat="44.36706" lon="5.73177">
        <ele>737.145</ele>
        <time>2020-02-22T13:41:57Z</time>
      </trkpt>
      <trkpt lat="44.36718" lon="5.73193">
        <ele>737.909</ele>
        <time>2020-02-22T13:42:03Z</time>
      </trkpt>
      <trkpt lat="44.36729" lon="5.73205">
        <ele>737.645</ele>
        <time>2020-02-22T13:42:08Z</time>
      </trkpt>
      <trkpt lat="44.36745" lon="5.73225">
        <ele>736.331</ele>
        <time>2020-02-22T13:42:14Z</time>
      </trkpt>
      <trkpt lat="44.36759" lon="5.73243">
        <ele>736.843</ele>
        <time>2020-02-22T13:42:19Z</time>
      </trkpt>
      <trkpt lat="44.36775" lon="5.73262">
        <ele>735.599</ele>
        <time>2020-02-22T13:42:24Z</time>
      </trkpt>
      <trkpt lat="44.36792" lon="5.73287">
        <ele>734.518</ele>
        <time>2020-02-22T13:42:30Z</time>
      </trkpt>
      <trkpt lat="44.36797" lon="5.73301">
        <ele>734.395</ele>
        <time>2020-02-22T13:42:36Z</time>
      </trkpt>
      <trkpt lat="44.36805" lon="5.73307">
        <ele>735.267</ele>
        <time>2020-02-22T13:42:41Z</time>
      </trkpt>
      <trkpt lat="44.36806" lon="5.73307">
        <ele>735.956</ele>
        <time>2020-02-22T13:42:46Z</time>
      </trkpt>
      <trkpt lat="44.36806" lon="5.73305">
        <ele>735.713</ele>
        <time>2020-02-22T13:42:52Z</time>
      </trkpt>
      <trkpt lat="44.36807" lon="5.73305">
        <ele>736.009</ele>
        <time>2020-02-22T13:42:58Z</time>
      </trkpt>
      <trkpt lat="44.36807" lon="5.73304">
        <ele>736.212</ele>
        <time>2020-02-22T13:43:03Z</time>
      </trkpt>
      <trkpt lat="44.36806" lon="5.73302">
        <ele>736.84</ele>
        <time>2020-02-22T13:43:08Z</time>
      </trkpt>
      <trkpt lat="44.36806" lon="5.73303">
        <ele>736.169</ele>
        <time>2020-02-22T13:43:14Z</time>
      </trkpt>
      <trkpt lat="44.36806" lon="5.73303">
        <ele>736.177</ele>
        <time>2020-02-22T13:43:20Z</time>
      </trkpt>
      <trkpt lat="44.36806" lon="5.73303">
        <ele>736.174</ele>
        <time>2020-02-22T13:43:25Z</time>
      </trkpt>
      <trkpt lat="44.36806" lon="5.73303">
        <ele>737.464</ele>
        <time>2020-02-22T13:43:30Z</time>
      </trkpt>
      <trkpt lat="44.36806" lon="5.73304">
        <ele>736.921</ele>
        <time>2020-02-22T13:43:36Z</time>
      </trkpt>
      <trkpt lat="44.36806" lon="5.73304">
        <ele>736.74</ele>
        <time>2020-02-22T13:43:41Z</time>
      </trkpt>
      <trkpt lat="44.36806" lon="5.73304">
        <ele>736.694</ele>
        <time>2020-02-22T13:43:47Z</time>
      </trkpt>
      <trkpt lat="44.36806" lon="5.73304">
        <ele>736.671</ele>
        <time>2020-02-22T13:43:52Z</time>
      </trkpt>
      <trkpt lat="44.36806" lon="5.73305">
        <ele>736.66</ele>
        <time>2020-02-22T13:43:58Z</time>
      </trkpt>
      <trkpt lat="44.36806" lon="5.73305">
        <ele>736.671</ele>
        <time>2020-02-22T13:44:04Z</time>
      </trkpt>
      <trkpt lat="44.36806" lon="5.73305">
        <ele>736.673</ele>
        <time>2020-02-22T13:44:09Z</time>
      </trkpt>
      <trkpt lat="44.36806" lon="5.73305">
        <ele>736.669</ele>
        <time>2020-02-22T13:44:15Z</time>
      </trkpt>
      <trkpt lat="44.36806" lon="5.73305">
        <ele>736.668</ele>
        <time>2020-02-22T13:44:20Z</time>
      </trkpt>
      <trkpt lat="44.36806" lon="5.73305">
        <ele>736.672</ele>
        <time>2020-02-22T13:44:25Z</time>
      </trkpt>
      <trkpt lat="44.36804" lon="5.73305">
        <ele>736.754</ele>
        <time>2020-02-22T13:44:31Z</time>
      </trkpt>
      <trkpt lat="44.36804" lon="5.73305">
        <ele>736.621</ele>
        <time>2020-02-22T13:44:37Z</time>
      </trkpt>
      <trkpt lat="44.36805" lon="5.73305">
        <ele>736.64</ele>
        <time>2020-02-22T13:44:42Z</time>
      </trkpt>
      <trkpt lat="44.36805" lon="5.73305">
        <ele>736.644</ele>
        <time>2020-02-22T13:44:47Z</time>
      </trkpt>
      <trkpt lat="44.36804" lon="5.73305">
        <ele>736.602</ele>
        <time>2020-02-22T13:44:53Z</time>
      </trkpt>
      <trkpt lat="44.36798" lon="5.73303">
        <ele>735.834</ele>
        <time>2020-02-22T13:44:59Z</time>
      </trkpt>
      <trkpt lat="44.36792" lon="5.73301">
        <ele>736.755</ele>
        <time>2020-02-22T13:45:05Z</time>
      </trkpt>
      <trkpt lat="44.36793" lon="5.73307">
        <ele>733.958</ele>
        <time>2020-02-22T13:45:10Z</time>
      </trkpt>
      <trkpt lat="44.36793" lon="5.73308">
        <ele>733.876</ele>
        <time>2020-02-22T13:45:16Z</time>
      </trkpt>
      <trkpt lat="44.36793" lon="5.73308">
        <ele>734.973</ele>
        <time>2020-02-22T13:45:22Z</time>
      </trkpt>
      <trkpt lat="44.36794" lon="5.73307">
        <ele>734.91</ele>
        <time>2020-02-22T13:45:28Z</time>
      </trkpt>
      <trkpt lat="44.36794" lon="5.73307">
        <ele>734.926</ele>
        <time>2020-02-22T13:45:33Z</time>
      </trkpt>
      <trkpt lat="44.36794" lon="5.73307">
        <ele>734.934</ele>
        <time>2020-02-22T13:45:39Z</time>
      </trkpt>
      <trkpt lat="44.36794" lon="5.73307">
        <ele>734.944</ele>
        <time>2020-02-22T13:45:44Z</time>
      </trkpt>
      <trkpt lat="44.36794" lon="5.73307">
        <ele>734.938</ele>
        <time>2020-02-22T13:45:50Z</time>
      </trkpt>
      <trkpt lat="44.36794" lon="5.73307">
        <ele>734.946</ele>
        <time>2020-02-22T13:45:55Z</time>
      </trkpt>
      <trkpt lat="44.36794" lon="5.73306">
        <ele>734.704</ele>
        <time>2020-02-22T13:46:01Z</time>
      </trkpt>
      <trkpt lat="44.36795" lon="5.73306">
        <ele>735.802</ele>
        <time>2020-02-22T13:46:07Z</time>
      </trkpt>
      <trkpt lat="44.36795" lon="5.73306">
        <ele>735.805</ele>
        <time>2020-02-22T13:46:12Z</time>
      </trkpt>
      <trkpt lat="44.36795" lon="5.73306">
        <ele>735.805</ele>
        <time>2020-02-22T13:46:18Z</time>
      </trkpt>
      <trkpt lat="44.36795" lon="5.73306">
        <ele>735.807</ele>
        <time>2020-02-22T13:46:23Z</time>
      </trkpt>
      <trkpt lat="44.36795" lon="5.73306">
        <ele>735.806</ele>
        <time>2020-02-22T13:46:28Z</time>
      </trkpt>
      <trkpt lat="44.36795" lon="5.73306">
        <ele>735.803</ele>
        <time>2020-02-22T13:46:33Z</time>
      </trkpt>
      <trkpt lat="44.36795" lon="5.73306">
        <ele>735.823</ele>
        <time>2020-02-22T13:46:39Z</time>
      </trkpt>
      <trkpt lat="44.36795" lon="5.73306">
        <ele>735.75</ele>
        <time>2020-02-22T13:46:45Z</time>
      </trkpt>
      <trkpt lat="44.36795" lon="5.73306">
        <ele>735.768</ele>
        <time>2020-02-22T13:46:51Z</time>
      </trkpt>
      <trkpt lat="44.36795" lon="5.73306">
        <ele>735.749</ele>
        <time>2020-02-22T13:46:56Z</time>
      </trkpt>
      <trkpt lat="44.36795" lon="5.73306">
        <ele>735.753</ele>
        <time>2020-02-22T13:47:02Z</time>
      </trkpt>
      <trkpt lat="44.36795" lon="5.73306">
        <ele>735.721</ele>
        <time>2020-02-22T13:47:07Z</time>
      </trkpt>
      <trkpt lat="44.36795" lon="5.73306">
        <ele>735.658</ele>
        <time>2020-02-22T13:47:12Z</time>
      </trkpt>
      <trkpt lat="44.36795" lon="5.73306">
        <ele>735.643</ele>
        <time>2020-02-22T13:47:17Z</time>
      </trkpt>
      <trkpt lat="44.36795" lon="5.73306">
        <ele>735.637</ele>
        <time>2020-02-22T13:47:22Z</time>
      </trkpt>
      <trkpt lat="44.36795" lon="5.73306">
        <ele>735.652</ele>
        <time>2020-02-22T13:47:28Z</time>
      </trkpt>
      <trkpt lat="44.36795" lon="5.73306">
        <ele>735.598</ele>
        <time>2020-02-22T13:47:33Z</time>
      </trkpt>
      <trkpt lat="44.36795" lon="5.73306">
        <ele>735.584</ele>
        <time>2020-02-22T13:47:38Z</time>
      </trkpt>
      <trkpt lat="44.36795" lon="5.73306">
        <ele>735.58</ele>
        <time>2020-02-22T13:47:44Z</time>
      </trkpt>
      <trkpt lat="44.36795" lon="5.73306">
        <ele>735.587</ele>
        <time>2020-02-22T13:47:49Z</time>
      </trkpt>
      <trkpt lat="44.36795" lon="5.73306">
        <ele>735.569</ele>
        <time>2020-02-22T13:47:55Z</time>
      </trkpt>
      <trkpt lat="44.36795" lon="5.73306">
        <ele>735.564</ele>
        <time>2020-02-22T13:48:01Z</time>
      </trkpt>
      <trkpt lat="44.36795" lon="5.73306">
        <ele>735.541</ele>
        <time>2020-02-22T13:48:06Z</time>
      </trkpt>
      <trkpt lat="44.36795" lon="5.73306">
        <ele>735.535</ele>
        <time>2020-02-22T13:48:11Z</time>
      </trkpt>
      <trkpt lat="44.36795" lon="5.73306">
        <ele>735.531</ele>
        <time>2020-02-22T13:48:17Z</time>
      </trkpt>
      <trkpt lat="44.36795" lon="5.73306">
        <ele>735.516</ele>
        <time>2020-02-22T13:48:23Z</time>
      </trkpt>
      <trkpt lat="44.36795" lon="5.73306">
        <ele>735.52</ele>
        <time>2020-02-22T13:48:28Z</time>
      </trkpt>
      <trkpt lat="44.36795" lon="5.73306">
        <ele>735.517</ele>
        <time>2020-02-22T13:48:33Z</time>
      </trkpt>
      <trkpt lat="44.36795" lon="5.73306">
        <ele>735.531</ele>
        <time>2020-02-22T13:48:39Z</time>
      </trkpt>
      <trkpt lat="44.36795" lon="5.73306">
        <ele>735.523</ele>
        <time>2020-02-22T13:48:45Z</time>
      </trkpt>
      <trkpt lat="44.36795" lon="5.73306">
        <ele>735.522</ele>
        <time>2020-02-22T13:48:50Z</time>
      </trkpt>
      <trkpt lat="44.36795" lon="5.73306">
        <ele>735.523</ele>
        <time>2020-02-22T13:48:56Z</time>
      </trkpt>
      <trkpt lat="44.36795" lon="5.73306">
        <ele>735.519</ele>
        <time>2020-02-22T13:49:02Z</time>
      </trkpt>
      <trkpt lat="44.36795" lon="5.73306">
        <ele>735.49</ele>
        <time>2020-02-22T13:49:08Z</time>
      </trkpt>
      <trkpt lat="44.36795" lon="5.73306">
        <ele>735.483</ele>
        <time>2020-02-22T13:49:14Z</time>
      </trkpt>
      <trkpt lat="44.36795" lon="5.73306">
        <ele>735.48</ele>
        <time>2020-02-22T13:49:19Z</time>
      </trkpt>
      <trkpt lat="44.36795" lon="5.73306">
        <ele>735.454</ele>
        <time>2020-02-22T13:49:25Z</time>
      </trkpt>
      <trkpt lat="44.36795" lon="5.73306">
        <ele>735.438</ele>
        <time>2020-02-22T13:49:31Z</time>
      </trkpt>
      <trkpt lat="44.36795" lon="5.73306">
        <ele>735.436</ele>
        <time>2020-02-22T13:49:36Z</time>
      </trkpt>
      <trkpt lat="44.36795" lon="5.73306">
        <ele>735.426</ele>
        <time>2020-02-22T13:49:41Z</time>
      </trkpt>
      <trkpt lat="44.36795" lon="5.73306">
        <ele>735.426</ele>
        <time>2020-02-22T13:49:47Z</time>
      </trkpt>
      <trkpt lat="44.36795" lon="5.73306">
        <ele>735.419</ele>
        <time>2020-02-22T13:49:53Z</time>
      </trkpt>
      <trkpt lat="44.36795" lon="5.73306">
        <ele>735.406</ele>
        <time>2020-02-22T13:49:59Z</time>
      </trkpt>
      <trkpt lat="44.36795" lon="5.73306">
        <ele>735.4</ele>
        <time>2020-02-22T13:50:05Z</time>
      </trkpt>
      <trkpt lat="44.36795" lon="5.73306">
        <ele>735.394</ele>
        <time>2020-02-22T13:50:11Z</time>
      </trkpt>
      <trkpt lat="44.36795" lon="5.73306">
        <ele>735.386</ele>
        <time>2020-02-22T13:50:16Z</time>
      </trkpt>
      <trkpt lat="44.36795" lon="5.73306">
        <ele>735.36</ele>
        <time>2020-02-22T13:50:22Z</time>
      </trkpt>
      <trkpt lat="44.36795" lon="5.73306">
        <ele>735.357</ele>
        <time>2020-02-22T13:50:27Z</time>
      </trkpt>
      <trkpt lat="44.36795" lon="5.73306">
        <ele>735.35</ele>
        <time>2020-02-22T13:50:33Z</time>
      </trkpt>
      <trkpt lat="44.36795" lon="5.73306">
        <ele>735.346</ele>
        <time>2020-02-22T13:50:38Z</time>
      </trkpt>
      <trkpt lat="44.36795" lon="5.73306">
        <ele>735.333</ele>
        <time>2020-02-22T13:50:43Z</time>
      </trkpt>
      <trkpt lat="44.36795" lon="5.73306">
        <ele>735.321</ele>
        <time>2020-02-22T13:50:48Z</time>
      </trkpt>
      <trkpt lat="44.36795" lon="5.73306">
        <ele>735.32</ele>
        <time>2020-02-22T13:50:54Z</time>
      </trkpt>
      <trkpt lat="44.36795" lon="5.73306">
        <ele>735.334</ele>
        <time>2020-02-22T13:50:59Z</time>
      </trkpt>
      <trkpt lat="44.36795" lon="5.73306">
        <ele>735.301</ele>
        <time>2020-02-22T13:51:05Z</time>
      </trkpt>
      <trkpt lat="44.36795" lon="5.73306">
        <ele>735.318</ele>
        <time>2020-02-22T13:51:10Z</time>
      </trkpt>
      <trkpt lat="44.36795" lon="5.73306">
        <ele>735.33</ele>
        <time>2020-02-22T13:51:16Z</time>
      </trkpt>
      <trkpt lat="44.36795" lon="5.73306">
        <ele>735.307</ele>
        <time>2020-02-22T13:51:21Z</time>
      </trkpt>
      <trkpt lat="44.36795" lon="5.73306">
        <ele>735.305</ele>
        <time>2020-02-22T13:51:26Z</time>
      </trkpt>
      <trkpt lat="44.36795" lon="5.73306">
        <ele>735.306</ele>
        <time>2020-02-22T13:51:32Z</time>
      </trkpt>
      <trkpt lat="44.36795" lon="5.73306">
        <ele>735.313</ele>
        <time>2020-02-22T13:51:37Z</time>
      </trkpt>
      <trkpt lat="44.36795" lon="5.73306">
        <ele>735.335</ele>
        <time>2020-02-22T13:51:43Z</time>
      </trkpt>
      <trkpt lat="44.36795" lon="5.73306">
        <ele>735.344</ele>
        <time>2020-02-22T13:51:48Z</time>
      </trkpt>
      <trkpt lat="44.36795" lon="5.73306">
        <ele>735.321</ele>
        <time>2020-02-22T13:51:54Z</time>
      </trkpt>
      <trkpt lat="44.36795" lon="5.73306">
        <ele>735.331</ele>
        <time>2020-02-22T13:51:59Z</time>
      </trkpt>
      <trkpt lat="44.36795" lon="5.73306">
        <ele>735.307</ele>
        <time>2020-02-22T13:52:04Z</time>
      </trkpt>
      <trkpt lat="44.36795" lon="5.73306">
        <ele>735.258</ele>
        <time>2020-02-22T13:52:10Z</time>
      </trkpt>
      <trkpt lat="44.36795" lon="5.73306">
        <ele>735.217</ele>
        <time>2020-02-22T13:52:16Z</time>
      </trkpt>
      <trkpt lat="44.36795" lon="5.73306">
        <ele>735.28</ele>
        <time>2020-02-22T13:52:21Z</time>
      </trkpt>
      <trkpt lat="44.36795" lon="5.73306">
        <ele>735.259</ele>
        <time>2020-02-22T13:52:26Z</time>
      </trkpt>
      <trkpt lat="44.36795" lon="5.73306">
        <ele>735.249</ele>
        <time>2020-02-22T13:52:32Z</time>
      </trkpt>
      <trkpt lat="44.36795" lon="5.73306">
        <ele>735.219</ele>
        <time>2020-02-22T13:52:38Z</time>
      </trkpt>
      <trkpt lat="44.36795" lon="5.73306">
        <ele>735.244</ele>
        <time>2020-02-22T13:52:43Z</time>
      </trkpt>
      <trkpt lat="44.36795" lon="5.73306">
        <ele>735.23</ele>
        <time>2020-02-22T13:52:49Z</time>
      </trkpt>
      <trkpt lat="44.36795" lon="5.73306">
        <ele>735.271</ele>
        <time>2020-02-22T13:52:54Z</time>
      </trkpt>
      <trkpt lat="44.36795" lon="5.73306">
        <ele>735.263</ele>
        <time>2020-02-22T13:52:59Z</time>
      </trkpt>
      <trkpt lat="44.36795" lon="5.73306">
        <ele>735.257</ele>
        <time>2020-02-22T13:53:04Z</time>
      </trkpt>
      <trkpt lat="44.36795" lon="5.73306">
        <ele>735.268</ele>
        <time>2020-02-22T13:53:10Z</time>
      </trkpt>
      <trkpt lat="44.36795" lon="5.73306">
        <ele>735.242</ele>
        <time>2020-02-22T13:53:16Z</time>
      </trkpt>
      <trkpt lat="44.36795" lon="5.73306">
        <ele>735.269</ele>
        <time>2020-02-22T13:53:22Z</time>
      </trkpt>
      <trkpt lat="44.36795" lon="5.73306">
        <ele>735.254</ele>
        <time>2020-02-22T13:53:28Z</time>
      </trkpt>
      <trkpt lat="44.36795" lon="5.73306">
        <ele>735.262</ele>
        <time>2020-02-22T13:53:34Z</time>
      </trkpt>
      <trkpt lat="44.36795" lon="5.73306">
        <ele>735.304</ele>
        <time>2020-02-22T13:53:40Z</time>
      </trkpt>
      <trkpt lat="44.36795" lon="5.73306">
        <ele>735.317</ele>
        <time>2020-02-22T13:53:45Z</time>
      </trkpt>
      <trkpt lat="44.36795" lon="5.73306">
        <ele>735.313</ele>
        <time>2020-02-22T13:53:50Z</time>
      </trkpt>
      <trkpt lat="44.36795" lon="5.73306">
        <ele>735.306</ele>
        <time>2020-02-22T13:53:56Z</time>
      </trkpt>
      <trkpt lat="44.36795" lon="5.73306">
        <ele>735.288</ele>
        <time>2020-02-22T13:54:02Z</time>
      </trkpt>
      <trkpt lat="44.36795" lon="5.73306">
        <ele>735.297</ele>
        <time>2020-02-22T13:54:07Z</time>
      </trkpt>
      <trkpt lat="44.36795" lon="5.73306">
        <ele>735.307</ele>
        <time>2020-02-22T13:54:13Z</time>
      </trkpt>
      <trkpt lat="44.36795" lon="5.73306">
        <ele>735.307</ele>
        <time>2020-02-22T13:54:18Z</time>
      </trkpt>
      <trkpt lat="44.36795" lon="5.73306">
        <ele>735.325</ele>
        <time>2020-02-22T13:54:24Z</time>
      </trkpt>
      <trkpt lat="44.36795" lon="5.73306">
        <ele>735.266</ele>
        <time>2020-02-22T13:54:30Z</time>
      </trkpt>
      <trkpt lat="44.36795" lon="5.73306">
        <ele>735.266</ele>
        <time>2020-02-22T13:54:36Z</time>
      </trkpt>
      <trkpt lat="44.36795" lon="5.73306">
        <ele>735.26</ele>
        <time>2020-02-22T13:54:41Z</time>
      </trkpt>
      <trkpt lat="44.36795" lon="5.73306">
        <ele>735.245</ele>
        <time>2020-02-22T13:54:47Z</time>
      </trkpt>
      <trkpt lat="44.36795" lon="5.73306">
        <ele>735.203</ele>
        <time>2020-02-22T13:54:53Z</time>
      </trkpt>
      <trkpt lat="44.36795" lon="5.73306">
        <ele>735.142</ele>
        <time>2020-02-22T13:54:58Z</time>
      </trkpt>
      <trkpt lat="44.36795" lon="5.73306">
        <ele>735.128</ele>
        <time>2020-02-22T13:55:04Z</time>
      </trkpt>
      <trkpt lat="44.36795" lon="5.73306">
        <ele>735.108</ele>
        <time>2020-02-22T13:55:09Z</time>
      </trkpt>
      <trkpt lat="44.36795" lon="5.73306">
        <ele>735.131</ele>
        <time>2020-02-22T13:55:14Z</time>
      </trkpt>
      <trkpt lat="44.36795" lon="5.73306">
        <ele>735.115</ele>
        <time>2020-02-22T13:55:20Z</time>
      </trkpt>
      <trkpt lat="44.36795" lon="5.73306">
        <ele>735.123</ele>
        <time>2020-02-22T13:55:26Z</time>
      </trkpt>
      <trkpt lat="44.36795" lon="5.73306">
        <ele>735.092</ele>
        <time>2020-02-22T13:55:32Z</time>
      </trkpt>
      <trkpt lat="44.36795" lon="5.73306">
        <ele>735.098</ele>
        <time>2020-02-22T13:55:38Z</time>
      </trkpt>
      <trkpt lat="44.36795" lon="5.73306">
        <ele>735.082</ele>
        <time>2020-02-22T13:55:44Z</time>
      </trkpt>
      <trkpt lat="44.36795" lon="5.73306">
        <ele>735.05</ele>
        <time>2020-02-22T13:55:49Z</time>
      </trkpt>
      <trkpt lat="44.36795" lon="5.73306">
        <ele>735.066</ele>
        <time>2020-02-22T13:55:54Z</time>
      </trkpt>
      <trkpt lat="44.36795" lon="5.73306">
        <ele>735.059</ele>
        <time>2020-02-22T13:56:00Z</time>
      </trkpt>
      <trkpt lat="44.36795" lon="5.73306">
        <ele>735.073</ele>
        <time>2020-02-22T13:56:06Z</time>
      </trkpt>
      <trkpt lat="44.36795" lon="5.73306">
        <ele>735.042</ele>
        <time>2020-02-22T13:56:12Z</time>
      </trkpt>
      <trkpt lat="44.36795" lon="5.73306">
        <ele>735.061</ele>
        <time>2020-02-22T13:56:18Z</time>
      </trkpt>
      <trkpt lat="44.36795" lon="5.73306">
        <ele>735.047</ele>
        <time>2020-02-22T13:56:23Z</time>
      </trkpt>
      <trkpt lat="44.36795" lon="5.73306">
        <ele>735.758</ele>
        <time>2020-02-22T13:56:28Z</time>
      </trkpt>
      <trkpt lat="44.36795" lon="5.73307">
        <ele>735.731</ele>
        <time>2020-02-22T13:56:33Z</time>
      </trkpt>
      <trkpt lat="44.36795" lon="5.73306">
        <ele>735.7</ele>
        <time>2020-02-22T13:56:39Z</time>
      </trkpt>
      <trkpt lat="44.36795" lon="5.73306">
        <ele>735.676</ele>
        <time>2020-02-22T13:56:45Z</time>
      </trkpt>
      <trkpt lat="44.36795" lon="5.73306">
        <ele>735.628</ele>
        <time>2020-02-22T13:56:51Z</time>
      </trkpt>
      <trkpt lat="44.36795" lon="5.73306">
        <ele>735.573</ele>
        <time>2020-02-22T13:56:57Z</time>
      </trkpt>
      <trkpt lat="44.36795" lon="5.73306">
        <ele>735.581</ele>
        <time>2020-02-22T13:57:02Z</time>
      </trkpt>
      <trkpt lat="44.36795" lon="5.73306">
        <ele>735.554</ele>
        <time>2020-02-22T13:57:08Z</time>
      </trkpt>
      <trkpt lat="44.36795" lon="5.73306">
        <ele>735.558</ele>
        <time>2020-02-22T13:57:14Z</time>
      </trkpt>
      <trkpt lat="44.36795" lon="5.73306">
        <ele>735.537</ele>
        <time>2020-02-22T13:57:19Z</time>
      </trkpt>
      <trkpt lat="44.36795" lon="5.73306">
        <ele>735.523</ele>
        <time>2020-02-22T13:57:24Z</time>
      </trkpt>
      <trkpt lat="44.36795" lon="5.73306">
        <ele>735.511</ele>
        <time>2020-02-22T13:57:30Z</time>
      </trkpt>
      <trkpt lat="44.36795" lon="5.73306">
        <ele>735.503</ele>
        <time>2020-02-22T13:57:36Z</time>
      </trkpt>
      <trkpt lat="44.36795" lon="5.73306">
        <ele>735.44</ele>
        <time>2020-02-22T13:57:42Z</time>
      </trkpt>
      <trkpt lat="44.36795" lon="5.73306">
        <ele>735.355</ele>
        <time>2020-02-22T13:57:47Z</time>
      </trkpt>
      <trkpt lat="44.36794" lon="5.73307">
        <ele>735.399</ele>
        <time>2020-02-22T13:57:53Z</time>
      </trkpt>
      <trkpt lat="44.36794" lon="5.73308">
        <ele>735.384</ele>
        <time>2020-02-22T13:57:58Z</time>
      </trkpt>
      <trkpt lat="44.36794" lon="5.73308">
        <ele>735.375</ele>
        <time>2020-02-22T13:58:03Z</time>
      </trkpt>
      <trkpt lat="44.36794" lon="5.73308">
        <ele>735.371</ele>
        <time>2020-02-22T13:58:09Z</time>
      </trkpt>
      <trkpt lat="44.36794" lon="5.73308">
        <ele>735.366</ele>
        <time>2020-02-22T13:58:14Z</time>
      </trkpt>
      <trkpt lat="44.36794" lon="5.73308">
        <ele>735.378</ele>
        <time>2020-02-22T13:58:20Z</time>
      </trkpt>
      <trkpt lat="44.36794" lon="5.73308">
        <ele>735.386</ele>
        <time>2020-02-22T13:58:25Z</time>
      </trkpt>
      <trkpt lat="44.36794" lon="5.73308">
        <ele>735.392</ele>
        <time>2020-02-22T13:58:30Z</time>
      </trkpt>
      <trkpt lat="44.36794" lon="5.73308">
        <ele>735.393</ele>
        <time>2020-02-22T13:58:35Z</time>
      </trkpt>
      <trkpt lat="44.36794" lon="5.73308">
        <ele>735.405</ele>
        <time>2020-02-22T13:58:41Z</time>
      </trkpt>
      <trkpt lat="44.36794" lon="5.73308">
        <ele>735.408</ele>
        <time>2020-02-22T13:58:46Z</time>
      </trkpt>
      <trkpt lat="44.36794" lon="5.73308">
        <ele>735.408</ele>
        <time>2020-02-22T13:58:52Z</time>
      </trkpt>
      <trkpt lat="44.36794" lon="5.73308">
        <ele>735.404</ele>
        <time>2020-02-22T13:58:58Z</time>
      </trkpt>
      <trkpt lat="44.36794" lon="5.73308">
        <ele>735.407</ele>
        <time>2020-02-22T13:59:04Z</time>
      </trkpt>
      <trkpt lat="44.36794" lon="5.73308">
        <ele>735.407</ele>
        <time>2020-02-22T13:59:09Z</time>
      </trkpt>
      <trkpt lat="44.36794" lon="5.73308">
        <ele>735.408</ele>
        <time>2020-02-22T13:59:15Z</time>
      </trkpt>
      <trkpt lat="44.36794" lon="5.73308">
        <ele>735.414</ele>
        <time>2020-02-22T13:59:20Z</time>
      </trkpt>
      <trkpt lat="44.36795" lon="5.73308">
        <ele>735.25</ele>
        <time>2020-02-22T13:59:26Z</time>
      </trkpt>
      <trkpt lat="44.36796" lon="5.73308">
        <ele>735.797</ele>
        <time>2020-02-22T13:59:32Z</time>
      </trkpt>
      <trkpt lat="44.368" lon="5.73307">
        <ele>735.799</ele>
        <time>2020-02-22T13:59:37Z</time>
      </trkpt>
      <trkpt lat="44.36804" lon="5.73304">
        <ele>737.281</ele>
        <time>2020-02-22T13:59:43Z</time>
      </trkpt>
      <trkpt lat="44.36805" lon="5.73305">
        <ele>737.269</ele>
        <time>2020-02-22T13:59:49Z</time>
      </trkpt>
      <trkpt lat="44.36805" lon="5.73305">
        <ele>737.009</ele>
        <time>2020-02-22T13:59:54Z</time>
      </trkpt>
      <trkpt lat="44.36805" lon="5.73303">
        <ele>737.596</ele>
        <time>2020-02-22T14:00:00Z</time>
      </trkpt>
      <trkpt lat="44.36805" lon="5.73303">
        <ele>736.522</ele>
        <time>2020-02-22T14:00:06Z</time>
      </trkpt>
      <trkpt lat="44.36805" lon="5.73303">
        <ele>736.522</ele>
        <time>2020-02-22T14:00:11Z</time>
      </trkpt>
      <trkpt lat="44.36805" lon="5.73303">
        <ele>736.528</ele>
        <time>2020-02-22T14:00:17Z</time>
      </trkpt>
      <trkpt lat="44.36805" lon="5.73303">
        <ele>736.53</ele>
        <time>2020-02-22T14:00:23Z</time>
      </trkpt>
      <trkpt lat="44.36805" lon="5.73303">
        <ele>736.53</ele>
        <time>2020-02-22T14:00:28Z</time>
      </trkpt>
      <trkpt lat="44.36805" lon="5.73303">
        <ele>736.537</ele>
        <time>2020-02-22T14:00:34Z</time>
      </trkpt>
      <trkpt lat="44.36805" lon="5.73304">
        <ele>736.221</ele>
        <time>2020-02-22T14:00:40Z</time>
      </trkpt>
      <trkpt lat="44.36805" lon="5.73304">
        <ele>736.238</ele>
        <time>2020-02-22T14:00:45Z</time>
      </trkpt>
      <trkpt lat="44.36805" lon="5.73303">
        <ele>736.283</ele>
        <time>2020-02-22T14:00:51Z</time>
      </trkpt>
      <trkpt lat="44.36805" lon="5.73304">
        <ele>736.312</ele>
        <time>2020-02-22T14:00:56Z</time>
      </trkpt>
      <trkpt lat="44.36805" lon="5.73304">
        <ele>736.345</ele>
        <time>2020-02-22T14:01:02Z</time>
      </trkpt>
      <trkpt lat="44.36805" lon="5.73304">
        <ele>736.352</ele>
        <time>2020-02-22T14:01:08Z</time>
      </trkpt>
      <trkpt lat="44.36805" lon="5.73304">
        <ele>736.379</ele>
        <time>2020-02-22T14:01:14Z</time>
      </trkpt>
      <trkpt lat="44.36805" lon="5.73304">
        <ele>736.386</ele>
        <time>2020-02-22T14:01:19Z</time>
      </trkpt>
      <trkpt lat="44.36805" lon="5.73304">
        <ele>736.395</ele>
        <time>2020-02-22T14:01:25Z</time>
      </trkpt>
      <trkpt lat="44.36805" lon="5.73303">
        <ele>736.388</ele>
        <time>2020-02-22T14:01:30Z</time>
      </trkpt>
      <trkpt lat="44.36805" lon="5.73303">
        <ele>736.384</ele>
        <time>2020-02-22T14:01:36Z</time>
      </trkpt>
      <trkpt lat="44.36805" lon="5.73303">
        <ele>736.376</ele>
        <time>2020-02-22T14:01:41Z</time>
      </trkpt>
      <trkpt lat="44.36805" lon="5.73303">
        <ele>736.377</ele>
        <time>2020-02-22T14:01:47Z</time>
      </trkpt>
      <trkpt lat="44.36805" lon="5.73303">
        <ele>736.385</ele>
        <time>2020-02-22T14:01:52Z</time>
      </trkpt>
      <trkpt lat="44.36805" lon="5.73303">
        <ele>736.384</ele>
        <time>2020-02-22T14:01:58Z</time>
      </trkpt>
      <trkpt lat="44.36805" lon="5.73303">
        <ele>736.395</ele>
        <time>2020-02-22T14:02:03Z</time>
      </trkpt>
      <trkpt lat="44.36805" lon="5.73303">
        <ele>736.411</ele>
        <time>2020-02-22T14:02:09Z</time>
      </trkpt>
      <trkpt lat="44.36805" lon="5.73303">
        <ele>736.377</ele>
        <time>2020-02-22T14:02:14Z</time>
      </trkpt>
      <trkpt lat="44.36805" lon="5.73303">
        <ele>736.382</ele>
        <time>2020-02-22T14:02:20Z</time>
      </trkpt>
      <trkpt lat="44.36805" lon="5.73303">
        <ele>736.366</ele>
        <time>2020-02-22T14:02:25Z</time>
      </trkpt>
      <trkpt lat="44.36805" lon="5.73303">
        <ele>736.363</ele>
        <time>2020-02-22T14:02:31Z</time>
      </trkpt>
      <trkpt lat="44.36805" lon="5.73303">
        <ele>736.365</ele>
        <time>2020-02-22T14:02:36Z</time>
      </trkpt>
      <trkpt lat="44.36805" lon="5.73303">
        <ele>736.362</ele>
        <time>2020-02-22T14:02:42Z</time>
      </trkpt>
      <trkpt lat="44.36805" lon="5.73303">
        <ele>736.377</ele>
        <time>2020-02-22T14:02:47Z</time>
      </trkpt>
      <trkpt lat="44.36805" lon="5.73303">
        <ele>736.371</ele>
        <time>2020-02-22T14:02:53Z</time>
      </trkpt>
      <trkpt lat="44.36805" lon="5.73303">
        <ele>736.359</ele>
        <time>2020-02-22T14:02:59Z</time>
      </trkpt>
      <trkpt lat="44.36805" lon="5.73303">
        <ele>736.387</ele>
        <time>2020-02-22T14:03:05Z</time>
      </trkpt>
      <trkpt lat="44.36805" lon="5.73304">
        <ele>737.505</ele>
        <time>2020-02-22T14:03:11Z</time>
      </trkpt>
      <trkpt lat="44.36804" lon="5.73304">
        <ele>737.378</ele>
        <time>2020-02-22T14:03:16Z</time>
      </trkpt>
      <trkpt lat="44.36804" lon="5.73304">
        <ele>737.379</ele>
        <time>2020-02-22T14:03:22Z</time>
      </trkpt>
      <trkpt lat="44.36804" lon="5.73304">
        <ele>737.403</ele>
        <time>2020-02-22T14:03:28Z</time>
      </trkpt>
      <trkpt lat="44.36805" lon="5.73304">
        <ele>737.888</ele>
        <time>2020-02-22T14:03:34Z</time>
      </trkpt>
      <trkpt lat="44.36804" lon="5.73304">
        <ele>737.796</ele>
        <time>2020-02-22T14:03:39Z</time>
      </trkpt>
      <trkpt lat="44.36804" lon="5.73304">
        <ele>737.767</ele>
        <time>2020-02-22T14:03:45Z</time>
      </trkpt>
      <trkpt lat="44.36804" lon="5.73304">
        <ele>737.74</ele>
        <time>2020-02-22T14:03:51Z</time>
      </trkpt>
      <trkpt lat="44.36804" lon="5.73304">
        <ele>737.728</ele>
        <time>2020-02-22T14:03:56Z</time>
      </trkpt>
      <trkpt lat="44.36804" lon="5.73304">
        <ele>737.733</ele>
        <time>2020-02-22T14:04:02Z</time>
      </trkpt>
      <trkpt lat="44.36804" lon="5.73304">
        <ele>737.721</ele>
        <time>2020-02-22T14:04:07Z</time>
      </trkpt>
      <trkpt lat="44.36804" lon="5.73304">
        <ele>737.699</ele>
        <time>2020-02-22T14:04:12Z</time>
      </trkpt>
      <trkpt lat="44.36804" lon="5.73304">
        <ele>737.514</ele>
        <time>2020-02-22T14:04:18Z</time>
      </trkpt>
      <trkpt lat="44.36804" lon="5.73304">
        <ele>737.524</ele>
        <time>2020-02-22T14:04:24Z</time>
      </trkpt>
      <trkpt lat="44.36804" lon="5.73304">
        <ele>737.069</ele>
        <time>2020-02-22T14:04:29Z</time>
      </trkpt>
      <trkpt lat="44.36804" lon="5.73304">
        <ele>737.062</ele>
        <time>2020-02-22T14:04:35Z</time>
      </trkpt>
      <trkpt lat="44.36804" lon="5.73304">
        <ele>737.449</ele>
        <time>2020-02-22T14:04:41Z</time>
      </trkpt>
      <trkpt lat="44.36804" lon="5.73304">
        <ele>737.441</ele>
        <time>2020-02-22T14:04:46Z</time>
      </trkpt>
      <trkpt lat="44.36804" lon="5.73305">
        <ele>736.812</ele>
        <time>2020-02-22T14:04:52Z</time>
      </trkpt>
      <trkpt lat="44.36804" lon="5.73304">
        <ele>736.8</ele>
        <time>2020-02-22T14:04:58Z</time>
      </trkpt>
      <trkpt lat="44.36804" lon="5.73304">
        <ele>736.822</ele>
        <time>2020-02-22T14:05:03Z</time>
      </trkpt>
      <trkpt lat="44.36804" lon="5.73304">
        <ele>736.816</ele>
        <time>2020-02-22T14:05:09Z</time>
      </trkpt>
      <trkpt lat="44.36804" lon="5.73304">
        <ele>736.83</ele>
        <time>2020-02-22T14:05:15Z</time>
      </trkpt>
      <trkpt lat="44.36804" lon="5.73304">
        <ele>736.833</ele>
        <time>2020-02-22T14:05:20Z</time>
      </trkpt>
      <trkpt lat="44.36804" lon="5.73304">
        <ele>736.844</ele>
        <time>2020-02-22T14:05:26Z</time>
      </trkpt>
      <trkpt lat="44.36805" lon="5.73305">
        <ele>736.839</ele>
        <time>2020-02-22T14:05:32Z</time>
      </trkpt>
      <trkpt lat="44.36805" lon="5.73304">
        <ele>736.896</ele>
        <time>2020-02-22T14:05:38Z</time>
      </trkpt>
      <trkpt lat="44.36806" lon="5.73304">
        <ele>737.137</ele>
        <time>2020-02-22T14:05:44Z</time>
      </trkpt>
      <trkpt lat="44.36806" lon="5.73304">
        <ele>737.018</ele>
        <time>2020-02-22T14:05:50Z</time>
      </trkpt>
      <trkpt lat="44.36806" lon="5.73304">
        <ele>737.007</ele>
        <time>2020-02-22T14:05:55Z</time>
      </trkpt>
      <trkpt lat="44.36806" lon="5.73304">
        <ele>736.991</ele>
        <time>2020-02-22T14:06:01Z</time>
      </trkpt>
      <trkpt lat="44.36804" lon="5.73299">
        <ele>737.263</ele>
        <time>2020-02-22T14:06:06Z</time>
      </trkpt>
      <trkpt lat="44.36804" lon="5.733">
        <ele>737.235</ele>
        <time>2020-02-22T14:06:11Z</time>
      </trkpt>
      <trkpt lat="44.36804" lon="5.733">
        <ele>737.227</ele>
        <time>2020-02-22T14:06:17Z</time>
      </trkpt>
      <trkpt lat="44.36803" lon="5.733">
        <ele>737.199</ele>
        <time>2020-02-22T14:06:23Z</time>
      </trkpt>
      <trkpt lat="44.36796" lon="5.73312">
        <ele>737.039</ele>
        <time>2020-02-22T14:06:28Z</time>
      </trkpt>
      <trkpt lat="44.36777" lon="5.7334">
        <ele>734.958</ele>
        <time>2020-02-22T14:06:34Z</time>
      </trkpt>
      <trkpt lat="44.36751" lon="5.73369">
        <ele>733.219</ele>
        <time>2020-02-22T14:06:40Z</time>
      </trkpt>
      <trkpt lat="44.36722" lon="5.73403">
        <ele>731.878</ele>
        <time>2020-02-22T14:06:46Z</time>
      </trkpt>
      <trkpt lat="44.36694" lon="5.7343">
        <ele>730.829</ele>
        <time>2020-02-22T14:06:52Z</time>
      </trkpt>
      <trkpt lat="44.36721" lon="5.73426">
        <ele>728.769</ele>
        <time>2020-02-22T14:06:57Z</time>
      </trkpt>
      <trkpt lat="44.36754" lon="5.73394">
        <ele>727.047</ele>
        <time>2020-02-22T14:07:02Z</time>
      </trkpt>
      <trkpt lat="44.36793" lon="5.73363">
        <ele>725.142</ele>
        <time>2020-02-22T14:07:07Z</time>
      </trkpt>
      <trkpt lat="44.36847" lon="5.73331">
        <ele>721.896</ele>
        <time>2020-02-22T14:07:13Z</time>
      </trkpt>
      <trkpt lat="44.36905" lon="5.73305">
        <ele>717.368</ele>
        <time>2020-02-22T14:07:19Z</time>
      </trkpt>
      <trkpt lat="44.36952" lon="5.73282">
        <ele>716.035</ele>
        <time>2020-02-22T14:07:24Z</time>
      </trkpt>
      <trkpt lat="44.37011" lon="5.73258">
        <ele>712.182</ele>
        <time>2020-02-22T14:07:30Z</time>
      </trkpt>
      <trkpt lat="44.37058" lon="5.73224">
        <ele>709.046</ele>
        <time>2020-02-22T14:07:35Z</time>
      </trkpt>
      <trkpt lat="44.37119" lon="5.73185">
        <ele>703.905</ele>
        <time>2020-02-22T14:07:41Z</time>
      </trkpt>
      <trkpt lat="44.37159" lon="5.73134">
        <ele>700.159</ele>
        <time>2020-02-22T14:07:46Z</time>
      </trkpt>
      <trkpt lat="44.3719" lon="5.73091">
        <ele>696.409</ele>
        <time>2020-02-22T14:07:52Z</time>
      </trkpt>
      <trkpt lat="44.37225" lon="5.7312">
        <ele>696.505</ele>
        <time>2020-02-22T14:07:57Z</time>
      </trkpt>
      <trkpt lat="44.37262" lon="5.73151">
        <ele>697.41</ele>
        <time>2020-02-22T14:08:03Z</time>
      </trkpt>
      <trkpt lat="44.3729" lon="5.73175">
        <ele>696.173</ele>
        <time>2020-02-22T14:08:08Z</time>
      </trkpt>
      <trkpt lat="44.37333" lon="5.73206">
        <ele>694.109</ele>
        <time>2020-02-22T14:08:14Z</time>
      </trkpt>
      <trkpt lat="44.3738" lon="5.73217">
        <ele>692.446</ele>
        <time>2020-02-22T14:08:19Z</time>
      </trkpt>
      <trkpt lat="44.37437" lon="5.73234">
        <ele>691.535</ele>
        <time>2020-02-22T14:08:25Z</time>
      </trkpt>
      <trkpt lat="44.37483" lon="5.73251">
        <ele>688.656</ele>
        <time>2020-02-22T14:08:30Z</time>
      </trkpt>
      <trkpt lat="44.3754" lon="5.73268">
        <ele>688.142</ele>
        <time>2020-02-22T14:08:36Z</time>
      </trkpt>
      <trkpt lat="44.37586" lon="5.73277">
        <ele>685.565</ele>
        <time>2020-02-22T14:08:41Z</time>
      </trkpt>
      <trkpt lat="44.3764" lon="5.73279">
        <ele>684.601</ele>
        <time>2020-02-22T14:08:47Z</time>
      </trkpt>
      <trkpt lat="44.3769" lon="5.73283">
        <ele>683.454</ele>
        <time>2020-02-22T14:08:53Z</time>
      </trkpt>
      <trkpt lat="44.37735" lon="5.7329">
        <ele>682.914</ele>
        <time>2020-02-22T14:08:59Z</time>
      </trkpt>
      <trkpt lat="44.37773" lon="5.73298">
        <ele>681.702</ele>
        <time>2020-02-22T14:09:04Z</time>
      </trkpt>
      <trkpt lat="44.37818" lon="5.7331">
        <ele>681.166</ele>
        <time>2020-02-22T14:09:10Z</time>
      </trkpt>
      <trkpt lat="44.37856" lon="5.7332">
        <ele>681.722</ele>
        <time>2020-02-22T14:09:15Z</time>
      </trkpt>
      <trkpt lat="44.37899" lon="5.73331">
        <ele>681.958</ele>
        <time>2020-02-22T14:09:21Z</time>
      </trkpt>
      <trkpt lat="44.37932" lon="5.73341">
        <ele>682.796</ele>
        <time>2020-02-22T14:09:26Z</time>
      </trkpt>
      <trkpt lat="44.3797" lon="5.7335">
        <ele>682.938</ele>
        <time>2020-02-22T14:09:32Z</time>
      </trkpt>
      <trkpt lat="44.38" lon="5.73358">
        <ele>684.546</ele>
        <time>2020-02-22T14:09:37Z</time>
      </trkpt>
      <trkpt lat="44.38029" lon="5.73366">
        <ele>685.584</ele>
        <time>2020-02-22T14:09:43Z</time>
      </trkpt>
      <trkpt lat="44.38055" lon="5.7337">
        <ele>683.945</ele>
        <time>2020-02-22T14:09:48Z</time>
      </trkpt>
      <trkpt lat="44.38093" lon="5.73378">
        <ele>683.681</ele>
        <time>2020-02-22T14:09:54Z</time>
      </trkpt>
      <trkpt lat="44.3813" lon="5.73379">
        <ele>682.401</ele>
        <time>2020-02-22T14:09:59Z</time>
      </trkpt>
      <trkpt lat="44.38175" lon="5.73387">
        <ele>682.018</ele>
        <time>2020-02-22T14:10:05Z</time>
      </trkpt>
      <trkpt lat="44.38213" lon="5.73396">
        <ele>681.882</ele>
        <time>2020-02-22T14:10:10Z</time>
      </trkpt>
      <trkpt lat="44.38255" lon="5.73402">
        <ele>684.099</ele>
        <time>2020-02-22T14:10:16Z</time>
      </trkpt>
      <trkpt lat="44.38284" lon="5.73406">
        <ele>684.936</ele>
        <time>2020-02-22T14:10:21Z</time>
      </trkpt>
      <trkpt lat="44.38314" lon="5.7341">
        <ele>686.306</ele>
        <time>2020-02-22T14:10:27Z</time>
      </trkpt>
      <trkpt lat="44.38339" lon="5.73413">
        <ele>688.204</ele>
        <time>2020-02-22T14:10:32Z</time>
      </trkpt>
      <trkpt lat="44.38367" lon="5.73418">
        <ele>688.733</ele>
        <time>2020-02-22T14:10:38Z</time>
      </trkpt>
      <trkpt lat="44.38389" lon="5.73423">
        <ele>688.53</ele>
        <time>2020-02-22T14:10:43Z</time>
      </trkpt>
      <trkpt lat="44.38415" lon="5.73432">
        <ele>689.189</ele>
        <time>2020-02-22T14:10:49Z</time>
      </trkpt>
      <trkpt lat="44.38437" lon="5.73417">
        <ele>690.278</ele>
        <time>2020-02-22T14:10:54Z</time>
      </trkpt>
      <trkpt lat="44.38458" lon="5.73382">
        <ele>687.932</ele>
        <time>2020-02-22T14:11:00Z</time>
      </trkpt>
      <trkpt lat="44.38491" lon="5.73357">
        <ele>685.783</ele>
        <time>2020-02-22T14:11:05Z</time>
      </trkpt>
      <trkpt lat="44.3853" lon="5.73355">
        <ele>682.886</ele>
        <time>2020-02-22T14:11:10Z</time>
      </trkpt>
      <trkpt lat="44.38583" lon="5.73331">
        <ele>679.489</ele>
        <time>2020-02-22T14:11:16Z</time>
      </trkpt>
      <trkpt lat="44.38636" lon="5.73298">
        <ele>678.108</ele>
        <time>2020-02-22T14:11:22Z</time>
      </trkpt>
      <trkpt lat="44.38674" lon="5.73271">
        <ele>677.546</ele>
        <time>2020-02-22T14:11:27Z</time>
      </trkpt>
      <trkpt lat="44.38713" lon="5.73241">
        <ele>677.305</ele>
        <time>2020-02-22T14:11:33Z</time>
      </trkpt>
      <trkpt lat="44.38743" lon="5.73219">
        <ele>678.215</ele>
        <time>2020-02-22T14:11:38Z</time>
      </trkpt>
      <trkpt lat="44.38775" lon="5.73193">
        <ele>677.484</ele>
        <time>2020-02-22T14:11:44Z</time>
      </trkpt>
      <trkpt lat="44.38802" lon="5.73173">
        <ele>679.908</ele>
        <time>2020-02-22T14:11:49Z</time>
      </trkpt>
      <trkpt lat="44.38836" lon="5.73154">
        <ele>679.74</ele>
        <time>2020-02-22T14:11:55Z</time>
      </trkpt>
      <trkpt lat="44.38864" lon="5.73137">
        <ele>680.604</ele>
        <time>2020-02-22T14:12:00Z</time>
      </trkpt>
      <trkpt lat="44.38897" lon="5.73114">
        <ele>681.719</ele>
        <time>2020-02-22T14:12:06Z</time>
      </trkpt>
      <trkpt lat="44.38923" lon="5.73093">
        <ele>681.617</ele>
        <time>2020-02-22T14:12:11Z</time>
      </trkpt>
      <trkpt lat="44.38952" lon="5.73067">
        <ele>680.757</ele>
        <time>2020-02-22T14:12:17Z</time>
      </trkpt>
      <trkpt lat="44.38975" lon="5.73047">
        <ele>678.793</ele>
        <time>2020-02-22T14:12:22Z</time>
      </trkpt>
      <trkpt lat="44.38998" lon="5.73026">
        <ele>680.576</ele>
        <time>2020-02-22T14:12:28Z</time>
      </trkpt>
      <trkpt lat="44.39015" lon="5.73014">
        <ele>682.665</ele>
        <time>2020-02-22T14:12:33Z</time>
      </trkpt>
      <trkpt lat="44.39034" lon="5.73005">
        <ele>683.684</ele>
        <time>2020-02-22T14:12:39Z</time>
      </trkpt>
      <trkpt lat="44.3905" lon="5.73002">
        <ele>683.291</ele>
        <time>2020-02-22T14:12:44Z</time>
      </trkpt>
      <trkpt lat="44.39071" lon="5.73001">
        <ele>684.641</ele>
        <time>2020-02-22T14:12:50Z</time>
      </trkpt>
      <trkpt lat="44.39091" lon="5.73005">
        <ele>683.566</ele>
        <time>2020-02-22T14:12:55Z</time>
      </trkpt>
      <trkpt lat="44.3912" lon="5.73021">
        <ele>683.422</ele>
        <time>2020-02-22T14:13:01Z</time>
      </trkpt>
      <trkpt lat="44.39145" lon="5.73042">
        <ele>683.509</ele>
        <time>2020-02-22T14:13:06Z</time>
      </trkpt>
      <trkpt lat="44.39174" lon="5.73066">
        <ele>683.538</ele>
        <time>2020-02-22T14:13:12Z</time>
      </trkpt>
      <trkpt lat="44.392" lon="5.73085">
        <ele>683.741</ele>
        <time>2020-02-22T14:13:17Z</time>
      </trkpt>
      <trkpt lat="44.39232" lon="5.73094">
        <ele>681.982</ele>
        <time>2020-02-22T14:13:23Z</time>
      </trkpt>
      <trkpt lat="44.39262" lon="5.73092">
        <ele>683.274</ele>
        <time>2020-02-22T14:13:28Z</time>
      </trkpt>
      <trkpt lat="44.39299" lon="5.7308">
        <ele>685.08</ele>
        <time>2020-02-22T14:13:34Z</time>
      </trkpt>
      <trkpt lat="44.39328" lon="5.7307">
        <ele>686.014</ele>
        <time>2020-02-22T14:13:39Z</time>
      </trkpt>
      <trkpt lat="44.39364" lon="5.73057">
        <ele>684.847</ele>
        <time>2020-02-22T14:13:45Z</time>
      </trkpt>
      <trkpt lat="44.39392" lon="5.73046">
        <ele>685.259</ele>
        <time>2020-02-22T14:13:50Z</time>
      </trkpt>
      <trkpt lat="44.39424" lon="5.73031">
        <ele>685.978</ele>
        <time>2020-02-22T14:13:56Z</time>
      </trkpt>
      <trkpt lat="44.39445" lon="5.73016">
        <ele>687.297</ele>
        <time>2020-02-22T14:14:01Z</time>
      </trkpt>
      <trkpt lat="44.39471" lon="5.72997">
        <ele>688.181</ele>
        <time>2020-02-22T14:14:07Z</time>
      </trkpt>
      <trkpt lat="44.39492" lon="5.72986">
        <ele>688.08</ele>
        <time>2020-02-22T14:14:12Z</time>
      </trkpt>
      <trkpt lat="44.39515" lon="5.72979">
        <ele>689.594</ele>
        <time>2020-02-22T14:14:18Z</time>
      </trkpt>
      <trkpt lat="44.39532" lon="5.72972">
        <ele>689.602</ele>
        <time>2020-02-22T14:14:23Z</time>
      </trkpt>
      <trkpt lat="44.39552" lon="5.72962">
        <ele>690.891</ele>
        <time>2020-02-22T14:14:29Z</time>
      </trkpt>
      <trkpt lat="44.39571" lon="5.72947">
        <ele>690.459</ele>
        <time>2020-02-22T14:14:35Z</time>
      </trkpt>
      <trkpt lat="44.39586" lon="5.72932">
        <ele>691.558</ele>
        <time>2020-02-22T14:14:40Z</time>
      </trkpt>
      <trkpt lat="44.39604" lon="5.72914">
        <ele>691.456</ele>
        <time>2020-02-22T14:14:46Z</time>
      </trkpt>
      <trkpt lat="44.39619" lon="5.72897">
        <ele>691.463</ele>
        <time>2020-02-22T14:14:51Z</time>
      </trkpt>
      <trkpt lat="44.39641" lon="5.72874">
        <ele>691.582</ele>
        <time>2020-02-22T14:14:57Z</time>
      </trkpt>
      <trkpt lat="44.39665" lon="5.72845">
        <ele>691.658</ele>
        <time>2020-02-22T14:15:03Z</time>
      </trkpt>
      <trkpt lat="44.39685" lon="5.72819">
        <ele>691.276</ele>
        <time>2020-02-22T14:15:08Z</time>
      </trkpt>
      <trkpt lat="44.39713" lon="5.72788">
        <ele>691.468</ele>
        <time>2020-02-22T14:15:14Z</time>
      </trkpt>
      <trkpt lat="44.39734" lon="5.72761">
        <ele>691.273</ele>
        <time>2020-02-22T14:15:19Z</time>
      </trkpt>
      <trkpt lat="44.39761" lon="5.72729">
        <ele>691.737</ele>
        <time>2020-02-22T14:15:25Z</time>
      </trkpt>
      <trkpt lat="44.39782" lon="5.72701">
        <ele>692.097</ele>
        <time>2020-02-22T14:15:30Z</time>
      </trkpt>
      <trkpt lat="44.39803" lon="5.72674">
        <ele>692.077</ele>
        <time>2020-02-22T14:15:36Z</time>
      </trkpt>
      <trkpt lat="44.39807" lon="5.72668">
        <ele>691.75</ele>
        <time>2020-02-22T14:15:41Z</time>
      </trkpt>
      <trkpt lat="44.39808" lon="5.72669">
        <ele>692.266</ele>
        <time>2020-02-22T14:15:47Z</time>
      </trkpt>
      <trkpt lat="44.39807" lon="5.72669">
        <ele>691.205</ele>
        <time>2020-02-22T14:15:53Z</time>
      </trkpt>
      <trkpt lat="44.39807" lon="5.72669">
        <ele>691.401</ele>
        <time>2020-02-22T14:15:59Z</time>
      </trkpt>
      <trkpt lat="44.39807" lon="5.72669">
        <ele>691.399</ele>
        <time>2020-02-22T14:16:04Z</time>
      </trkpt>
      <trkpt lat="44.39807" lon="5.72669">
        <ele>691.42</ele>
        <time>2020-02-22T14:16:09Z</time>
      </trkpt>
      <trkpt lat="44.39807" lon="5.72669">
        <ele>691.399</ele>
        <time>2020-02-22T14:16:15Z</time>
      </trkpt>
      <trkpt lat="44.39807" lon="5.72669">
        <ele>691.362</ele>
        <time>2020-02-22T14:16:21Z</time>
      </trkpt>
      <trkpt lat="44.39807" lon="5.72669">
        <ele>691.962</ele>
        <time>2020-02-22T14:16:26Z</time>
      </trkpt>
      <trkpt lat="44.39806" lon="5.72669">
        <ele>691.461</ele>
        <time>2020-02-22T14:16:31Z</time>
      </trkpt>
      <trkpt lat="44.39806" lon="5.72669">
        <ele>692.181</ele>
        <time>2020-02-22T14:16:37Z</time>
      </trkpt>
      <trkpt lat="44.39806" lon="5.7267">
        <ele>693</ele>
        <time>2020-02-22T14:16:43Z</time>
      </trkpt>
      <trkpt lat="44.39806" lon="5.7267">
        <ele>692.965</ele>
        <time>2020-02-22T14:16:48Z</time>
      </trkpt>
      <trkpt lat="44.39806" lon="5.7267">
        <ele>692.999</ele>
        <time>2020-02-22T14:16:54Z</time>
      </trkpt>
      <trkpt lat="44.39806" lon="5.72669">
        <ele>693.038</ele>
        <time>2020-02-22T14:17:00Z</time>
      </trkpt>
      <trkpt lat="44.39807" lon="5.72666">
        <ele>692.862</ele>
        <time>2020-02-22T14:17:05Z</time>
      </trkpt>
      <trkpt lat="44.39816" lon="5.72655">
        <ele>693.135</ele>
        <time>2020-02-22T14:17:10Z</time>
      </trkpt>
      <trkpt lat="44.39826" lon="5.72642">
        <ele>691.15</ele>
        <time>2020-02-22T14:17:16Z</time>
      </trkpt>
      <trkpt lat="44.39838" lon="5.72628">
        <ele>690.311</ele>
        <time>2020-02-22T14:17:22Z</time>
      </trkpt>
      <trkpt lat="44.3985" lon="5.72605">
        <ele>691.425</ele>
        <time>2020-02-22T14:17:27Z</time>
      </trkpt>
      <trkpt lat="44.39869" lon="5.72575">
        <ele>691.127</ele>
        <time>2020-02-22T14:17:33Z</time>
      </trkpt>
      <trkpt lat="44.39893" lon="5.72546">
        <ele>691.216</ele>
        <time>2020-02-22T14:17:39Z</time>
      </trkpt>
      <trkpt lat="44.39918" lon="5.72513">
        <ele>691.376</ele>
        <time>2020-02-22T14:17:45Z</time>
      </trkpt>
      <trkpt lat="44.39942" lon="5.72478">
        <ele>692.185</ele>
        <time>2020-02-22T14:17:51Z</time>
      </trkpt>
      <trkpt lat="44.3996" lon="5.72446">
        <ele>692.164</ele>
        <time>2020-02-22T14:17:56Z</time>
      </trkpt>
      <trkpt lat="44.39981" lon="5.72409">
        <ele>692.729</ele>
        <time>2020-02-22T14:18:02Z</time>
      </trkpt>
      <trkpt lat="44.4" lon="5.72385">
        <ele>693.322</ele>
        <time>2020-02-22T14:18:07Z</time>
      </trkpt>
      <trkpt lat="44.40018" lon="5.72365">
        <ele>692.994</ele>
        <time>2020-02-22T14:18:12Z</time>
      </trkpt>
      <trkpt lat="44.40041" lon="5.72344">
        <ele>693.99</ele>
        <time>2020-02-22T14:18:18Z</time>
      </trkpt>
      <trkpt lat="44.40065" lon="5.72321">
        <ele>694.772</ele>
        <time>2020-02-22T14:18:24Z</time>
      </trkpt>
      <trkpt lat="44.40085" lon="5.72301">
        <ele>695.672</ele>
        <time>2020-02-22T14:18:29Z</time>
      </trkpt>
      <trkpt lat="44.40107" lon="5.72281">
        <ele>694.643</ele>
        <time>2020-02-22T14:18:35Z</time>
      </trkpt>
      <trkpt lat="44.40125" lon="5.72264">
        <ele>695.166</ele>
        <time>2020-02-22T14:18:40Z</time>
      </trkpt>
      <trkpt lat="44.40148" lon="5.72243">
        <ele>695.88</ele>
        <time>2020-02-22T14:18:46Z</time>
      </trkpt>
      <trkpt lat="44.40167" lon="5.72224">
        <ele>696.394</ele>
        <time>2020-02-22T14:18:51Z</time>
      </trkpt>
      <trkpt lat="44.40192" lon="5.722">
        <ele>695.961</ele>
        <time>2020-02-22T14:18:57Z</time>
      </trkpt>
      <trkpt lat="44.40212" lon="5.7218">
        <ele>697.63</ele>
        <time>2020-02-22T14:19:02Z</time>
      </trkpt>
      <trkpt lat="44.40235" lon="5.72158">
        <ele>699.402</ele>
        <time>2020-02-22T14:19:08Z</time>
      </trkpt>
      <trkpt lat="44.40253" lon="5.72136">
        <ele>699.406</ele>
        <time>2020-02-22T14:19:13Z</time>
      </trkpt>
      <trkpt lat="44.40274" lon="5.7211">
        <ele>699.654</ele>
        <time>2020-02-22T14:19:19Z</time>
      </trkpt>
      <trkpt lat="44.40293" lon="5.72086">
        <ele>699.019</ele>
        <time>2020-02-22T14:19:24Z</time>
      </trkpt>
      <trkpt lat="44.40318" lon="5.72056">
        <ele>700.217</ele>
        <time>2020-02-22T14:19:30Z</time>
      </trkpt>
      <trkpt lat="44.4034" lon="5.72028">
        <ele>700.114</ele>
        <time>2020-02-22T14:19:35Z</time>
      </trkpt>
      <trkpt lat="44.40366" lon="5.71993">
        <ele>699.197</ele>
        <time>2020-02-22T14:19:41Z</time>
      </trkpt>
      <trkpt lat="44.40389" lon="5.71965">
        <ele>698</ele>
        <time>2020-02-22T14:19:46Z</time>
      </trkpt>
      <trkpt lat="44.40417" lon="5.71939">
        <ele>698.543</ele>
        <time>2020-02-22T14:19:52Z</time>
      </trkpt>
      <trkpt lat="44.40445" lon="5.71911">
        <ele>699.187</ele>
        <time>2020-02-22T14:19:58Z</time>
      </trkpt>
      <trkpt lat="44.4047" lon="5.71882">
        <ele>700.738</ele>
        <time>2020-02-22T14:20:04Z</time>
      </trkpt>
      <trkpt lat="44.4049" lon="5.71857">
        <ele>701.328</ele>
        <time>2020-02-22T14:20:09Z</time>
      </trkpt>
      <trkpt lat="44.40512" lon="5.71824">
        <ele>700.801</ele>
        <time>2020-02-22T14:20:15Z</time>
      </trkpt>
      <trkpt lat="44.40533" lon="5.71794">
        <ele>700.477</ele>
        <time>2020-02-22T14:20:20Z</time>
      </trkpt>
      <trkpt lat="44.40557" lon="5.71757">
        <ele>701.254</ele>
        <time>2020-02-22T14:20:26Z</time>
      </trkpt>
      <trkpt lat="44.40578" lon="5.71726">
        <ele>700.4</ele>
        <time>2020-02-22T14:20:31Z</time>
      </trkpt>
      <trkpt lat="44.40607" lon="5.71689">
        <ele>700.541</ele>
        <time>2020-02-22T14:20:37Z</time>
      </trkpt>
      <trkpt lat="44.40632" lon="5.71658">
        <ele>700.964</ele>
        <time>2020-02-22T14:20:42Z</time>
      </trkpt>
      <trkpt lat="44.40656" lon="5.71632">
        <ele>703.143</ele>
        <time>2020-02-22T14:20:47Z</time>
      </trkpt>
      <trkpt lat="44.40683" lon="5.71605">
        <ele>705.03</ele>
        <time>2020-02-22T14:20:53Z</time>
      </trkpt>
      <trkpt lat="44.40709" lon="5.71575">
        <ele>703.209</ele>
        <time>2020-02-22T14:20:59Z</time>
      </trkpt>
      <trkpt lat="44.40737" lon="5.71545">
        <ele>701.71</ele>
        <time>2020-02-22T14:21:04Z</time>
      </trkpt>
      <trkpt lat="44.40783" lon="5.71519">
        <ele>700.591</ele>
        <time>2020-02-22T14:21:10Z</time>
      </trkpt>
      <trkpt lat="44.40823" lon="5.71507">
        <ele>700.333</ele>
        <time>2020-02-22T14:21:15Z</time>
      </trkpt>
      <trkpt lat="44.40868" lon="5.71495">
        <ele>700.094</ele>
        <time>2020-02-22T14:21:21Z</time>
      </trkpt>
      <trkpt lat="44.40904" lon="5.71487">
        <ele>701.165</ele>
        <time>2020-02-22T14:21:26Z</time>
      </trkpt>
      <trkpt lat="44.40941" lon="5.71478">
        <ele>702.765</ele>
        <time>2020-02-22T14:21:32Z</time>
      </trkpt>
      <trkpt lat="44.40966" lon="5.71473">
        <ele>704.949</ele>
        <time>2020-02-22T14:21:37Z</time>
      </trkpt>
      <trkpt lat="44.40994" lon="5.71466">
        <ele>705.863</ele>
        <time>2020-02-22T14:21:43Z</time>
      </trkpt>
      <trkpt lat="44.41017" lon="5.71459">
        <ele>706.209</ele>
        <time>2020-02-22T14:21:48Z</time>
      </trkpt>
      <trkpt lat="44.41048" lon="5.71446">
        <ele>704.549</ele>
        <time>2020-02-22T14:21:54Z</time>
      </trkpt>
      <trkpt lat="44.41083" lon="5.71432">
        <ele>703.362</ele>
        <time>2020-02-22T14:21:59Z</time>
      </trkpt>
      <trkpt lat="44.41131" lon="5.71411">
        <ele>700.807</ele>
        <time>2020-02-22T14:22:05Z</time>
      </trkpt>
      <trkpt lat="44.41171" lon="5.71389">
        <ele>699.791</ele>
        <time>2020-02-22T14:22:10Z</time>
      </trkpt>
      <trkpt lat="44.41211" lon="5.71358">
        <ele>699.741</ele>
        <time>2020-02-22T14:22:16Z</time>
      </trkpt>
      <trkpt lat="44.41242" lon="5.71335">
        <ele>700.35</ele>
        <time>2020-02-22T14:22:21Z</time>
      </trkpt>
      <trkpt lat="44.41275" lon="5.71305">
        <ele>697.98</ele>
        <time>2020-02-22T14:22:27Z</time>
      </trkpt>
      <trkpt lat="44.41303" lon="5.71282">
        <ele>698.473</ele>
        <time>2020-02-22T14:22:32Z</time>
      </trkpt>
      <trkpt lat="44.41337" lon="5.71258">
        <ele>699.415</ele>
        <time>2020-02-22T14:22:38Z</time>
      </trkpt>
      <trkpt lat="44.41373" lon="5.71246">
        <ele>700.885</ele>
        <time>2020-02-22T14:22:44Z</time>
      </trkpt>
      <trkpt lat="44.41412" lon="5.71232">
        <ele>701.533</ele>
        <time>2020-02-22T14:22:50Z</time>
      </trkpt>
      <trkpt lat="44.41444" lon="5.71225">
        <ele>701.92</ele>
        <time>2020-02-22T14:22:55Z</time>
      </trkpt>
      <trkpt lat="44.41474" lon="5.71218">
        <ele>701.772</ele>
        <time>2020-02-22T14:23:00Z</time>
      </trkpt>
      <trkpt lat="44.41511" lon="5.71214">
        <ele>701.491</ele>
        <time>2020-02-22T14:23:06Z</time>
      </trkpt>
      <trkpt lat="44.41547" lon="5.71208">
        <ele>700.179</ele>
        <time>2020-02-22T14:23:12Z</time>
      </trkpt>
      <trkpt lat="44.41578" lon="5.71204">
        <ele>699.752</ele>
        <time>2020-02-22T14:23:17Z</time>
      </trkpt>
      <trkpt lat="44.41611" lon="5.71201">
        <ele>701.431</ele>
        <time>2020-02-22T14:23:22Z</time>
      </trkpt>
      <trkpt lat="44.41649" lon="5.71194">
        <ele>701.63</ele>
        <time>2020-02-22T14:23:28Z</time>
      </trkpt>
      <trkpt lat="44.41681" lon="5.71197">
        <ele>702.09</ele>
        <time>2020-02-22T14:23:33Z</time>
      </trkpt>
      <trkpt lat="44.41715" lon="5.71206">
        <ele>702.643</ele>
        <time>2020-02-22T14:23:39Z</time>
      </trkpt>
      <trkpt lat="44.41748" lon="5.71212">
        <ele>701.534</ele>
        <time>2020-02-22T14:23:45Z</time>
      </trkpt>
      <trkpt lat="44.41781" lon="5.71202">
        <ele>700.689</ele>
        <time>2020-02-22T14:23:50Z</time>
      </trkpt>
      <trkpt lat="44.41818" lon="5.71171">
        <ele>700.271</ele>
        <time>2020-02-22T14:23:56Z</time>
      </trkpt>
      <trkpt lat="44.41852" lon="5.7114">
        <ele>700.247</ele>
        <time>2020-02-22T14:24:02Z</time>
      </trkpt>
      <trkpt lat="44.4188" lon="5.71116">
        <ele>698.975</ele>
        <time>2020-02-22T14:24:07Z</time>
      </trkpt>
      <trkpt lat="44.41914" lon="5.71087">
        <ele>698.649</ele>
        <time>2020-02-22T14:24:13Z</time>
      </trkpt>
      <trkpt lat="44.41941" lon="5.71063">
        <ele>699.685</ele>
        <time>2020-02-22T14:24:18Z</time>
      </trkpt>
      <trkpt lat="44.41974" lon="5.71035">
        <ele>701.2</ele>
        <time>2020-02-22T14:24:24Z</time>
      </trkpt>
      <trkpt lat="44.42002" lon="5.71021">
        <ele>702.093</ele>
        <time>2020-02-22T14:24:29Z</time>
      </trkpt>
      <trkpt lat="44.42036" lon="5.71012">
        <ele>703.215</ele>
        <time>2020-02-22T14:24:35Z</time>
      </trkpt>
      <trkpt lat="44.42064" lon="5.7101">
        <ele>703.229</ele>
        <time>2020-02-22T14:24:40Z</time>
      </trkpt>
      <trkpt lat="44.42102" lon="5.71011">
        <ele>702.226</ele>
        <time>2020-02-22T14:24:46Z</time>
      </trkpt>
      <trkpt lat="44.4214" lon="5.71013">
        <ele>701.566</ele>
        <time>2020-02-22T14:24:52Z</time>
      </trkpt>
      <trkpt lat="44.42172" lon="5.71017">
        <ele>702.761</ele>
        <time>2020-02-22T14:24:57Z</time>
      </trkpt>
      <trkpt lat="44.42207" lon="5.71018">
        <ele>704.34</ele>
        <time>2020-02-22T14:25:03Z</time>
      </trkpt>
      <trkpt lat="44.42235" lon="5.71013">
        <ele>706.032</ele>
        <time>2020-02-22T14:25:08Z</time>
      </trkpt>
      <trkpt lat="44.42265" lon="5.71003">
        <ele>706.032</ele>
        <time>2020-02-22T14:25:14Z</time>
      </trkpt>
      <trkpt lat="44.42291" lon="5.70995">
        <ele>706.037</ele>
        <time>2020-02-22T14:25:19Z</time>
      </trkpt>
      <trkpt lat="44.42322" lon="5.70987">
        <ele>706.614</ele>
        <time>2020-02-22T14:25:25Z</time>
      </trkpt>
      <trkpt lat="44.42346" lon="5.70983">
        <ele>706.935</ele>
        <time>2020-02-22T14:25:30Z</time>
      </trkpt>
      <trkpt lat="44.42371" lon="5.7098">
        <ele>707.643</ele>
        <time>2020-02-22T14:25:36Z</time>
      </trkpt>
      <trkpt lat="44.42387" lon="5.70977">
        <ele>707.625</ele>
        <time>2020-02-22T14:25:41Z</time>
      </trkpt>
      <trkpt lat="44.42405" lon="5.70975">
        <ele>709.127</ele>
        <time>2020-02-22T14:25:46Z</time>
      </trkpt>
      <trkpt lat="44.42423" lon="5.70976">
        <ele>711.663</ele>
        <time>2020-02-22T14:25:51Z</time>
      </trkpt>
      <trkpt lat="44.42446" lon="5.70987">
        <ele>713.297</ele>
        <time>2020-02-22T14:25:57Z</time>
      </trkpt>
      <trkpt lat="44.42465" lon="5.71001">
        <ele>713.695</ele>
        <time>2020-02-22T14:26:03Z</time>
      </trkpt>
      <trkpt lat="44.42482" lon="5.71016">
        <ele>715.268</ele>
        <time>2020-02-22T14:26:09Z</time>
      </trkpt>
      <trkpt lat="44.42497" lon="5.71026">
        <ele>717.292</ele>
        <time>2020-02-22T14:26:14Z</time>
      </trkpt>
      <trkpt lat="44.4251" lon="5.7103">
        <ele>718.189</ele>
        <time>2020-02-22T14:26:20Z</time>
      </trkpt>
      <trkpt lat="44.42506" lon="5.71042">
        <ele>717.57</ele>
        <time>2020-02-22T14:26:25Z</time>
      </trkpt>
      <trkpt lat="44.42506" lon="5.71071">
        <ele>711.891</ele>
        <time>2020-02-22T14:26:31Z</time>
      </trkpt>
      <trkpt lat="44.42527" lon="5.7111">
        <ele>708.316</ele>
        <time>2020-02-22T14:26:37Z</time>
      </trkpt>
      <trkpt lat="44.42553" lon="5.71145">
        <ele>706.721</ele>
        <time>2020-02-22T14:26:42Z</time>
      </trkpt>
      <trkpt lat="44.42577" lon="5.7118">
        <ele>706.77</ele>
        <time>2020-02-22T14:26:48Z</time>
      </trkpt>
      <trkpt lat="44.426" lon="5.71215">
        <ele>707.084</ele>
        <time>2020-02-22T14:26:54Z</time>
      </trkpt>
      <trkpt lat="44.42618" lon="5.71241">
        <ele>705.959</ele>
        <time>2020-02-22T14:26:59Z</time>
      </trkpt>
      <trkpt lat="44.42641" lon="5.71273">
        <ele>706.696</ele>
        <time>2020-02-22T14:27:05Z</time>
      </trkpt>
      <trkpt lat="44.42661" lon="5.71301">
        <ele>706.928</ele>
        <time>2020-02-22T14:27:10Z</time>
      </trkpt>
      <trkpt lat="44.42685" lon="5.71334">
        <ele>708.72</ele>
        <time>2020-02-22T14:27:16Z</time>
      </trkpt>
      <trkpt lat="44.42702" lon="5.71362">
        <ele>708.725</ele>
        <time>2020-02-22T14:27:21Z</time>
      </trkpt>
      <trkpt lat="44.42722" lon="5.71391">
        <ele>708.32</ele>
        <time>2020-02-22T14:27:27Z</time>
      </trkpt>
      <trkpt lat="44.42724" lon="5.71418">
        <ele>708.708</ele>
        <time>2020-02-22T14:27:33Z</time>
      </trkpt>
      <trkpt lat="44.42701" lon="5.71432">
        <ele>709.846</ele>
        <time>2020-02-22T14:27:39Z</time>
      </trkpt>
      <trkpt lat="44.4268" lon="5.71457">
        <ele>709.211</ele>
        <time>2020-02-22T14:27:45Z</time>
      </trkpt>
      <trkpt lat="44.42662" lon="5.71479">
        <ele>707.492</ele>
        <time>2020-02-22T14:27:50Z</time>
      </trkpt>
      <trkpt lat="44.4265" lon="5.71486">
        <ele>707.077</ele>
        <time>2020-02-22T14:27:55Z</time>
      </trkpt>
      <trkpt lat="44.42649" lon="5.71482">
        <ele>707.48</ele>
        <time>2020-02-22T14:28:01Z</time>
      </trkpt>
      <trkpt lat="44.4265" lon="5.71482">
        <ele>707.121</ele>
        <time>2020-02-22T14:28:06Z</time>
      </trkpt>
      <trkpt lat="44.42651" lon="5.71476">
        <ele>705.999</ele>
        <time>2020-02-22T14:28:12Z</time>
      </trkpt>
      <trkpt lat="44.4265" lon="5.71476">
        <ele>705.557</ele>
        <time>2020-02-22T14:28:17Z</time>
      </trkpt>
      <trkpt lat="44.4265" lon="5.71475">
        <ele>705.431</ele>
        <time>2020-02-22T14:28:23Z</time>
      </trkpt>
      <trkpt lat="44.4265" lon="5.71475">
        <ele>705.327</ele>
        <time>2020-02-22T14:28:31Z</time>
      </trkpt>
      <trkpt lat="44.4265" lon="5.71475">
        <ele>705.348</ele>
        <time>2020-02-22T14:28:37Z</time>
      </trkpt>
    </trkseg>
  </trk>
</gpx>